| time (UTC) | temp F | wind direction | speed knots | gust knots | rain 1hr in | rain 24hr in | rain mn in | humidity % | barometer mb |
| 20260507235129 | 60 | 56 | 1.7 | 3.5 | 0.00 | 0.00 | 0.00 | 67 | 1012.9 |
| 20260507235028 | 60 | 55 | 2.6 | 3.5 | 0.00 | 0.00 | 0.00 | 67 | 1012.9 |
| 20260507234929 | 60 | 51 | 1.7 | 3.5 | 0.00 | 0.00 | 0.00 | 67 | 1013.0 |
| 20260507234829 | 61 | 45 | 1.7 | 3.5 | 0.00 | 0.00 | 0.00 | 67 | 1012.8 |
| 20260507234729 | 61 | 35 | 1.7 | 3.5 | 0.00 | 0.00 | 0.00 | 66 | 1012.9 |
| 20260507234628 | 61 | 27 | 2.6 | 3.5 | 0.00 | 0.00 | 0.00 | 66 | 1013.0 |
| 20260507234529 | 61 | 19 | 1.7 | 3.5 | 0.00 | 0.00 | 0.00 | 65 | 1012.9 |
| 20260507234428 | 61 | 11 | 0.9 | 3.5 | 0.00 | 0.00 | 0.00 | 64 | 1012.8 |
| 20260507234329 | 61 | 4 | 0.9 | 3.5 | 0.00 | 0.00 | 0.00 | 64 | 1013.0 |
| 20260507234229 | 62 | 1 | 1.7 | 3.5 | 0.00 | 0.00 | 0.00 | 64 | 1012.8 |
| 20260507234128 | 62 | 357 | 1.7 | 3.5 | 0.00 | 0.00 | 0.00 | 62 | 1012.9 |
| 20260507234028 | 62 | 358 | 1.7 | 3.5 | 0.00 | 0.00 | 0.00 | 62 | 1013.2 |
| 20260507233929 | 62 | 359 | 1.7 | 3.5 | 0.00 | 0.00 | 0.00 | 63 | 1013.2 |
| 20260507233829 | 62 | 358 | 1.7 | 3.5 | 0.00 | 0.00 | 0.00 | 63 | 1013.1 |
| 20260507233729 | 62 | 357 | 1.7 | 3.5 | 0.00 | 0.00 | 0.00 | 63 | 1013.0 |
| 20260507233629 | 62 | 355 | 1.7 | 3.5 | 0.00 | 0.00 | 0.00 | 63 | 1013.0 |
| 20260507233529 | 62 | 352 | 1.7 | 3.5 | 0.00 | 0.00 | 0.00 | 63 | 1013.1 |
| 20260507233429 | 62 | 351 | 1.7 | 3.5 | 0.00 | 0.00 | 0.00 | 63 | 1013.1 |
| 20260507233329 | 62 | 349 | 1.7 | 1.7 | 0.00 | 0.00 | 0.00 | 63 | 1013.0 |
| 20260507233229 | 62 | 339 | 0.9 | 1.7 | 0.00 | 0.00 | 0.00 | 64 | 1013.0 |
| 20260507233128 | 62 | 326 | 1.7 | 3.5 | 0.00 | 0.00 | 0.00 | 63 | 1013.1 |
| 20260507233029 | 63 | 316 | 1.7 | 3.5 | 0.00 | 0.00 | 0.00 | 62 | 1013.1 |
| 20260507232929 | 63 | 307 | 1.7 | 3.5 | 0.00 | 0.00 | 0.00 | 59 | 1013.3 |
| 20260507232829 | 63 | 302 | 0.9 | 3.5 | 0.00 | 0.00 | 0.00 | 58 | 1013.1 |
| 20260507232729 | 63 | 300 | 0.9 | 3.5 | 0.00 | 0.00 | 0.00 | 58 | 1013.2 |
| 20260507232628 | 63 | 297 | 1.7 | 3.5 | 0.00 | 0.00 | 0.00 | 58 | 1013.2 |
| 20260507232529 | 63 | 295 | 1.7 | 3.5 | 0.00 | 0.00 | 0.00 | 59 | 1013.1 |
| 20260507232429 | 63 | 293 | 1.7 | 3.5 | 0.00 | 0.00 | 0.00 | 59 | 1013.2 |
| 20260507232329 | 63 | 292 | 1.7 | 3.5 | 0.00 | 0.00 | 0.00 | 59 | 1013.2 |
| 20260507232229 | 63 | 292 | 1.7 | 3.5 | 0.00 | 0.00 | 0.00 | 59 | 1013.0 |
| 20260507232128 | 63 | 292 | 1.7 | 3.5 | 0.00 | 0.00 | 0.00 | 59 | 1013.1 |
| 20260507232028 | 63 | 292 | 1.7 | 3.5 | 0.00 | 0.00 | 0.00 | 59 | 1013.2 |
| 20260507231928 | 63 | 292 | 1.7 | 3.5 | 0.00 | 0.00 | 0.00 | 59 | 1013.3 |
| 20260507231829 | 63 | 292 | 1.7 | 3.5 | 0.00 | 0.00 | 0.00 | 59 | 1013.1 |
| 20260507231729 | 63 | 292 | 1.7 | 3.5 | 0.00 | 0.00 | 0.00 | 59 | 1013.2 |
| 20260507231629 | 62 | 292 | 1.7 | 3.5 | 0.00 | 0.00 | 0.00 | 60 | 1013.2 |
| 20260507231529 | 63 | 294 | 1.7 | 1.7 | 0.00 | 0.00 | 0.00 | 60 | 1013.1 |
| 20260507231429 | 62 | 296 | 1.7 | 1.7 | 0.00 | 0.00 | 0.00 | 60 | 1013.1 |
| 20260507231329 | 62 | 299 | 1.7 | 3.5 | 0.00 | 0.00 | 0.00 | 60 | 1013.1 |
| 20260507231229 | 62 | 302 | 1.7 | 3.5 | 0.00 | 0.00 | 0.00 | 60 | 1013.1 |
| 20260507231128 | 62 | 304 | 1.7 | 3.5 | 0.00 | 0.00 | 0.00 | 61 | 1013.2 |
| 20260507231028 | 62 | 307 | 1.7 | 3.5 | 0.00 | 0.00 | 0.00 | 61 | 1013.3 |
| 20260507230928 | 62 | 309 | 1.7 | 3.5 | 0.00 | 0.00 | 0.00 | 62 | 1013.5 |
| 20260507230828 | 62 | 311 | 1.7 | 3.5 | 0.00 | 0.00 | 0.00 | 62 | 1013.4 |
| 20260507230729 | 62 | 313 | 1.7 | 3.5 | 0.00 | 0.00 | 0.00 | 63 | 1013.2 |
| 20260507230629 | 62 | 311 | 1.7 | 3.5 | 0.00 | 0.00 | 0.00 | 65 | 1013.3 |
| 20260507230529 | 61 | 310 | 1.7 | 3.5 | 0.00 | 0.00 | 0.00 | 65 | 1013.3 |
| 20260507230428 | 61 | 308 | 1.7 | 3.5 | 0.00 | 0.00 | 0.00 | 66 | 1013.4 |
| 20260507230329 | 61 | 307 | 1.7 | 3.5 | 0.00 | 0.00 | 0.00 | 66 | 1013.4 |
| 20260507230228 | 61 | 304 | 1.7 | 3.5 | 0.00 | 0.00 | 0.00 | 68 | 1013.4 |
| 20260507230129 | 61 | 302 | 1.7 | 3.5 | 0.00 | 0.00 | 0.00 | 68 | 1013.3 |
| 20260507230029 | 60 | 300 | 1.7 | 3.5 | 0.00 | 0.00 | 0.00 | 69 | 1013.4 |
| 20260507225929 | 60 | 297 | 1.7 | 3.5 | 0.00 | 0.00 | 0.00 | 69 | 1013.4 |
| 20260507225829 | 60 | 294 | 2.6 | 3.5 | 0.00 | 0.00 | 0.00 | 70 | 1013.4 |
| 20260507225728 | 60 | 292 | 2.6 | 3.5 | 0.00 | 0.00 | 0.00 | 69 | 1013.2 |
| 20260507225628 | 61 | 292 | 2.6 | 3.5 | 0.00 | 0.00 | 0.00 | 69 | 1013.2 |
| 20260507225528 | 61 | 292 | 1.7 | 1.7 | 0.00 | 0.00 | 0.00 | 68 | 1013.2 |
| 20260507225428 | 61 | 292 | 0.0 | 1.7 | 0.00 | 0.00 | 0.00 | 68 | 1013.5 |
| 20260507225329 | 62 | 292 | 0.0 | 1.7 | 0.00 | 0.00 | 0.00 | 67 | 1013.4 |
| 20260507225228 | 62 | 292 | 0.9 | 1.7 | 0.00 | 0.00 | 0.00 | 66 | 1013.4 |
| 20260507225128 | 62 | 292 | 1.7 | 1.7 | 0.00 | 0.00 | 0.00 | 65 | 1013.6 |
| 20260507225029 | 63 | 292 | 1.7 | 1.7 | 0.00 | 0.00 | 0.00 | 65 | 1013.6 |
| 20260507224929 | 63 | 292 | 0.9 | 1.7 | 0.00 | 0.00 | 0.00 | 59 | 1013.4 |
| 20260507224829 | 63 | 292 | 0.0 | 1.7 | 0.00 | 0.00 | 0.00 | 59 | 1013.3 |
| 20260507224728 | 63 | 292 | 0.0 | 1.7 | 0.00 | 0.00 | 0.00 | 59 | 1013.2 |
| 20260507224629 | 63 | 292 | 0.9 | 1.7 | 0.00 | 0.00 | 0.00 | 59 | 1013.5 |
| 20260507224528 | 63 | 292 | 0.0 | 3.5 | 0.00 | 0.00 | 0.00 | 59 | 1013.4 |
| 20260507224428 | 63 | 294 | 0.9 | 3.5 | 0.00 | 0.00 | 0.00 | 59 | 1013.5 |
| 20260507224328 | 63 | 298 | 0.9 | 3.5 | 0.00 | 0.00 | 0.00 | 59 | 1013.2 |
| 20260507224229 | 63 | 297 | 1.7 | 3.5 | 0.00 | 0.00 | 0.00 | 59 | 1013.4 |
| 20260507224129 | 63 | 297 | 1.7 | 3.5 | 0.00 | 0.00 | 0.00 | 59 | 1013.4 |
| 20260507224028 | 63 | 297 | 1.7 | 3.5 | 0.00 | 0.00 | 0.00 | 60 | 1013.2 |
| 20260507223929 | 63 | 297 | 1.7 | 3.5 | 0.00 | 0.00 | 0.00 | 60 | 1013.4 |
| 20260507223828 | 63 | 297 | 1.7 | 3.5 | 0.00 | 0.00 | 0.00 | 60 | 1013.3 |
| 20260507223729 | 63 | 297 | 1.7 | 3.5 | 0.00 | 0.00 | 0.00 | 61 | 1013.5 |
| 20260507223629 | 62 | 297 | 1.7 | 3.5 | 0.00 | 0.00 | 0.00 | 61 | 1013.4 |
| 20260507223528 | 62 | 297 | 1.7 | 3.5 | 0.00 | 0.00 | 0.00 | 61 | 1013.4 |
| 20260507223429 | 62 | 295 | 1.7 | 3.5 | 0.00 | 0.00 | 0.00 | 62 | 1013.5 |
| 20260507223329 | 62 | 293 | 1.7 | 3.5 | 0.00 | 0.00 | 0.00 | 63 | 1013.4 |
| 20260507223228 | 62 | 295 | 2.6 | 3.5 | 0.00 | 0.00 | 0.00 | 63 | 1013.4 |
| 20260507223129 | 62 | 296 | 1.7 | 3.5 | 0.00 | 0.00 | 0.00 | 63 | 1013.4 |
| 20260507223029 | 62 | 296 | 1.7 | 3.5 | 0.00 | 0.00 | 0.00 | 63 | 1013.5 |
| 20260507222928 | 62 | 297 | 1.7 | 1.7 | 0.00 | 0.00 | 0.00 | 63 | 1013.3 |
| 20260507222829 | 62 | 299 | 1.7 | 1.7 | 0.00 | 0.00 | 0.00 | 63 | 1013.5 |
| 20260507222729 | 62 | 302 | 1.7 | 1.7 | 0.00 | 0.00 | 0.00 | 63 | 1013.3 |
| 20260507222628 | 62 | 303 | 1.7 | 1.7 | 0.00 | 0.00 | 0.00 | 64 | 1013.5 |
| 20260507222528 | 62 | 305 | 1.7 | 1.7 | 0.00 | 0.00 | 0.00 | 64 | 1013.3 |
| 20260507222429 | 62 | 306 | 1.7 | 1.7 | 0.00 | 0.00 | 0.00 | 64 | 1013.5 |
| 20260507222328 | 62 | 306 | 1.7 | 1.7 | 0.00 | 0.00 | 0.00 | 64 | 1013.4 |
| 20260507222229 | 62 | 303 | 1.7 | 1.7 | 0.00 | 0.00 | 0.00 | 64 | 1013.6 |
| 20260507222129 | 62 | 303 | 1.7 | 1.7 | 0.00 | 0.00 | 0.00 | 65 | 1013.6 |
| 20260507222029 | 62 | 303 | 1.7 | 3.5 | 0.00 | 0.00 | 0.00 | 65 | 1013.8 |
| 20260507221928 | 62 | 302 | 1.7 | 3.5 | 0.00 | 0.00 | 0.00 | 65 | 1013.6 |
| 20260507221829 | 62 | 299 | 1.7 | 3.5 | 0.00 | 0.00 | 0.00 | 66 | 1013.5 |
| 20260507221729 | 61 | 297 | 1.7 | 3.5 | 0.00 | 0.00 | 0.00 | 66 | 1013.7 |
| 20260507221628 | 62 | 296 | 1.7 | 3.5 | 0.00 | 0.00 | 0.00 | 66 | 1013.6 |
| 20260507221528 | 62 | 292 | 1.7 | 3.5 | 0.00 | 0.00 | 0.00 | 66 | 1013.6 |
| 20260507221429 | 62 | 290 | 1.7 | 3.5 | 0.00 | 0.00 | 0.00 | 66 | 1013.2 |
| 20260507221328 | 61 | 290 | 1.7 | 3.5 | 0.00 | 0.00 | 0.00 | 67 | 1013.6 |
| 20260507221228 | 61 | 290 | 1.7 | 3.5 | 0.00 | 0.00 | 0.00 | 67 | 1013.5 |
| 20260507221129 | 61 | 294 | 1.7 | 3.5 | 0.00 | 0.00 | 0.00 | 67 | 1013.5 |
| 20260507221029 | 61 | 297 | 1.7 | 3.5 | 0.00 | 0.00 | 0.00 | 68 | 1013.4 |
| 20260507220929 | 61 | 300 | 0.9 | 3.5 | 0.00 | 0.00 | 0.00 | 68 | 1013.5 |
| 20260507220829 | 61 | 301 | 0.0 | 3.5 | 0.00 | 0.00 | 0.00 | 68 | 1013.6 |
| 20260507220728 | 61 | 300 | 0.0 | 3.5 | 0.00 | 0.00 | 0.00 | 68 | 1013.6 |
| 20260507220628 | 61 | 299 | 0.0 | 3.5 | 0.00 | 0.00 | 0.00 | 68 | 1013.5 |
| 20260507220528 | 61 | 299 | 0.0 | 3.5 | 0.00 | 0.00 | 0.00 | 68 | 1013.7 |
| 20260507220428 | 61 | 298 | 0.0 | 3.5 | 0.00 | 0.00 | 0.00 | 68 | 1013.6 |
| 20260507220329 | 61 | 298 | 0.9 | 3.5 | 0.00 | 0.00 | 0.00 | 68 | 1013.6 |
| 20260507220228 | 61 | 297 | 2.6 | 3.5 | 0.00 | 0.00 | 0.00 | 68 | 1013.6 |
| 20260507220128 | 61 | 296 | 2.6 | 3.5 | 0.00 | 0.00 | 0.00 | 68 | 1013.7 |
| 20260507220030 | 61 | 294 | 2.6 | 3.5 | 0.00 | 0.00 | 0.00 | 68 | 1013.4 |
| 20260507215928 | 61 | 293 | 1.7 | 3.5 | 0.00 | 0.00 | 0.00 | 68 | 1013.6 |
| 20260507215829 | 61 | 292 | 1.7 | 3.5 | 0.00 | 0.00 | 0.00 | 68 | 1013.7 |
| 20260507215729 | 61 | 293 | 2.6 | 3.5 | 0.00 | 0.00 | 0.00 | 69 | 1013.6 |
| 20260507215628 | 61 | 294 | 2.6 | 3.5 | 0.00 | 0.00 | 0.00 | 69 | 1013.6 |
| 20260507215528 | 61 | 294 | 2.6 | 3.5 | 0.00 | 0.00 | 0.00 | 70 | 1013.8 |
| 20260507215429 | 61 | 294 | 1.7 | 3.5 | 0.00 | 0.00 | 0.00 | 70 | 1013.7 |
| 20260507215329 | 61 | 294 | 1.7 | 3.5 | 0.00 | 0.00 | 0.00 | 70 | 1013.6 |
| 20260507215228 | 61 | 294 | 2.6 | 3.5 | 0.00 | 0.00 | 0.00 | 70 | 1013.7 |
| 20260507215129 | 61 | 294 | 2.6 | 3.5 | 0.00 | 0.00 | 0.00 | 70 | 1013.9 |
| 20260507215029 | 61 | 294 | 3.5 | 3.5 | 0.00 | 0.00 | 0.00 | 70 | 1013.8 |
| 20260507214929 | 61 | 294 | 3.5 | 3.5 | 0.00 | 0.00 | 0.00 | 70 | 1013.5 |
| 20260507214828 | 61 | 294 | 3.5 | 3.5 | 0.00 | 0.00 | 0.00 | 70 | 1013.6 |
| 20260507214729 | 61 | 293 | 2.6 | 3.5 | 0.00 | 0.00 | 0.00 | 70 | 1013.7 |
| 20260507214628 | 61 | 292 | 2.6 | 3.5 | 0.00 | 0.00 | 0.00 | 71 | 1013.5 |
| 20260507214528 | 61 | 292 | 2.6 | 3.5 | 0.00 | 0.00 | 0.00 | 71 | 1013.6 |
| 20260507214428 | 61 | 292 | 2.6 | 3.5 | 0.00 | 0.00 | 0.00 | 71 | 1013.7 |
| 20260507214329 | 60 | 292 | 2.6 | 3.5 | 0.00 | 0.00 | 0.00 | 71 | 1013.7 |
| 20260507214229 | 60 | 292 | 2.6 | 3.5 | 0.00 | 0.00 | 0.00 | 71 | 1013.6 |
| 20260507214128 | 60 | 291 | 2.6 | 3.5 | 0.00 | 0.00 | 0.00 | 72 | 1013.7 |
| 20260507214028 | 60 | 291 | 2.6 | 3.5 | 0.00 | 0.00 | 0.00 | 72 | 1013.6 |
| 20260507213928 | 60 | 290 | 2.6 | 3.5 | 0.00 | 0.00 | 0.00 | 72 | 1013.5 |
| 20260507213828 | 60 | 289 | 2.6 | 3.5 | 0.00 | 0.00 | 0.00 | 72 | 1013.7 |
| 20260507213728 | 60 | 287 | 2.6 | 3.5 | 0.00 | 0.00 | 0.00 | 72 | 1013.8 |
| 20260507213628 | 60 | 286 | 2.6 | 3.5 | 0.00 | 0.00 | 0.00 | 72 | 1013.9 |
| 20260507213528 | 60 | 286 | 1.7 | 3.5 | 0.00 | 0.00 | 0.00 | 72 | 1013.7 |
| 20260507213428 | 61 | 283 | 1.7 | 3.5 | 0.00 | 0.00 | 0.00 | 72 | 1013.7 |
| 20260507213329 | 61 | 282 | 0.9 | 1.7 | 0.00 | 0.00 | 0.00 | 71 | 1013.8 |
| 20260507213229 | 61 | 280 | 0.9 | 1.7 | 0.00 | 0.00 | 0.00 | 71 | 1013.7 |
| 20260507213129 | 61 | 280 | 0.9 | 1.7 | 0.00 | 0.00 | 0.00 | 71 | 1013.6 |
| 20260507213029 | 60 | 281 | 0.9 | 1.7 | 0.00 | 0.00 | 0.00 | 71 | 1013.6 |
| 20260507212928 | 60 | 283 | 0.9 | 1.7 | 0.00 | 0.00 | 0.00 | 71 | 1013.9 |
| 20260507212828 | 60 | 283 | 0.0 | 1.7 | 0.00 | 0.00 | 0.00 | 72 | 1013.9 |
| 20260507212728 | 60 | 285 | 0.9 | 1.7 | 0.00 | 0.00 | 0.00 | 72 | 1013.9 |
| 20260507212628 | 60 | 286 | 0.9 | 1.7 | 0.00 | 0.00 | 0.00 | 72 | 1013.7 |
| 20260507212528 | 60 | 286 | 0.0 | 1.7 | 0.00 | 0.00 | 0.00 | 72 | 1013.9 |
| 20260507212428 | 60 | 288 | 0.0 | 1.7 | 0.00 | 0.00 | 0.00 | 73 | 1014.0 |
| 20260507212329 | 60 | 289 | 0.0 | 1.7 | 0.00 | 0.00 | 0.00 | 73 | 1013.8 |
| 20260507212229 | 60 | 292 | 0.9 | 1.7 | 0.00 | 0.00 | 0.00 | 73 | 1013.8 |
| 20260507212128 | 60 | 292 | 1.7 | 1.7 | 0.00 | 0.00 | 0.00 | 73 | 1013.7 |
| 20260507212028 | 60 | 292 | 1.7 | 1.7 | 0.00 | 0.00 | 0.00 | 74 | 1014.0 |
| 20260507211929 | 60 | 292 | 1.7 | 1.7 | 0.00 | 0.00 | 0.00 | 74 | 1013.7 |
| 20260507211828 | 60 | 292 | 0.0 | 1.7 | 0.00 | 0.00 | 0.00 | 74 | 1013.7 |
| 20260507211728 | 60 | 292 | 0.9 | 1.7 | 0.00 | 0.00 | 0.00 | 74 | 1013.6 |
| 20260507211628 | 60 | 292 | 0.9 | 1.7 | 0.00 | 0.00 | 0.00 | 74 | 1013.7 |
| 20260507211529 | 60 | 292 | 1.7 | 1.7 | 0.00 | 0.00 | 0.00 | 74 | 1013.7 |
| 20260507211428 | 60 | 292 | 1.7 | 1.7 | 0.00 | 0.00 | 0.00 | 74 | 1013.6 |
| 20260507211328 | 60 | 292 | 1.7 | 1.7 | 0.00 | 0.00 | 0.00 | 74 | 1013.7 |
| 20260507211228 | 60 | 292 | 0.9 | 1.7 | 0.00 | 0.00 | 0.00 | 74 | 1013.8 |
| 20260507211128 | 60 | 292 | 0.9 | 1.7 | 0.00 | 0.00 | 0.00 | 74 | 1013.6 |
| 20260507211028 | 60 | 292 | 0.0 | 1.7 | 0.00 | 0.00 | 0.00 | 73 | 1013.7 |
| 20260507210929 | 60 | 292 | 0.0 | 1.7 | 0.00 | 0.00 | 0.00 | 73 | 1013.8 |
| 20260507210828 | 60 | 292 | 0.0 | 1.7 | 0.00 | 0.00 | 0.00 | 73 | 1013.7 |
| 20260507210728 | 60 | 292 | 0.0 | 1.7 | 0.00 | 0.00 | 0.00 | 73 | 1013.7 |
| 20260507210628 | 60 | 289 | 0.0 | 1.7 | 0.00 | 0.00 | 0.00 | 72 | 1013.8 |
| 20260507210528 | 60 | 289 | 0.0 | 1.7 | 0.00 | 0.00 | 0.00 | 72 | 1013.8 |
| 20260507210428 | 60 | 289 | 0.0 | 1.7 | 0.00 | 0.00 | 0.00 | 72 | 1013.7 |
| 20260507210328 | 60 | 289 | 0.0 | 1.7 | 0.00 | 0.00 | 0.00 | 72 | 1013.9 |
| 20260507210228 | 60 | 289 | 0.9 | 1.7 | 0.00 | 0.00 | 0.00 | 72 | 1013.8 |
| 20260507210128 | 60 | 288 | 0.9 | 1.7 | 0.00 | 0.00 | 0.00 | 72 | 1013.9 |
| 20260507210028 | 60 | 278 | 0.9 | 1.7 | 0.00 | 0.00 | 0.00 | 72 | 1013.9 |
| 20260507205928 | 60 | 265 | 0.9 | 1.7 | 0.00 | 0.00 | 0.00 | 72 | 1013.9 |
| 20260507205828 | 60 | 251 | 0.0 | 1.7 | 0.00 | 0.00 | 0.00 | 72 | 1013.8 |
| 20260507205728 | 60 | 250 | 0.0 | 1.7 | 0.00 | 0.00 | 0.00 | 72 | 1013.8 |
| 20260507205628 | 60 | 255 | 0.0 | 1.7 | 0.00 | 0.00 | 0.00 | 72 | 1013.8 |
| 20260507205528 | 60 | 263 | 0.0 | 1.7 | 0.00 | 0.00 | 0.00 | 72 | 1013.7 |
| 20260507205429 | 60 | 276 | 0.0 | 1.7 | 0.00 | 0.00 | 0.00 | 71 | 1013.7 |
| 20260507205328 | 60 | 282 | 0.0 | 1.7 | 0.00 | 0.00 | 0.00 | 71 | 1013.7 |
| 20260507205228 | 61 | 287 | 0.0 | 1.7 | 0.00 | 0.00 | 0.00 | 71 | 1014.1 |
| 20260507205128 | 61 | 291 | 0.0 | 1.7 | 0.00 | 0.00 | 0.00 | 71 | 1013.9 |
| 20260507205028 | 61 | 298 | 0.9 | 1.7 | 0.00 | 0.00 | 0.00 | 70 | 1013.9 |
| 20260507204928 | 61 | 303 | 0.9 | 1.7 | 0.00 | 0.00 | 0.00 | 70 | 1013.8 |
| 20260507204829 | 61 | 308 | 0.0 | 1.7 | 0.00 | 0.00 | 0.00 | 70 | 1013.9 |
| 20260507204728 | 61 | 312 | 0.0 | 1.7 | 0.00 | 0.00 | 0.00 | 69 | 1013.8 |
| 20260507204628 | 61 | 313 | 0.9 | 1.7 | 0.00 | 0.00 | 0.00 | 69 | 1013.7 |
| 20260507204528 | 61 | 315 | 0.9 | 1.7 | 0.00 | 0.00 | 0.00 | 69 | 1013.9 |
| 20260507204428 | 61 | 315 | 1.7 | 3.5 | 0.00 | 0.00 | 0.00 | 69 | 1013.8 |
| 20260507204328 | 61 | 315 | 1.7 | 3.5 | 0.00 | 0.00 | 0.00 | 69 | 1013.7 |
| 20260507204228 | 61 | 315 | 1.7 | 3.5 | 0.00 | 0.00 | 0.00 | 69 | 1013.8 |
| 20260507204129 | 61 | 315 | 1.7 | 3.5 | 0.00 | 0.00 | 0.00 | 69 | 1013.6 |
| 20260507204030 | 61 | 315 | 1.7 | 3.5 | 0.00 | 0.00 | 0.00 | 69 | 1013.8 |
| 20260507203929 | 61 | 315 | 1.7 | 3.5 | 0.00 | 0.00 | 0.00 | 69 | 1013.6 |
| 20260507203828 | 61 | 314 | 1.7 | 3.5 | 0.00 | 0.00 | 0.00 | 70 | 1013.8 |
| 20260507203728 | 61 | 314 | 1.7 | 3.5 | 0.00 | 0.00 | 0.00 | 70 | 1013.9 |
| 20260507203628 | 61 | 314 | 1.7 | 3.5 | 0.00 | 0.00 | 0.00 | 70 | 1013.9 |
| 20260507203529 | 61 | 314 | 1.7 | 3.5 | 0.00 | 0.00 | 0.00 | 70 | 1013.8 |
| 20260507203428 | 61 | 314 | 1.7 | 3.5 | 0.00 | 0.00 | 0.00 | 70 | 1013.7 |
| 20260507203328 | 61 | 314 | 2.6 | 3.5 | 0.00 | 0.00 | 0.00 | 70 | 1013.8 |
| 20260507203228 | 61 | 313 | 1.7 | 3.5 | 0.00 | 0.00 | 0.00 | 70 | 1013.9 |
| 20260507203128 | 61 | 313 | 1.7 | 3.5 | 0.00 | 0.00 | 0.00 | 70 | 1013.8 |
| 20260507203028 | 61 | 313 | 1.7 | 3.5 | 0.00 | 0.00 | 0.00 | 71 | 1013.9 |
| 20260507202928 | 60 | 312 | 1.7 | 1.7 | 0.00 | 0.00 | 0.00 | 71 | 1013.8 |
| 20260507202828 | 60 | 312 | 1.7 | 1.7 | 0.00 | 0.00 | 0.00 | 71 | 1013.9 |
| 20260507202729 | 60 | 309 | 1.7 | 1.7 | 0.00 | 0.00 | 0.00 | 71 | 1013.8 |
| 20260507202628 | 60 | 307 | 1.7 | 1.7 | 0.00 | 0.00 | 0.00 | 72 | 1014.0 |
| 20260507202528 | 60 | 304 | 1.7 | 1.7 | 0.00 | 0.00 | 0.00 | 72 | 1013.8 |
| 20260507202429 | 60 | 301 | 1.7 | 1.7 | 0.00 | 0.00 | 0.00 | 72 | 1014.0 |
| 20260507202328 | 60 | 299 | 1.7 | 1.7 | 0.00 | 0.00 | 0.00 | 72 | 1014.0 |
| 20260507202228 | 60 | 295 | 1.7 | 1.7 | 0.00 | 0.00 | 0.00 | 72 | 1013.8 |
| 20260507202128 | 60 | 292 | 0.0 | 1.7 | 0.00 | 0.00 | 0.00 | 72 | 1014.1 |
| 20260507202028 | 60 | 292 | 0.0 | 1.7 | 0.00 | 0.00 | 0.00 | 72 | 1013.9 |
| 20260507201928 | 60 | 292 | 0.9 | 1.7 | 0.00 | 0.00 | 0.00 | 71 | 1014.0 |
| 20260507201828 | 60 | 292 | 1.7 | 1.7 | 0.00 | 0.00 | 0.00 | 71 | 1013.7 |
| 20260507201729 | 61 | 292 | 1.7 | 1.7 | 0.00 | 0.00 | 0.00 | 70 | 1014.1 |
| 20260507201628 | 61 | 292 | 1.7 | 1.7 | 0.00 | 0.00 | 0.00 | 70 | 1014.0 |
| 20260507201529 | 61 | 292 | 1.7 | 1.7 | 0.00 | 0.00 | 0.00 | 70 | 1013.9 |
| 20260507201428 | 61 | 292 | 1.7 | 1.7 | 0.00 | 0.00 | 0.00 | 70 | 1014.0 |
| 20260507201329 | 61 | 292 | 1.7 | 1.7 | 0.00 | 0.00 | 0.00 | 70 | 1013.7 |
| 20260507201228 | 61 | 292 | 0.9 | 1.7 | 0.00 | 0.00 | 0.00 | 70 | 1013.9 |
| 20260507201128 | 61 | 292 | 0.9 | 1.7 | 0.00 | 0.00 | 0.00 | 70 | 1013.9 |
| 20260507201028 | 61 | 292 | 0.9 | 1.7 | 0.00 | 0.00 | 0.00 | 70 | 1014.1 |
| 20260507200928 | 60 | 292 | 0.9 | 1.7 | 0.00 | 0.00 | 0.00 | 71 | 1013.9 |
| 20260507200828 | 60 | 292 | 0.9 | 1.7 | 0.00 | 0.00 | 0.00 | 71 | 1013.8 |
| 20260507200728 | 60 | 292 | 0.9 | 1.7 | 0.00 | 0.00 | 0.00 | 71 | 1013.9 |
| 20260507200628 | 60 | 292 | 1.7 | 1.7 | 0.00 | 0.00 | 0.00 | 71 | 1013.9 |
| 20260507200528 | 60 | 292 | 0.9 | 1.7 | 0.00 | 0.00 | 0.00 | 71 | 1014.0 |
| 20260507200428 | 60 | 292 | 0.9 | 1.7 | 0.00 | 0.00 | 0.00 | 71 | 1013.9 |
| 20260507200328 | 61 | 292 | 0.0 | 1.7 | 0.00 | 0.00 | 0.00 | 71 | 1014.1 |
| 20260507200228 | 61 | 292 | 0.0 | 1.7 | 0.00 | 0.00 | 0.00 | 70 | 1013.7 |
| 20260507200128 | 61 | 292 | 0.9 | 1.7 | 0.00 | 0.00 | 0.00 | 70 | 1013.9 |
| 20260507200028 | 61 | 292 | 0.0 | 1.7 | 0.00 | 0.00 | 0.00 | 69 | 1014.0 |
| 20260507195928 | 61 | 292 | 0.0 | 1.7 | 0.00 | 0.00 | 0.00 | 69 | 1013.9 |
| 20260507195829 | 61 | 0 | 0.0 | 0.0 | 0.00 | 0.00 | 0.00 | 69 | 1013.9 |
| 20260507195728 | 61 | 337 | 0.0 | 1.7 | 0.00 | 0.00 | 0.00 | 68 | 1013.9 |
| 20260507195628 | 61 | 337 | 0.0 | 1.7 | 0.00 | 0.00 | 0.00 | 68 | 1014.0 |
| 20260507195528 | 62 | 337 | 0.0 | 1.7 | 0.00 | 0.00 | 0.00 | 68 | 1014.0 |
| 20260507195429 | 61 | 337 | 0.0 | 1.7 | 0.00 | 0.00 | 0.00 | 68 | 1014.2 |
| 20260507195328 | 61 | 337 | 0.0 | 1.7 | 0.00 | 0.00 | 0.00 | 68 | 1014.0 |
| 20260507195229 | 61 | 337 | 0.0 | 1.7 | 0.00 | 0.00 | 0.00 | 68 | 1014.1 |
| 20260507195128 | 61 | 337 | 0.0 | 1.7 | 0.00 | 0.00 | 0.00 | 68 | 1014.0 |
| 20260507195028 | 61 | 337 | 0.0 | 1.7 | 0.00 | 0.00 | 0.00 | 68 | 1013.9 |
| 20260507194928 | 61 | 337 | 0.0 | 1.7 | 0.00 | 0.00 | 0.00 | 68 | 1013.8 |
| 20260507194829 | 61 | 337 | 0.0 | 1.7 | 0.00 | 0.00 | 0.00 | 68 | 1013.7 |
| 20260507194728 | 61 | 337 | 0.0 | 1.7 | 0.00 | 0.00 | 0.00 | 68 | 1014.0 |
| 20260507194628 | 61 | 337 | 0.0 | 1.7 | 0.00 | 0.00 | 0.00 | 68 | 1013.9 |
| 20260507194529 | 61 | 337 | 0.0 | 1.7 | 0.00 | 0.00 | 0.00 | 68 | 1014.2 |
| 20260507194428 | 61 | 337 | 0.0 | 1.7 | 0.00 | 0.00 | 0.00 | 68 | 1013.9 |
| 20260507194328 | 61 | 337 | 0.0 | 1.7 | 0.00 | 0.00 | 0.00 | 68 | 1014.0 |
| 20260507194228 | 61 | 337 | 0.0 | 1.7 | 0.00 | 0.00 | 0.00 | 68 | 1014.0 |
| 20260507194128 | 61 | 337 | 0.9 | 1.7 | 0.00 | 0.00 | 0.00 | 68 | 1014.0 |
| 20260507194028 | 61 | 337 | 0.0 | 1.7 | 0.00 | 0.00 | 0.00 | 69 | 1014.0 |
| 20260507193928 | 61 | 337 | 0.9 | 1.7 | 0.00 | 0.00 | 0.00 | 69 | 1014.0 |
| 20260507193828 | 61 | 337 | 0.0 | 1.7 | 0.00 | 0.00 | 0.00 | 69 | 1013.9 |
| 20260507193728 | 61 | 337 | 0.0 | 1.7 | 0.00 | 0.00 | 0.00 | 69 | 1014.0 |
| 20260507193628 | 61 | 337 | 0.0 | 1.7 | 0.00 | 0.00 | 0.00 | 69 | 1014.1 |
| 20260507193528 | 61 | 337 | 0.0 | 1.7 | 0.00 | 0.00 | 0.00 | 69 | 1014.0 |
| 20260507193428 | 61 | 337 | 0.0 | 1.7 | 0.00 | 0.00 | 0.00 | 69 | 1014.0 |
| 20260507193328 | 61 | 337 | 0.0 | 1.7 | 0.00 | 0.00 | 0.00 | 69 | 1013.7 |
| 20260507193228 | 61 | 337 | 0.0 | 1.7 | 0.00 | 0.00 | 0.00 | 69 | 1013.8 |
| 20260507193128 | 61 | 337 | 0.9 | 1.7 | 0.00 | 0.00 | 0.00 | 69 | 1013.7 |
| 20260507193028 | 61 | 355 | 0.9 | 1.7 | 0.00 | 0.00 | 0.00 | 69 | 1013.6 |
| 20260507192928 | 61 | 22 | 0.0 | 1.7 | 0.00 | 0.00 | 0.00 | 69 | 1013.8 |
| 20260507192828 | 61 | 22 | 0.0 | 1.7 | 0.00 | 0.00 | 0.00 | 69 | 1013.6 |
| 20260507192728 | 61 | 357 | 0.0 | 1.7 | 0.00 | 0.00 | 0.00 | 70 | 1013.6 |
| 20260507192628 | 61 | 357 | 0.0 | 1.7 | 0.00 | 0.00 | 0.00 | 70 | 1013.7 |
| 20260507192528 | 60 | 357 | 0.0 | 1.7 | 0.00 | 0.00 | 0.00 | 70 | 1013.7 |
| 20260507192428 | 60 | 357 | 0.0 | 1.7 | 0.00 | 0.00 | 0.00 | 70 | 1013.9 |
| 20260507192328 | 60 | 357 | 0.0 | 1.7 | 0.00 | 0.00 | 0.00 | 70 | 1013.8 |
| 20260507192228 | 60 | 357 | 0.0 | 1.7 | 0.00 | 0.00 | 0.00 | 70 | 1013.7 |
| 20260507192128 | 60 | 357 | 0.0 | 1.7 | 0.00 | 0.00 | 0.00 | 70 | 1013.8 |
| 20260507192028 | 61 | 337 | 0.0 | 1.7 | 0.00 | 0.00 | 0.00 | 70 | 1013.6 |
| 20260507191928 | 60 | 337 | 0.0 | 1.7 | 0.00 | 0.00 | 0.00 | 70 | 1013.7 |
| 20260507191828 | 60 | 337 | 0.0 | 1.7 | 0.00 | 0.00 | 0.00 | 70 | 1013.8 |
| 20260507191728 | 60 | 337 | 0.0 | 1.7 | 0.00 | 0.00 | 0.00 | 70 | 1013.6 |
| 20260507191628 | 60 | 337 | 0.0 | 1.7 | 0.00 | 0.00 | 0.00 | 70 | 1013.6 |
| 20260507191528 | 60 | 337 | 0.0 | 1.7 | 0.00 | 0.00 | 0.00 | 70 | 1013.7 |
| 20260507191428 | 60 | 337 | 0.0 | 1.7 | 0.00 | 0.00 | 0.00 | 70 | 1013.6 |
| 20260507191328 | 60 | 337 | 0.0 | 1.7 | 0.00 | 0.00 | 0.00 | 70 | 1013.7 |
| 20260507191228 | 60 | 337 | 0.0 | 1.7 | 0.00 | 0.00 | 0.00 | 70 | 1013.8 |
| 20260507191128 | 61 | 337 | 0.0 | 1.7 | 0.00 | 0.00 | 0.00 | 70 | 1013.5 |
| 20260507191028 | 61 | 337 | 0.0 | 1.7 | 0.00 | 0.00 | 0.00 | 69 | 1013.6 |
| 20260507190928 | 61 | 339 | 0.0 | 1.7 | 0.00 | 0.00 | 0.00 | 69 | 1013.4 |
| 20260507190828 | 61 | 341 | 0.0 | 1.7 | 0.00 | 0.00 | 0.00 | 69 | 1013.4 |
| 20260507190728 | 61 | 340 | 0.9 | 1.7 | 0.00 | 0.00 | 0.00 | 69 | 1013.5 |
| 20260507190628 | 61 | 340 | 0.0 | 1.7 | 0.00 | 0.00 | 0.00 | 69 | 1013.5 |
| 20260507190528 | 61 | 340 | 0.0 | 1.7 | 0.00 | 0.00 | 0.00 | 69 | 1013.4 |
| 20260507190428 | 61 | 340 | 0.0 | 1.7 | 0.00 | 0.00 | 0.00 | 69 | 1013.5 |
| 20260507190328 | 61 | 339 | 0.0 | 1.7 | 0.00 | 0.00 | 0.00 | 69 | 1013.4 |
| 20260507190228 | 61 | 339 | 0.0 | 1.7 | 0.00 | 0.00 | 0.00 | 69 | 1013.4 |
| 20260507190128 | 61 | 339 | 1.7 | 1.7 | 0.00 | 0.00 | 0.00 | 69 | 1013.5 |
| 20260507190028 | 61 | 340 | 1.7 | 1.7 | 0.00 | 0.00 | 0.00 | 69 | 1013.5 |
| 20260507185928 | 61 | 339 | 1.7 | 1.7 | 0.00 | 0.00 | 0.00 | 69 | 1013.4 |
| 20260507185828 | 61 | 339 | 1.7 | 1.7 | 0.00 | 0.00 | 0.00 | 69 | 1013.3 |
| 20260507185728 | 61 | 340 | 1.7 | 1.7 | 0.00 | 0.00 | 0.00 | 69 | 1013.5 |
| 20260507185628 | 61 | 340 | 1.7 | 1.7 | 0.00 | 0.00 | 0.00 | 69 | 1013.5 |
| 20260507185528 | 61 | 340 | 1.7 | 1.7 | 0.00 | 0.00 | 0.00 | 70 | 1013.5 |
| 20260507185428 | 60 | 338 | 1.7 | 1.7 | 0.00 | 0.00 | 0.00 | 70 | 1013.6 |
| 20260507185328 | 60 | 336 | 1.7 | 1.7 | 0.00 | 0.00 | 0.00 | 70 | 1013.4 |
| 20260507185228 | 61 | 335 | 1.7 | 3.5 | 0.00 | 0.00 | 0.00 | 70 | 1013.2 |
| 20260507185128 | 61 | 332 | 0.9 | 3.5 | 0.00 | 0.00 | 0.00 | 70 | 1013.3 |
| 20260507185028 | 61 | 332 | 0.9 | 3.5 | 0.00 | 0.00 | 0.00 | 70 | 1013.4 |
| 20260507184928 | 61 | 332 | 0.9 | 3.5 | 0.00 | 0.00 | 0.00 | 70 | 1013.4 |
| 20260507184828 | 61 | 333 | 0.9 | 3.5 | 0.00 | 0.00 | 0.00 | 70 | 1013.3 |
| 20260507184728 | 61 | 330 | 0.9 | 3.5 | 0.00 | 0.00 | 0.00 | 70 | 1013.4 |
| 20260507184628 | 61 | 329 | 1.7 | 5.2 | 0.00 | 0.00 | 0.00 | 69 | 1013.3 |
| 20260507184528 | 61 | 328 | 1.7 | 5.2 | 0.00 | 0.00 | 0.00 | 69 | 1013.5 |
| 20260507184428 | 61 | 327 | 1.7 | 5.2 | 0.00 | 0.00 | 0.00 | 69 | 1013.3 |
| 20260507184328 | 61 | 326 | 1.7 | 5.2 | 0.00 | 0.00 | 0.00 | 69 | 1013.3 |
| 20260507184228 | 61 | 325 | 1.7 | 5.2 | 0.00 | 0.00 | 0.00 | 69 | 1013.4 |
| 20260507184128 | 61 | 326 | 1.7 | 5.2 | 0.00 | 0.00 | 0.00 | 69 | 1013.3 |
| 20260507184028 | 61 | 324 | 2.6 | 5.2 | 0.00 | 0.00 | 0.00 | 69 | 1013.5 |
| 20260507183928 | 60 | 322 | 3.5 | 6.1 | 0.00 | 0.00 | 0.00 | 69 | 1013.3 |
| 20260507183828 | 60 | 319 | 2.6 | 6.1 | 0.00 | 0.00 | 0.00 | 70 | 1013.3 |
| 20260507183728 | 60 | 319 | 2.6 | 6.1 | 0.00 | 0.00 | 0.00 | 70 | 1013.4 |
| 20260507183628 | 60 | 318 | 3.5 | 6.1 | 0.00 | 0.00 | 0.00 | 70 | 1013.3 |
| 20260507183528 | 60 | 317 | 3.5 | 6.1 | 0.00 | 0.00 | 0.00 | 70 | 1013.2 |
| 20260507183428 | 60 | 317 | 3.5 | 6.1 | 0.00 | 0.00 | 0.00 | 71 | 1013.2 |
| 20260507183328 | 60 | 317 | 3.5 | 6.1 | 0.00 | 0.00 | 0.00 | 71 | 1013.3 |
| 20260507183228 | 60 | 316 | 3.5 | 6.1 | 0.00 | 0.00 | 0.00 | 71 | 1013.3 |
| 20260507183128 | 60 | 313 | 4.3 | 6.1 | 0.00 | 0.00 | 0.00 | 72 | 1013.4 |
| 20260507183028 | 60 | 313 | 4.3 | 6.1 | 0.00 | 0.00 | 0.00 | 72 | 1013.4 |
| 20260507182928 | 60 | 312 | 4.3 | 6.1 | 0.00 | 0.00 | 0.00 | 72 | 1013.4 |
| 20260507182828 | 60 | 311 | 4.3 | 6.1 | 0.00 | 0.00 | 0.00 | 73 | 1013.4 |
| 20260507182728 | 59 | 309 | 4.3 | 6.1 | 0.00 | 0.00 | 0.00 | 73 | 1013.5 |
| 20260507182628 | 59 | 306 | 3.5 | 6.1 | 0.00 | 0.00 | 0.00 | 75 | 1013.4 |
| 20260507182528 | 59 | 305 | 3.5 | 6.1 | 0.00 | 0.00 | 0.00 | 75 | 1013.3 |
| 20260507182428 | 59 | 303 | 3.5 | 6.1 | 0.00 | 0.00 | 0.00 | 75 | 1013.4 |
| 20260507182328 | 59 | 300 | 3.5 | 6.1 | 0.00 | 0.00 | 0.00 | 75 | 1013.5 |
| 20260507182228 | 59 | 298 | 3.5 | 6.1 | 0.00 | 0.00 | 0.00 | 75 | 1013.4 |
| 20260507182128 | 59 | 299 | 4.3 | 6.1 | 0.00 | 0.00 | 0.00 | 76 | 1013.4 |
| 20260507182028 | 59 | 297 | 3.5 | 6.1 | 0.00 | 0.00 | 0.00 | 76 | 1013.5 |
| 20260507181928 | 59 | 297 | 4.3 | 6.1 | 0.00 | 0.00 | 0.00 | 76 | 1013.4 |
| 20260507181828 | 59 | 298 | 3.5 | 5.2 | 0.00 | 0.00 | 0.00 | 77 | 1013.5 |
| 20260507181728 | 59 | 300 | 3.5 | 5.2 | 0.00 | 0.00 | 0.00 | 77 | 1013.4 |
| 20260507181628 | 60 | 303 | 1.7 | 3.5 | 0.00 | 0.00 | 0.00 | 77 | 1013.4 |
| 20260507181528 | 60 | 305 | 1.7 | 3.5 | 0.00 | 0.00 | 0.00 | 76 | 1013.6 |
| 20260507181428 | 60 | 307 | 1.7 | 3.5 | 0.00 | 0.00 | 0.00 | 76 | 1013.4 |
| 20260507181328 | 60 | 310 | 3.5 | 3.5 | 0.00 | 0.00 | 0.00 | 75 | 1013.4 |
| 20260507181228 | 60 | 310 | 3.5 | 3.5 | 0.00 | 0.00 | 0.00 | 75 | 1013.5 |
| 20260507181128 | 60 | 311 | 3.5 | 3.5 | 0.00 | 0.00 | 0.00 | 75 | 1013.6 |
| 20260507181028 | 60 | 311 | 2.6 | 3.5 | 0.00 | 0.00 | 0.00 | 75 | 1013.4 |
| 20260507180928 | 60 | 312 | 3.5 | 3.5 | 0.00 | 0.00 | 0.00 | 74 | 1013.4 |
| 20260507180828 | 60 | 312 | 3.5 | 3.5 | 0.00 | 0.00 | 0.00 | 74 | 1013.4 |
| 20260507180728 | 61 | 311 | 1.7 | 3.5 | 0.00 | 0.00 | 0.00 | 73 | 1013.5 |
| 20260507180628 | 61 | 310 | 2.6 | 3.5 | 0.00 | 0.00 | 0.00 | 73 | 1013.4 |
| 20260507180528 | 61 | 307 | 3.5 | 3.5 | 0.00 | 0.00 | 0.00 | 71 | 1013.4 |
| 20260507180428 | 61 | 304 | 1.7 | 3.5 | 0.00 | 0.00 | 0.00 | 70 | 1013.4 |
| 20260507180328 | 61 | 301 | 1.7 | 3.5 | 0.00 | 0.00 | 0.00 | 70 | 1013.2 |
| 20260507180229 | 61 | 302 | 1.7 | 3.5 | 0.00 | 0.00 | 0.00 | 70 | 1013.5 |
| 20260507180128 | 61 | 300 | 1.7 | 3.5 | 0.00 | 0.00 | 0.00 | 69 | 1013.4 |
| 20260507180028 | 61 | 299 | 1.7 | 3.5 | 0.00 | 0.00 | 0.00 | 69 | 1013.4 |
| 20260507175928 | 61 | 298 | 2.6 | 3.5 | 0.00 | 0.00 | 0.00 | 69 | 1013.5 |
| 20260507175828 | 62 | 295 | 1.7 | 3.5 | 0.00 | 0.00 | 0.00 | 69 | 1013.6 |
| 20260507175728 | 61 | 294 | 2.6 | 3.5 | 0.00 | 0.00 | 0.00 | 68 | 1013.5 |
| 20260507175628 | 61 | 292 | 2.6 | 3.5 | 0.00 | 0.00 | 0.00 | 68 | 1013.5 |
| 20260507175528 | 62 | 292 | 1.7 | 3.5 | 0.00 | 0.00 | 0.00 | 68 | 1013.7 |
| 20260507175428 | 62 | 292 | 1.7 | 1.7 | 0.00 | 0.00 | 0.00 | 68 | 1013.5 |
| 20260507175328 | 62 | 291 | 1.7 | 1.7 | 0.00 | 0.00 | 0.00 | 68 | 1013.4 |
| 20260507175228 | 62 | 287 | 1.7 | 1.7 | 0.00 | 0.00 | 0.00 | 68 | 1013.4 |
| 20260507175128 | 62 | 280 | 1.7 | 1.7 | 0.00 | 0.00 | 0.00 | 68 | 1013.6 |
| 20260507175028 | 62 | 272 | 0.9 | 1.7 | 0.00 | 0.00 | 0.00 | 67 | 1013.5 |
| 20260507174928 | 62 | 261 | 0.9 | 1.7 | 0.00 | 0.00 | 0.00 | 67 | 1013.4 |
| 20260507174828 | 62 | 251 | 0.9 | 1.7 | 0.00 | 0.00 | 0.00 | 67 | 1013.5 |
| 20260507174728 | 62 | 239 | 0.9 | 1.7 | 0.00 | 0.00 | 0.00 | 67 | 1013.4 |
| 20260507174628 | 62 | 226 | 0.9 | 1.7 | 0.00 | 0.00 | 0.00 | 67 | 1013.7 |
| 20260507174528 | 62 | 218 | 0.9 | 1.7 | 0.00 | 0.00 | 0.00 | 67 | 1013.3 |
| 20260507174428 | 62 | 209 | 0.9 | 1.7 | 0.00 | 0.00 | 0.00 | 66 | 1013.4 |
| 20260507174328 | 62 | 203 | 0.0 | 1.7 | 0.00 | 0.00 | 0.00 | 66 | 1013.6 |
| 20260507174228 | 62 | 197 | 1.7 | 1.7 | 0.00 | 0.00 | 0.00 | 65 | 1013.3 |
| 20260507174128 | 63 | 192 | 0.9 | 1.7 | 0.00 | 0.00 | 0.00 | 65 | 1013.4 |
| 20260507174029 | 63 | 187 | 1.7 | 1.7 | 0.00 | 0.00 | 0.00 | 65 | 1013.4 |
| 20260507173928 | 62 | 182 | 1.7 | 1.7 | 0.00 | 0.00 | 0.00 | 64 | 1013.4 |
| 20260507173828 | 62 | 176 | 1.7 | 1.7 | 0.00 | 0.00 | 0.00 | 64 | 1013.5 |
| 20260507173728 | 62 | 172 | 1.7 | 1.7 | 0.00 | 0.00 | 0.00 | 64 | 1013.5 |
| 20260507173628 | 62 | 167 | 1.7 | 1.7 | 0.00 | 0.00 | 0.00 | 64 | 1013.3 |
| 20260507173528 | 62 | 161 | 1.7 | 1.7 | 0.00 | 0.00 | 0.00 | 64 | 1013.3 |
| 20260507173428 | 63 | 155 | 0.9 | 1.7 | 0.00 | 0.00 | 0.00 | 64 | 1013.4 |
| 20260507173328 | 63 | 153 | 0.9 | 1.7 | 0.00 | 0.00 | 0.00 | 64 | 1013.4 |
| 20260507173228 | 63 | 150 | 0.9 | 3.5 | 0.00 | 0.00 | 0.00 | 64 | 1013.2 |
| 20260507173128 | 63 | 149 | 1.7 | 3.5 | 0.00 | 0.00 | 0.00 | 63 | 1013.4 |
| 20260507173028 | 62 | 149 | 1.7 | 3.5 | 0.00 | 0.00 | 0.00 | 63 | 1013.4 |
| 20260507172928 | 62 | 149 | 1.7 | 3.5 | 0.00 | 0.00 | 0.00 | 64 | 1013.3 |
| 20260507172828 | 63 | 150 | 1.7 | 3.5 | 0.00 | 0.00 | 0.00 | 64 | 1013.4 |
| 20260507172728 | 63 | 148 | 0.9 | 3.5 | 0.00 | 0.00 | 0.00 | 64 | 1013.1 |
| 20260507172628 | 63 | 148 | 0.9 | 3.5 | 0.00 | 0.00 | 0.00 | 64 | 1013.4 |
| 20260507172528 | 63 | 144 | 1.7 | 3.5 | 0.00 | 0.00 | 0.00 | 64 | 1013.2 |
| 20260507172428 | 63 | 141 | 1.7 | 3.5 | 0.00 | 0.00 | 0.00 | 64 | 1013.4 |
| 20260507172328 | 63 | 140 | 1.7 | 3.5 | 0.00 | 0.00 | 0.00 | 63 | 1013.3 |
| 20260507172228 | 63 | 140 | 1.7 | 3.5 | 0.00 | 0.00 | 0.00 | 64 | 1013.4 |
| 20260507172128 | 63 | 140 | 1.7 | 3.5 | 0.00 | 0.00 | 0.00 | 64 | 1013.1 |
| 20260507172028 | 63 | 136 | 1.7 | 3.5 | 0.00 | 0.00 | 0.00 | 64 | 1013.2 |
| 20260507171928 | 63 | 132 | 1.7 | 3.5 | 0.00 | 0.00 | 0.00 | 64 | 1013.3 |
| 20260507171828 | 63 | 126 | 1.7 | 3.5 | 0.00 | 0.00 | 0.00 | 64 | 1013.1 |
| 20260507171728 | 63 | 124 | 1.7 | 3.5 | 0.00 | 0.00 | 0.00 | 64 | 1013.2 |
| 20260507171628 | 63 | 121 | 0.9 | 3.5 | 0.00 | 0.00 | 0.00 | 64 | 1013.0 |
| 20260507171528 | 63 | 123 | 1.7 | 3.5 | 0.00 | 0.00 | 0.00 | 64 | 1013.2 |
| 20260507171428 | 63 | 120 | 1.7 | 3.5 | 0.00 | 0.00 | 0.00 | 64 | 1013.1 |
| 20260507171328 | 63 | 117 | 1.7 | 3.5 | 0.00 | 0.00 | 0.00 | 64 | 1013.2 |
| 20260507171228 | 63 | 117 | 1.7 | 3.5 | 0.00 | 0.00 | 0.00 | 63 | 1012.9 |
| 20260507171128 | 63 | 114 | 1.7 | 3.5 | 0.00 | 0.00 | 0.00 | 64 | 1013.2 |
| 20260507171028 | 63 | 113 | 1.7 | 3.5 | 0.00 | 0.00 | 0.00 | 64 | 1013.0 |
| 20260507170928 | 63 | 114 | 1.7 | 3.5 | 0.00 | 0.00 | 0.00 | 64 | 1013.2 |
| 20260507170828 | 63 | 115 | 1.7 | 3.5 | 0.00 | 0.00 | 0.00 | 64 | 1013.0 |
| 20260507170728 | 63 | 114 | 1.7 | 3.5 | 0.00 | 0.00 | 0.00 | 64 | 1013.0 |
| 20260507170628 | 63 | 114 | 1.7 | 3.5 | 0.00 | 0.00 | 0.00 | 64 | 1012.9 |
| 20260507170528 | 63 | 115 | 2.6 | 3.5 | 0.00 | 0.00 | 0.00 | 64 | 1012.8 |
| 20260507170428 | 63 | 117 | 2.6 | 3.5 | 0.00 | 0.00 | 0.00 | 63 | 1012.9 |
| 20260507170328 | 63 | 118 | 1.7 | 3.5 | 0.00 | 0.00 | 0.00 | 63 | 1013.0 |
| 20260507165928 | 63 | 118 | 1.7 | 3.5 | 0.00 | 0.00 | 0.00 | 64 | 1013.0 |
| 20260507165828 | 63 | 122 | 1.7 | 3.5 | 0.00 | 0.00 | 0.00 | 64 | 1013.0 |
| 20260507165728 | 63 | 125 | 1.7 | 3.5 | 0.00 | 0.00 | 0.00 | 64 | 1013.0 |
| 20260507165628 | 63 | 127 | 1.7 | 3.5 | 0.00 | 0.00 | 0.00 | 64 | 1012.8 |
| 20260507165528 | 63 | 126 | 0.9 | 3.5 | 0.00 | 0.00 | 0.00 | 64 | 1012.9 |
| 20260507165428 | 63 | 126 | 0.9 | 3.5 | 0.00 | 0.00 | 0.00 | 65 | 1012.9 |
| 20260507165328 | 63 | 126 | 0.0 | 3.5 | 0.00 | 0.00 | 0.00 | 65 | 1012.8 |
| 20260507165228 | 63 | 128 | 1.7 | 3.5 | 0.00 | 0.00 | 0.00 | 64 | 1013.1 |
| 20260507165128 | 63 | 126 | 1.7 | 3.5 | 0.00 | 0.00 | 0.00 | 64 | 1012.9 |
| 20260507165028 | 63 | 127 | 1.7 | 3.5 | 0.00 | 0.00 | 0.00 | 64 | 1013.1 |
| 20260507164928 | 63 | 126 | 3.5 | 3.5 | 0.00 | 0.00 | 0.00 | 63 | 1013.0 |
| 20260507164828 | 63 | 124 | 2.6 | 3.5 | 0.00 | 0.00 | 0.00 | 64 | 1012.8 |
| 20260507164728 | 63 | 123 | 0.9 | 3.5 | 0.00 | 0.00 | 0.00 | 65 | 1013.2 |
| 20260507164628 | 63 | 121 | 0.9 | 3.5 | 0.00 | 0.00 | 0.00 | 64 | 1013.2 |
| 20260507164528 | 63 | 123 | 1.7 | 3.5 | 0.00 | 0.00 | 0.00 | 64 | 1013.0 |
| 20260507164428 | 63 | 126 | 1.7 | 3.5 | 0.00 | 0.00 | 0.00 | 64 | 1013.1 |
| 20260507164328 | 63 | 128 | 1.7 | 3.5 | 0.00 | 0.00 | 0.00 | 64 | 1013.0 |
| 20260507164228 | 63 | 130 | 1.7 | 3.5 | 0.00 | 0.00 | 0.00 | 64 | 1013.1 |
| 20260507164128 | 63 | 131 | 1.7 | 3.5 | 0.00 | 0.00 | 0.00 | 64 | 1013.0 |
| 20260507164028 | 63 | 129 | 1.7 | 3.5 | 0.00 | 0.00 | 0.00 | 64 | 1013.0 |
| 20260507163928 | 63 | 131 | 2.6 | 3.5 | 0.00 | 0.00 | 0.00 | 64 | 1013.0 |
| 20260507163828 | 63 | 131 | 1.7 | 3.5 | 0.00 | 0.00 | 0.00 | 64 | 1012.9 |
| 20260507163728 | 63 | 130 | 1.7 | 3.5 | 0.00 | 0.00 | 0.00 | 65 | 1012.9 |
| 20260507163628 | 63 | 126 | 2.6 | 3.5 | 0.00 | 0.00 | 0.00 | 65 | 1013.0 |
| 20260507163528 | 62 | 124 | 1.7 | 3.5 | 0.00 | 0.00 | 0.00 | 65 | 1013.0 |
| 20260507163428 | 62 | 120 | 2.6 | 3.5 | 0.00 | 0.00 | 0.00 | 66 | 1012.8 |
| 20260507163328 | 63 | 119 | 1.7 | 3.5 | 0.00 | 0.00 | 0.00 | 66 | 1013.3 |
| 20260507163228 | 63 | 114 | 2.6 | 3.5 | 0.00 | 0.00 | 0.00 | 67 | 1013.0 |
| 20260507163128 | 63 | 113 | 1.7 | 3.5 | 0.00 | 0.00 | 0.00 | 67 | 1013.1 |
| 20260507163028 | 63 | 113 | 2.6 | 3.5 | 0.00 | 0.00 | 0.00 | 66 | 1012.8 |
| 20260507162928 | 63 | 110 | 3.5 | 3.5 | 0.00 | 0.00 | 0.00 | 66 | 1013.0 |
| 20260507162828 | 63 | 108 | 3.5 | 3.5 | 0.00 | 0.00 | 0.00 | 66 | 1013.0 |
| 20260507162728 | 63 | 107 | 1.7 | 3.5 | 0.00 | 0.00 | 0.00 | 67 | 1013.0 |
| 20260507162628 | 63 | 108 | 1.7 | 3.5 | 0.00 | 0.00 | 0.00 | 67 | 1012.9 |
| 20260507162528 | 63 | 108 | 1.7 | 3.5 | 0.00 | 0.00 | 0.00 | 67 | 1013.1 |
| 20260507162428 | 63 | 109 | 1.7 | 3.5 | 0.00 | 0.00 | 0.00 | 67 | 1012.9 |
| 20260507162328 | 63 | 110 | 0.9 | 3.5 | 0.00 | 0.00 | 0.00 | 67 | 1013.1 |
| 20260507162228 | 63 | 110 | 1.7 | 3.5 | 0.00 | 0.00 | 0.00 | 67 | 1013.0 |
| 20260507162128 | 63 | 111 | 2.6 | 3.5 | 0.00 | 0.00 | 0.00 | 67 | 1012.9 |
| 20260507162028 | 63 | 111 | 1.7 | 1.7 | 0.00 | 0.00 | 0.00 | 68 | 1013.0 |
| 20260507161928 | 63 | 112 | 1.7 | 1.7 | 0.00 | 0.00 | 0.00 | 68 | 1013.2 |
| 20260507161828 | 63 | 115 | 1.7 | 1.7 | 0.00 | 0.00 | 0.00 | 68 | 1013.1 |
| 20260507161728 | 63 | 114 | 0.9 | 1.7 | 0.00 | 0.00 | 0.00 | 68 | 1013.1 |
| 20260507161628 | 63 | 114 | 0.9 | 1.7 | 0.00 | 0.00 | 0.00 | 68 | 1013.1 |
| 20260507161528 | 63 | 117 | 1.7 | 1.7 | 0.00 | 0.00 | 0.00 | 68 | 1013.1 |
| 20260507161428 | 63 | 119 | 1.7 | 3.5 | 0.00 | 0.00 | 0.00 | 68 | 1013.1 |
| 20260507161328 | 63 | 123 | 0.9 | 3.5 | 0.00 | 0.00 | 0.00 | 69 | 1013.3 |
| 20260507161228 | 63 | 127 | 0.9 | 3.5 | 0.00 | 0.00 | 0.00 | 68 | 1013.3 |
| 20260507161128 | 63 | 130 | 0.9 | 3.5 | 0.00 | 0.00 | 0.00 | 68 | 1013.2 |
| 20260507161028 | 63 | 134 | 0.9 | 3.5 | 0.00 | 0.00 | 0.00 | 68 | 1013.2 |
| 20260507160928 | 63 | 137 | 0.0 | 3.5 | 0.00 | 0.00 | 0.00 | 69 | 1013.3 |
| 20260507160828 | 63 | 141 | 0.9 | 3.5 | 0.00 | 0.00 | 0.00 | 69 | 1013.1 |
| 20260507160728 | 63 | 148 | 0.9 | 3.5 | 0.00 | 0.00 | 0.00 | 68 | 1013.2 |
| 20260507160628 | 63 | 151 | 1.7 | 3.5 | 0.00 | 0.00 | 0.00 | 69 | 1012.9 |
| 20260507160528 | 63 | 151 | 1.7 | 3.5 | 0.00 | 0.00 | 0.00 | 68 | 1013.0 |
| 20260507160428 | 62 | 154 | 2.6 | 3.5 | 0.00 | 0.00 | 0.00 | 68 | 1013.1 |
| 20260507160328 | 63 | 152 | 2.6 | 3.5 | 0.00 | 0.00 | 0.00 | 68 | 1013.0 |
| 20260507160228 | 62 | 152 | 2.6 | 3.5 | 0.00 | 0.00 | 0.00 | 68 | 1013.0 |
| 20260507160128 | 63 | 151 | 2.6 | 3.5 | 0.00 | 0.00 | 0.00 | 68 | 1013.1 |
| 20260507160030 | 63 | 150 | 2.6 | 3.5 | 0.00 | 0.00 | 0.00 | 68 | 1013.3 |
| 20260507155928 | 63 | 149 | 3.5 | 3.5 | 0.00 | 0.00 | 0.00 | 68 | 1013.2 |
| 20260507155828 | 63 | 150 | 1.7 | 3.5 | 0.00 | 0.00 | 0.00 | 68 | 1013.2 |
| 20260507155728 | 63 | 145 | 1.7 | 3.5 | 0.00 | 0.00 | 0.00 | 69 | 1013.3 |
| 20260507155628 | 63 | 145 | 1.7 | 3.5 | 0.00 | 0.00 | 0.00 | 68 | 1013.3 |
| 20260507155528 | 63 | 148 | 1.7 | 3.5 | 0.00 | 0.00 | 0.00 | 68 | 1013.1 |
| 20260507155428 | 63 | 148 | 1.7 | 3.5 | 0.00 | 0.00 | 0.00 | 68 | 1013.1 |
| 20260507155328 | 63 | 152 | 0.9 | 3.5 | 0.00 | 0.00 | 0.00 | 68 | 1013.3 |
| 20260507155228 | 63 | 158 | 0.9 | 3.5 | 0.00 | 0.00 | 0.00 | 68 | 1013.1 |
| 20260507155128 | 63 | 162 | 0.9 | 3.5 | 0.00 | 0.00 | 0.00 | 68 | 1013.1 |
| 20260507155028 | 63 | 163 | 0.9 | 3.5 | 0.00 | 0.00 | 0.00 | 68 | 1013.3 |
| 20260507154928 | 63 | 162 | 0.9 | 3.5 | 0.00 | 0.00 | 0.00 | 68 | 1013.3 |
| 20260507154828 | 63 | 164 | 1.7 | 3.5 | 0.00 | 0.00 | 0.00 | 67 | 1013.3 |
| 20260507154728 | 63 | 166 | 0.9 | 3.5 | 0.00 | 0.00 | 0.00 | 67 | 1013.3 |
| 20260507154628 | 62 | 168 | 1.7 | 3.5 | 0.00 | 0.00 | 0.00 | 68 | 1013.2 |
| 20260507154528 | 63 | 170 | 1.7 | 3.5 | 0.00 | 0.00 | 0.00 | 69 | 1013.4 |
| 20260507154428 | 63 | 173 | 1.7 | 3.5 | 0.00 | 0.00 | 0.00 | 68 | 1013.2 |
| 20260507154329 | 63 | 174 | 1.7 | 3.5 | 0.00 | 0.00 | 0.00 | 68 | 1013.1 |
| 20260507154228 | 63 | 170 | 3.5 | 3.5 | 0.00 | 0.00 | 0.00 | 69 | 1013.2 |
| 20260507154128 | 63 | 169 | 2.6 | 3.5 | 0.00 | 0.00 | 0.00 | 69 | 1013.3 |
| 20260507154047 | 63 | 171 | 1.7 | 3.5 | 0.00 | 0.00 | 0.00 | 69 | 1013.2 |
| 20260507154028 | 63 | 171 | 1.7 | 3.5 | 0.00 | 0.00 | 0.00 | 69 | 1013.2 |
| 20260507154012 | 63 | 174 | 2.6 | 3.5 | 0.00 | 0.00 | 0.00 | 69 | 1013.2 |
| 20260507153928 | 63 | 174 | 2.6 | 3.5 | 0.00 | 0.00 | 0.00 | 69 | 1013.2 |
| 20260507153859 | 63 | 170 | 2.6 | 3.5 | 0.00 | 0.00 | 0.00 | 68 | 1013.3 |
| 20260507153833 | 63 | 166 | 1.7 | 3.5 | 0.00 | 0.00 | 0.00 | 68 | 1013.3 |
| 20260507153828 | 63 | 170 | 2.6 | 3.5 | 0.00 | 0.00 | 0.00 | 68 | 1013.3 |
| 20260507153733 | 63 | 158 | 1.7 | 3.5 | 0.00 | 0.00 | 0.00 | 68 | 1013.4 |
| 20260507153728 | 63 | 166 | 1.7 | 3.5 | 0.00 | 0.00 | 0.00 | 68 | 1013.3 |
| 20260507153651 | 63 | 157 | 2.6 | 3.5 | 0.00 | 0.00 | 0.00 | 68 | 1013.0 |
| 20260507153628 | 63 | 161 | 1.7 | 3.5 | 0.00 | 0.00 | 0.00 | 68 | 1013.1 |
| 20260507153528 | 63 | 158 | 1.7 | 3.5 | 0.00 | 0.00 | 0.00 | 68 | 1013.4 |
| 20260507153519 | 63 | 156 | 1.7 | 3.5 | 0.00 | 0.00 | 0.00 | 68 | 1013.1 |
| 20260507153436 | 63 | 156 | 3.5 | 3.5 | 0.00 | 0.00 | 0.00 | 68 | 1013.2 |
| 20260507153428 | 63 | 157 | 2.6 | 3.5 | 0.00 | 0.00 | 0.00 | 68 | 1013.0 |
| 20260507153332 | 63 | 150 | 1.7 | 3.5 | 0.00 | 0.00 | 0.00 | 68 | 1012.9 |
| 20260507153328 | 63 | 156 | 1.7 | 3.5 | 0.00 | 0.00 | 0.00 | 68 | 1013.1 |
| 20260507153254 | 63 | 146 | 1.7 | 3.5 | 0.00 | 0.00 | 0.00 | 68 | 1013.2 |
| 20260507153228 | 63 | 156 | 3.5 | 3.5 | 0.00 | 0.00 | 0.00 | 68 | 1013.2 |
| 20260507153128 | 63 | 153 | 1.7 | 3.5 | 0.00 | 0.00 | 0.00 | 68 | 1012.9 |
| 20260507153108 | 63 | 147 | 1.7 | 3.5 | 0.00 | 0.00 | 0.00 | 68 | 1013.1 |
| 20260507153028 | 63 | 150 | 1.7 | 3.5 | 0.00 | 0.00 | 0.00 | 68 | 1012.9 |
| 20260507152954 | 63 | 153 | 1.7 | 3.5 | 0.00 | 0.00 | 0.00 | 68 | 1013.2 |
| 20260507152928 | 63 | 146 | 1.7 | 3.5 | 0.00 | 0.00 | 0.00 | 68 | 1013.2 |
| 20260507152828 | 63 | 147 | 1.7 | 3.5 | 0.00 | 0.00 | 0.00 | 68 | 1013.1 |
| 20260507152728 | 63 | 147 | 3.5 | 3.5 | 0.00 | 0.00 | 0.00 | 68 | 1013.1 |
| 20260507152628 | 63 | 153 | 1.7 | 3.5 | 0.00 | 0.00 | 0.00 | 68 | 1013.2 |
| 20260507152528 | 63 | 154 | 1.7 | 3.5 | 0.00 | 0.00 | 0.00 | 69 | 1013.1 |
| 20260507152428 | 63 | 153 | 2.6 | 3.5 | 0.00 | 0.00 | 0.00 | 69 | 1013.1 |
| 20260507152328 | 63 | 149 | 1.7 | 3.5 | 0.00 | 0.00 | 0.00 | 68 | 1013.1 |
| 20260507152228 | 63 | 157 | 1.7 | 3.5 | 0.00 | 0.00 | 0.00 | 68 | 1013.2 |
| 20260507152128 | 63 | 161 | 1.7 | 3.5 | 0.00 | 0.00 | 0.00 | 68 | 1013.2 |
| 20260507152112 | 63 | 168 | 1.7 | 5.2 | 0.00 | 0.00 | 0.00 | 68 | 1013.1 |
| 20260507152028 | 63 | 160 | 1.7 | 3.5 | 0.00 | 0.00 | 0.00 | 68 | 1013.2 |
| 20260507151928 | 63 | 161 | 1.7 | 3.5 | 0.00 | 0.00 | 0.00 | 68 | 1013.0 |
| 20260507151828 | 63 | 168 | 1.7 | 5.2 | 0.00 | 0.00 | 0.00 | 68 | 1013.1 |
| 20260507151727 | 63 | 176 | 2.6 | 5.2 | 0.00 | 0.00 | 0.00 | 68 | 1013.1 |
| 20260507151628 | 63 | 175 | 1.7 | 5.2 | 0.00 | 0.00 | 0.00 | 68 | 1013.2 |
| 20260507151528 | 63 | 177 | 1.7 | 5.2 | 0.00 | 0.00 | 0.00 | 67 | 1013.0 |
| 20260507151428 | 63 | 180 | 1.7 | 5.2 | 0.00 | 0.00 | 0.00 | 67 | 1013.2 |
| 20260507151328 | 63 | 184 | 2.6 | 5.2 | 0.00 | 0.00 | 0.00 | 68 | 1013.1 |
| 20260507151228 | 63 | 181 | 2.6 | 5.2 | 0.00 | 0.00 | 0.00 | 68 | 1013.1 |
| 20260507151128 | 63 | 181 | 3.5 | 5.2 | 0.00 | 0.00 | 0.00 | 68 | 1013.0 |
| 20260507151028 | 63 | 188 | 3.5 | 5.2 | 0.00 | 0.00 | 0.00 | 67 | 1013.2 |
| 20260507150927 | 63 | 191 | 3.5 | 5.2 | 0.00 | 0.00 | 0.00 | 67 | 1013.2 |
| 20260507150828 | 63 | 186 | 2.6 | 5.2 | 0.00 | 0.00 | 0.00 | 68 | 1012.9 |
| 20260507150728 | 63 | 184 | 2.6 | 5.2 | 0.00 | 0.00 | 0.00 | 67 | 1013.2 |
| 20260507150628 | 63 | 185 | 2.6 | 6.1 | 0.00 | 0.00 | 0.00 | 67 | 1013.1 |
| 20260507150528 | 63 | 186 | 3.5 | 6.1 | 0.00 | 0.00 | 0.00 | 68 | 1013.0 |
| 20260507150428 | 63 | 189 | 3.5 | 6.1 | 0.00 | 0.00 | 0.00 | 68 | 1013.3 |
| 20260507150328 | 63 | 191 | 3.5 | 6.1 | 0.00 | 0.00 | 0.00 | 68 | 1013.1 |
| 20260507150228 | 63 | 193 | 1.7 | 6.1 | 0.00 | 0.00 | 0.00 | 68 | 1013.0 |
| 20260507150128 | 63 | 193 | 1.7 | 6.1 | 0.00 | 0.00 | 0.00 | 68 | 1013.2 |
| 20260507150028 | 63 | 191 | 3.5 | 6.1 | 0.00 | 0.00 | 0.00 | 68 | 1013.1 |
| 20260507145928 | 63 | 191 | 3.5 | 6.1 | 0.00 | 0.00 | 0.00 | 68 | 1013.1 |
| 20260507145827 | 63 | 190 | 2.6 | 6.1 | 0.00 | 0.00 | 0.00 | 69 | 1013.0 |
| 20260507145728 | 63 | 191 | 3.5 | 7.8 | 0.00 | 0.00 | 0.00 | 69 | 1013.1 |
| 20260507145628 | 63 | 192 | 4.3 | 7.8 | 0.00 | 0.00 | 0.00 | 69 | 1013.2 |
| 20260507145528 | 63 | 191 | 3.5 | 7.8 | 0.00 | 0.00 | 0.00 | 69 | 1013.2 |
| 20260507145428 | 63 | 190 | 1.7 | 7.8 | 0.00 | 0.00 | 0.00 | 69 | 1013.1 |
| 20260507145328 | 63 | 190 | 3.5 | 7.8 | 0.00 | 0.00 | 0.00 | 69 | 1013.0 |
| 20260507145228 | 63 | 188 | 3.5 | 7.8 | 0.00 | 0.00 | 0.00 | 69 | 1013.3 |
| 20260507145128 | 63 | 191 | 3.5 | 7.8 | 0.00 | 0.00 | 0.00 | 69 | 1013.1 |
| 20260507145028 | 63 | 192 | 3.5 | 7.8 | 0.00 | 0.00 | 0.00 | 69 | 1013.1 |
| 20260507144927 | 63 | 192 | 4.3 | 7.8 | 0.00 | 0.00 | 0.00 | 69 | 1013.2 |
| 20260507144828 | 63 | 194 | 4.3 | 7.8 | 0.00 | 0.00 | 0.00 | 69 | 1013.2 |
| 20260507144727 | 62 | 193 | 6.1 | 7.8 | 0.00 | 0.00 | 0.00 | 69 | 1013.1 |
| 20260507144628 | 63 | 190 | 3.5 | 7.8 | 0.00 | 0.00 | 0.00 | 69 | 1013.2 |
| 20260507144528 | 63 | 188 | 3.5 | 7.8 | 0.00 | 0.00 | 0.00 | 69 | 1013.2 |
| 20260507144428 | 63 | 184 | 4.3 | 7.8 | 0.00 | 0.00 | 0.00 | 68 | 1013.1 |
| 20260507144328 | 63 | 182 | 4.3 | 7.8 | 0.00 | 0.00 | 0.00 | 68 | 1013.3 |
| 20260507144228 | 63 | 180 | 5.2 | 7.8 | 0.00 | 0.00 | 0.00 | 68 | 1013.3 |
| 20260507144128 | 63 | 175 | 4.3 | 7.8 | 0.00 | 0.00 | 0.00 | 68 | 1013.2 |
| 20260507144028 | 63 | 170 | 4.3 | 7.8 | 0.00 | 0.00 | 0.00 | 68 | 1013.3 |
| 20260507143928 | 63 | 167 | 5.2 | 7.8 | 0.00 | 0.00 | 0.00 | 67 | 1013.2 |
| 20260507143828 | 63 | 161 | 5.2 | 7.8 | 0.00 | 0.00 | 0.00 | 67 | 1013.1 |
| 20260507143728 | 63 | 159 | 6.1 | 7.8 | 0.00 | 0.00 | 0.00 | 67 | 1013.2 |
| 20260507143628 | 63 | 155 | 4.3 | 7.0 | 0.00 | 0.00 | 0.00 | 67 | 1013.2 |
| 20260507143528 | 63 | 150 | 6.1 | 7.0 | 0.00 | 0.00 | 0.00 | 67 | 1013.0 |
| 20260507143428 | 63 | 149 | 5.2 | 7.0 | 0.00 | 0.00 | 0.00 | 66 | 1013.1 |
| 20260507143328 | 64 | 144 | 6.1 | 7.0 | 0.00 | 0.00 | 0.00 | 66 | 1013.1 |
| 20260507143228 | 64 | 140 | 3.5 | 7.0 | 0.00 | 0.00 | 0.00 | 65 | 1013.0 |
| 20260507143128 | 63 | 144 | 6.1 | 7.0 | 0.00 | 0.00 | 0.00 | 63 | 1013.1 |
| 20260507143028 | 63 | 146 | 6.1 | 7.0 | 0.00 | 0.00 | 0.00 | 64 | 1013.2 |
| 20260507142928 | 64 | 146 | 4.3 | 7.0 | 0.00 | 0.00 | 0.00 | 64 | 1013.1 |
| 20260507142828 | 64 | 148 | 4.3 | 7.0 | 0.00 | 0.00 | 0.00 | 64 | 1013.1 |
| 20260507142728 | 64 | 151 | 2.6 | 7.8 | 0.00 | 0.00 | 0.00 | 64 | 1013.1 |
| 20260507142628 | 64 | 156 | 5.2 | 7.8 | 0.00 | 0.00 | 0.00 | 63 | 1013.2 |
| 20260507142528 | 64 | 157 | 2.6 | 7.8 | 0.00 | 0.00 | 0.00 | 64 | 1013.2 |
| 20260507142428 | 64 | 158 | 3.5 | 7.8 | 0.00 | 0.00 | 0.00 | 63 | 1013.1 |
| 20260507142328 | 64 | 162 | 4.3 | 7.8 | 0.00 | 0.00 | 0.00 | 63 | 1013.1 |
| 20260507142227 | 64 | 168 | 5.2 | 7.8 | 0.00 | 0.00 | 0.00 | 63 | 1013.2 |
| 20260507142128 | 64 | 169 | 4.3 | 7.8 | 0.00 | 0.00 | 0.00 | 63 | 1013.1 |
| 20260507142028 | 64 | 174 | 3.5 | 7.8 | 0.00 | 0.00 | 0.00 | 62 | 1013.2 |
| 20260507141928 | 64 | 180 | 5.2 | 7.8 | 0.00 | 0.00 | 0.00 | 62 | 1013.2 |
| 20260507141828 | 64 | 182 | 4.3 | 7.8 | 0.00 | 0.00 | 0.00 | 63 | 1013.2 |
| 20260507141728 | 64 | 185 | 5.2 | 7.0 | 0.00 | 0.00 | 0.00 | 63 | 1013.2 |
| 20260507141627 | 64 | 184 | 4.3 | 6.1 | 0.00 | 0.00 | 0.00 | 63 | 1013.3 |
| 20260507141528 | 64 | 181 | 3.5 | 6.1 | 0.00 | 0.00 | 0.00 | 63 | 1013.4 |
| 20260507141428 | 64 | 181 | 3.5 | 6.1 | 0.00 | 0.00 | 0.00 | 63 | 1013.3 |
| 20260507141327 | 64 | 179 | 3.5 | 6.1 | 0.00 | 0.00 | 0.00 | 63 | 1013.1 |
| 20260507141228 | 64 | 172 | 3.5 | 6.1 | 0.00 | 0.00 | 0.00 | 62 | 1013.3 |
| 20260507141128 | 64 | 170 | 3.5 | 6.1 | 0.00 | 0.00 | 0.00 | 62 | 1013.3 |
| 20260507141028 | 64 | 164 | 3.5 | 6.1 | 0.00 | 0.00 | 0.00 | 62 | 1013.2 |
| 20260507140928 | 64 | 159 | 1.7 | 6.1 | 0.00 | 0.00 | 0.00 | 62 | 1013.4 |
| 20260507140828 | 64 | 157 | 2.6 | 6.1 | 0.00 | 0.00 | 0.00 | 62 | 1013.3 |
| 20260507140727 | 64 | 152 | 3.5 | 6.1 | 0.00 | 0.00 | 0.00 | 62 | 1013.3 |
| 20260507140627 | 64 | 150 | 4.3 | 6.1 | 0.00 | 0.00 | 0.00 | 62 | 1013.3 |
| 20260507140528 | 64 | 149 | 3.5 | 7.0 | 0.00 | 0.00 | 0.00 | 62 | 1013.3 |
| 20260507140428 | 64 | 149 | 3.5 | 7.0 | 0.00 | 0.00 | 0.00 | 62 | 1013.4 |
| 20260507140328 | 64 | 149 | 3.5 | 7.0 | 0.00 | 0.00 | 0.00 | 62 | 1013.3 |
| 20260507140227 | 64 | 151 | 2.6 | 7.0 | 0.00 | 0.00 | 0.00 | 63 | 1013.2 |
| 20260507140128 | 64 | 153 | 3.5 | 7.0 | 0.00 | 0.00 | 0.00 | 62 | 1013.3 |
| 20260507140028 | 64 | 155 | 1.7 | 7.0 | 0.00 | 0.00 | 0.00 | 62 | 1013.2 |
| 20260507135927 | 64 | 152 | 1.7 | 7.0 | 0.00 | 0.00 | 0.00 | 62 | 1013.3 |
| 20260507135827 | 64 | 152 | 2.6 | 7.0 | 0.00 | 0.00 | 0.00 | 62 | 1013.2 |
| 20260507135728 | 64 | 151 | 4.3 | 7.0 | 0.00 | 0.00 | 0.00 | 62 | 1013.3 |
| 20260507135627 | 64 | 151 | 4.3 | 7.0 | 0.00 | 0.00 | 0.00 | 62 | 1013.1 |
| 20260507135528 | 64 | 149 | 6.1 | 7.0 | 0.00 | 0.00 | 0.00 | 61 | 1013.4 |
| 20260507135428 | 64 | 148 | 3.5 | 6.1 | 0.00 | 0.00 | 0.00 | 62 | 1013.3 |
| 20260507135327 | 64 | 142 | 1.7 | 6.1 | 0.00 | 0.00 | 0.00 | 63 | 1013.3 |
| 20260507135228 | 64 | 138 | 2.6 | 6.1 | 0.00 | 0.00 | 0.00 | 62 | 1013.2 |
| 20260507135128 | 64 | 131 | 2.6 | 6.1 | 0.00 | 0.00 | 0.00 | 62 | 1013.1 |
| 20260507135027 | 64 | 125 | 2.6 | 6.1 | 0.00 | 0.00 | 0.00 | 62 | 1013.4 |
| 20260507134927 | 64 | 120 | 1.7 | 6.1 | 0.00 | 0.00 | 0.00 | 62 | 1013.4 |
| 20260507134828 | 64 | 117 | 2.6 | 6.1 | 0.00 | 0.00 | 0.00 | 61 | 1013.1 |
| 20260507134728 | 64 | 116 | 3.5 | 6.1 | 0.00 | 0.00 | 0.00 | 61 | 1013.2 |
| 20260507134627 | 64 | 116 | 2.6 | 7.8 | 0.00 | 0.00 | 0.00 | 61 | 1013.2 |
| 20260507134528 | 64 | 116 | 2.6 | 7.8 | 0.00 | 0.00 | 0.00 | 61 | 1013.2 |
| 20260507134428 | 64 | 115 | 3.5 | 7.8 | 0.00 | 0.00 | 0.00 | 61 | 1013.4 |
| 20260507134328 | 64 | 117 | 3.5 | 7.8 | 0.00 | 0.00 | 0.00 | 60 | 1013.1 |
| 20260507134228 | 64 | 119 | 3.5 | 7.8 | 0.00 | 0.00 | 0.00 | 61 | 1013.3 |
| 20260507134128 | 64 | 124 | 3.5 | 7.8 | 0.00 | 0.00 | 0.00 | 61 | 1013.2 |
| 20260507134028 | 64 | 128 | 1.7 | 7.8 | 0.00 | 0.00 | 0.00 | 61 | 1013.2 |
| 20260507133928 | 65 | 133 | 1.7 | 7.8 | 0.00 | 0.00 | 0.00 | 62 | 1013.2 |
| 20260507133828 | 64 | 137 | 3.5 | 7.8 | 0.00 | 0.00 | 0.00 | 61 | 1013.2 |
| 20260507133727 | 64 | 143 | 4.3 | 7.8 | 0.00 | 0.00 | 0.00 | 62 | 1013.2 |
| 20260507133628 | 64 | 143 | 5.2 | 9.6 | 0.00 | 0.00 | 0.00 | 62 | 1013.4 |
| 20260507133528 | 65 | 150 | 3.5 | 9.6 | 0.00 | 0.00 | 0.00 | 63 | 1013.3 |
| 20260507133427 | 65 | 155 | 2.6 | 9.6 | 0.00 | 0.00 | 0.00 | 63 | 1013.3 |
| 20260507133328 | 64 | 154 | 4.3 | 9.6 | 0.00 | 0.00 | 0.00 | 62 | 1013.2 |
| 20260507133227 | 65 | 154 | 3.5 | 9.6 | 0.00 | 0.00 | 0.00 | 62 | 1013.1 |
| 20260507133127 | 65 | 153 | 3.5 | 9.6 | 0.00 | 0.00 | 0.00 | 62 | 1013.4 |
| 20260507133028 | 64 | 154 | 3.5 | 9.6 | 0.00 | 0.00 | 0.00 | 62 | 1013.4 |
| 20260507132928 | 64 | 153 | 5.2 | 9.6 | 0.00 | 0.00 | 0.00 | 62 | 1013.2 |
| 20260507132828 | 65 | 153 | 4.3 | 9.6 | 0.00 | 0.00 | 0.00 | 62 | 1013.3 |
| 20260507132728 | 64 | 153 | 5.2 | 9.6 | 0.00 | 0.00 | 0.00 | 61 | 1013.4 |
| 20260507132628 | 64 | 156 | 5.2 | 9.6 | 0.00 | 0.00 | 0.00 | 62 | 1013.1 |
| 20260507132527 | 65 | 155 | 5.2 | 9.6 | 0.00 | 0.00 | 0.00 | 62 | 1013.2 |
| 20260507132428 | 65 | 155 | 5.2 | 9.6 | 0.00 | 0.00 | 0.00 | 62 | 1013.3 |
| 20260507132327 | 64 | 159 | 7.0 | 9.6 | 0.00 | 0.00 | 0.00 | 61 | 1013.3 |
| 20260507132228 | 65 | 162 | 6.1 | 7.8 | 0.00 | 0.00 | 0.00 | 61 | 1013.3 |
| 20260507132128 | 65 | 159 | 5.2 | 7.8 | 0.00 | 0.00 | 0.00 | 62 | 1013.1 |
| 20260507132027 | 65 | 156 | 5.2 | 7.8 | 0.00 | 0.00 | 0.00 | 62 | 1013.4 |
| 20260507131928 | 65 | 158 | 3.5 | 7.0 | 0.00 | 0.00 | 0.00 | 61 | 1013.2 |
| 20260507131828 | 65 | 155 | 4.3 | 7.0 | 0.00 | 0.00 | 0.00 | 62 | 1013.3 |
| 20260507131727 | 65 | 154 | 3.5 | 7.0 | 0.00 | 0.00 | 0.00 | 62 | 1013.4 |
| 20260507131629 | 65 | 149 | 3.5 | 7.0 | 0.00 | 0.00 | 0.00 | 62 | 1013.4 |
| 20260507131527 | 65 | 144 | 3.5 | 7.0 | 0.00 | 0.00 | 0.00 | 62 | 1013.3 |
| 20260507131428 | 65 | 134 | 2.6 | 7.0 | 0.00 | 0.00 | 0.00 | 63 | 1013.4 |
| 20260507131327 | 65 | 128 | 2.6 | 7.0 | 0.00 | 0.00 | 0.00 | 62 | 1013.3 |
| 20260507131227 | 65 | 126 | 3.5 | 7.0 | 0.00 | 0.00 | 0.00 | 62 | 1013.5 |
| 20260507131128 | 65 | 127 | 4.3 | 7.0 | 0.00 | 0.00 | 0.00 | 61 | 1013.4 |
| 20260507131027 | 65 | 128 | 2.6 | 7.0 | 0.00 | 0.00 | 0.00 | 63 | 1013.4 |
| 20260507130927 | 65 | 125 | 2.6 | 7.0 | 0.00 | 0.00 | 0.00 | 62 | 1013.3 |
| 20260507130828 | 65 | 123 | 3.5 | 7.0 | 0.00 | 0.00 | 0.00 | 62 | 1013.4 |
| 20260507130727 | 65 | 120 | 2.6 | 7.0 | 0.00 | 0.00 | 0.00 | 62 | 1013.5 |
| 20260507130628 | 65 | 119 | 3.5 | 7.0 | 0.00 | 0.00 | 0.00 | 62 | 1013.5 |
| 20260507130528 | 65 | 116 | 3.5 | 7.0 | 0.00 | 0.00 | 0.00 | 62 | 1013.6 |
| 20260507130428 | 65 | 116 | 4.3 | 7.0 | 0.00 | 0.00 | 0.00 | 62 | 1013.5 |
| 20260507130328 | 65 | 119 | 4.3 | 7.8 | 0.00 | 0.00 | 0.00 | 62 | 1013.6 |
| 20260507130228 | 65 | 118 | 4.3 | 7.8 | 0.00 | 0.00 | 0.00 | 62 | 1013.7 |
| 20260507130128 | 65 | 116 | 6.1 | 7.8 | 0.00 | 0.00 | 0.00 | 61 | 1013.5 |
| 20260507130028 | 65 | 116 | 3.5 | 7.8 | 0.00 | 0.00 | 0.00 | 62 | 1013.3 |
| 20260507125928 | 65 | 112 | 3.5 | 7.8 | 0.00 | 0.00 | 0.00 | 62 | 1013.3 |
| 20260507125827 | 65 | 113 | 2.6 | 7.8 | 0.00 | 0.00 | 0.00 | 62 | 1013.3 |
| 20260507125727 | 65 | 113 | 3.5 | 7.8 | 0.00 | 0.00 | 0.00 | 61 | 1013.4 |
| 20260507125628 | 65 | 114 | 5.2 | 7.8 | 0.00 | 0.00 | 0.00 | 61 | 1013.5 |
| 20260507125528 | 65 | 117 | 4.3 | 7.8 | 0.00 | 0.00 | 0.00 | 62 | 1013.3 |
| 20260507125427 | 65 | 119 | 3.5 | 7.8 | 0.00 | 0.00 | 0.00 | 63 | 1013.5 |
| 20260507125327 | 65 | 117 | 3.5 | 7.8 | 0.00 | 0.00 | 0.00 | 62 | 1013.7 |
| 20260507125228 | 65 | 116 | 5.2 | 7.8 | 0.00 | 0.00 | 0.00 | 62 | 1013.6 |
| 20260507125129 | 65 | 113 | 5.2 | 7.8 | 0.00 | 0.00 | 0.00 | 62 | 1013.4 |
| 20260507125027 | 65 | 113 | 4.3 | 7.0 | 0.00 | 0.00 | 0.00 | 62 | 1013.4 |
| 20260507124927 | 65 | 117 | 3.5 | 7.0 | 0.00 | 0.00 | 0.00 | 63 | 1013.5 |
| 20260507124828 | 65 | 118 | 2.6 | 7.0 | 0.00 | 0.00 | 0.00 | 63 | 1013.5 |
| 20260507124727 | 65 | 116 | 2.6 | 7.0 | 0.00 | 0.00 | 0.00 | 64 | 1013.5 |
| 20260507124627 | 65 | 115 | 4.3 | 7.0 | 0.00 | 0.00 | 0.00 | 63 | 1013.5 |
| 20260507124528 | 65 | 108 | 3.5 | 7.0 | 0.00 | 0.00 | 0.00 | 64 | 1013.5 |
| 20260507124428 | 65 | 104 | 4.3 | 7.0 | 0.00 | 0.00 | 0.00 | 63 | 1013.6 |
| 20260507124327 | 65 | 98 | 3.5 | 7.8 | 0.00 | 0.00 | 0.00 | 63 | 1013.7 |
| 20260507124227 | 65 | 95 | 4.3 | 7.8 | 0.00 | 0.00 | 0.00 | 63 | 1013.5 |
| 20260507124127 | 65 | 93 | 4.3 | 7.8 | 0.00 | 0.00 | 0.00 | 63 | 1013.5 |
| 20260507124027 | 65 | 86 | 3.5 | 7.8 | 0.00 | 0.00 | 0.00 | 63 | 1013.4 |
| 20260507123928 | 65 | 81 | 3.5 | 7.8 | 0.00 | 0.00 | 0.00 | 64 | 1013.7 |
| 20260507123827 | 65 | 78 | 3.5 | 7.8 | 0.00 | 0.00 | 0.00 | 64 | 1013.6 |
| 20260507123728 | 65 | 76 | 3.5 | 7.8 | 0.00 | 0.00 | 0.00 | 64 | 1013.4 |
| 20260507123628 | 64 | 72 | 5.2 | 7.8 | 0.00 | 0.00 | 0.00 | 64 | 1013.5 |
| 20260507123527 | 64 | 71 | 5.2 | 7.8 | 0.00 | 0.00 | 0.00 | 64 | 1013.3 |
| 20260507123428 | 64 | 72 | 4.3 | 7.8 | 0.00 | 0.00 | 0.00 | 65 | 1013.5 |
| 20260507123327 | 64 | 75 | 4.3 | 7.8 | 0.00 | 0.00 | 0.00 | 65 | 1013.4 |
| 20260507123228 | 64 | 73 | 5.2 | 7.8 | 0.00 | 0.00 | 0.00 | 65 | 1013.5 |
| 20260507123127 | 65 | 74 | 4.3 | 7.8 | 0.00 | 0.00 | 0.00 | 64 | 1013.4 |
| 20260507123028 | 65 | 77 | 3.5 | 7.8 | 0.00 | 0.00 | 0.00 | 64 | 1013.3 |
| 20260507122927 | 64 | 80 | 5.2 | 7.8 | 0.00 | 0.00 | 0.00 | 64 | 1013.5 |
| 20260507122827 | 65 | 78 | 3.5 | 6.1 | 0.00 | 0.00 | 0.00 | 64 | 1013.5 |
| 20260507122728 | 65 | 79 | 3.5 | 6.1 | 0.00 | 0.00 | 0.00 | 65 | 1013.4 |
| 20260507122627 | 65 | 80 | 3.5 | 6.1 | 0.00 | 0.00 | 0.00 | 65 | 1013.5 |
| 20260507122528 | 65 | 78 | 1.7 | 6.1 | 0.00 | 0.00 | 0.00 | 65 | 1013.3 |
| 20260507122428 | 65 | 74 | 2.6 | 7.0 | 0.00 | 0.00 | 0.00 | 65 | 1013.7 |
| 20260507122328 | 65 | 72 | 1.7 | 7.0 | 0.00 | 0.00 | 0.00 | 64 | 1013.7 |
| 20260507122228 | 65 | 71 | 2.6 | 7.0 | 0.00 | 0.00 | 0.00 | 64 | 1013.6 |
| 20260507122127 | 64 | 66 | 4.3 | 7.0 | 0.00 | 0.00 | 0.00 | 63 | 1013.6 |
| 20260507122027 | 65 | 63 | 3.5 | 7.0 | 0.00 | 0.00 | 0.00 | 63 | 1013.5 |
| 20260507121928 | 65 | 63 | 2.6 | 7.0 | 0.00 | 0.00 | 0.00 | 63 | 1013.5 |
| 20260507121827 | 65 | 64 | 1.7 | 7.0 | 0.00 | 0.00 | 0.00 | 63 | 1013.5 |
| 20260507121727 | 65 | 64 | 2.6 | 7.0 | 0.00 | 0.00 | 0.00 | 62 | 1013.5 |
| 20260507121627 | 65 | 65 | 3.5 | 7.0 | 0.00 | 0.00 | 0.00 | 62 | 1013.5 |
| 20260507121527 | 65 | 66 | 3.5 | 7.0 | 0.00 | 0.00 | 0.00 | 63 | 1013.6 |
| 20260507121428 | 65 | 63 | 3.5 | 7.0 | 0.00 | 0.00 | 0.00 | 63 | 1013.5 |
| 20260507121327 | 65 | 63 | 4.3 | 7.8 | 0.00 | 0.00 | 0.00 | 63 | 1013.5 |
| 20260507121227 | 65 | 64 | 1.7 | 7.8 | 0.00 | 0.00 | 0.00 | 63 | 1013.7 |
| 20260507121128 | 65 | 66 | 1.7 | 9.6 | 0.00 | 0.00 | 0.00 | 64 | 1013.5 |
| 20260507121028 | 65 | 67 | 5.2 | 9.6 | 0.00 | 0.00 | 0.00 | 63 | 1013.5 |
| 20260507120927 | 65 | 65 | 4.3 | 9.6 | 0.00 | 0.00 | 0.00 | 63 | 1013.2 |
| 20260507120827 | 65 | 60 | 5.2 | 12.2 | 0.00 | 0.00 | 0.00 | 63 | 1013.5 |
| 20260507120728 | 65 | 60 | 6.1 | 12.2 | 0.00 | 0.00 | 0.00 | 63 | 1013.2 |
| 20260507120627 | 65 | 60 | 4.3 | 12.2 | 0.00 | 0.00 | 0.00 | 63 | 1013.4 |
| 20260507120527 | 65 | 62 | 5.2 | 12.2 | 0.00 | 0.00 | 0.00 | 63 | 1013.5 |
| 20260507120428 | 65 | 66 | 6.1 | 12.2 | 0.00 | 0.00 | 0.00 | 63 | 1013.5 |
| 20260507120328 | 65 | 65 | 4.3 | 12.2 | 0.00 | 0.00 | 0.00 | 63 | 1013.4 |
| 20260507120227 | 65 | 65 | 4.3 | 12.2 | 0.00 | 0.00 | 0.00 | 64 | 1013.4 |
| 20260507120127 | 65 | 66 | 5.2 | 12.2 | 0.00 | 0.00 | 0.00 | 63 | 1013.3 |
| 20260507120028 | 65 | 66 | 7.0 | 12.2 | 0.00 | 0.00 | 0.00 | 63 | 1013.4 |
| 20260507115927 | 65 | 68 | 6.1 | 12.2 | 0.00 | 0.00 | 0.00 | 63 | 1013.4 |
| 20260507115827 | 65 | 74 | 7.0 | 9.6 | 0.00 | 0.00 | 0.00 | 62 | 1013.3 |
| 20260507115727 | 65 | 74 | 5.2 | 9.6 | 0.00 | 0.00 | 0.00 | 63 | 1013.5 |
| 20260507115628 | 66 | 75 | 4.3 | 9.6 | 0.00 | 0.00 | 0.00 | 63 | 1013.0 |
| 20260507115528 | 66 | 72 | 3.5 | 9.6 | 0.00 | 0.00 | 0.00 | 63 | 1013.4 |
| 20260507115427 | 66 | 69 | 3.5 | 9.6 | 0.00 | 0.00 | 0.00 | 64 | 1013.2 |
| 20260507115328 | 66 | 69 | 5.2 | 9.6 | 0.00 | 0.00 | 0.00 | 64 | 1013.4 |
| 20260507115227 | 66 | 70 | 3.5 | 9.6 | 0.00 | 0.00 | 0.00 | 64 | 1013.5 |
| 20260507115128 | 66 | 69 | 4.3 | 9.6 | 0.00 | 0.00 | 0.00 | 65 | 1013.5 |
| 20260507115027 | 65 | 72 | 6.1 | 9.6 | 0.00 | 0.00 | 0.00 | 64 | 1013.4 |
| 20260507114928 | 65 | 74 | 7.0 | 9.6 | 0.00 | 0.00 | 0.00 | 63 | 1013.6 |
| 20260507114828 | 65 | 73 | 6.1 | 9.6 | 0.00 | 0.00 | 0.00 | 64 | 1013.3 |
| 20260507114727 | 65 | 74 | 3.5 | 9.6 | 0.00 | 0.00 | 0.00 | 65 | 1013.3 |
| 20260507114628 | 65 | 73 | 3.5 | 9.6 | 0.00 | 0.00 | 0.00 | 65 | 1013.4 |
| 20260507114527 | 65 | 74 | 3.5 | 9.6 | 0.00 | 0.00 | 0.00 | 65 | 1013.4 |
| 20260507114427 | 65 | 74 | 5.2 | 11.3 | 0.00 | 0.00 | 0.00 | 64 | 1013.4 |
| 20260507114328 | 65 | 76 | 5.2 | 11.3 | 0.00 | 0.00 | 0.00 | 65 | 1013.4 |
| 20260507114228 | 65 | 77 | 7.0 | 11.3 | 0.00 | 0.00 | 0.00 | 64 | 1013.2 |
| 20260507114127 | 65 | 76 | 4.3 | 11.3 | 0.00 | 0.00 | 0.00 | 64 | 1013.2 |
| 20260507114027 | 65 | 76 | 6.1 | 11.3 | 0.00 | 0.00 | 0.00 | 63 | 1013.1 |
| 20260507113928 | 65 | 74 | 5.2 | 11.3 | 0.00 | 0.00 | 0.00 | 64 | 1013.1 |
| 20260507113828 | 66 | 76 | 5.2 | 11.3 | 0.00 | 0.00 | 0.00 | 64 | 1013.1 |
| 20260507113727 | 66 | 77 | 7.0 | 11.3 | 0.00 | 0.00 | 0.00 | 64 | 1013.4 |
| 20260507113628 | 65 | 77 | 6.1 | 11.3 | 0.00 | 0.00 | 0.00 | 64 | 1013.2 |
| 20260507113527 | 66 | 79 | 7.0 | 11.3 | 0.00 | 0.00 | 0.00 | 64 | 1013.2 |
| 20260507113427 | 66 | 80 | 7.8 | 11.3 | 0.00 | 0.00 | 0.00 | 64 | 1013.3 |
| 20260507113327 | 66 | 82 | 6.1 | 9.6 | 0.00 | 0.00 | 0.00 | 65 | 1013.3 |
| 20260507113228 | 65 | 84 | 6.1 | 9.6 | 0.00 | 0.00 | 0.00 | 64 | 1013.2 |
| 20260507113127 | 65 | 88 | 7.0 | 9.6 | 0.00 | 0.00 | 0.00 | 64 | 1013.3 |
| 20260507113027 | 65 | 87 | 7.0 | 9.6 | 0.00 | 0.00 | 0.00 | 64 | 1013.3 |
| 20260507112928 | 65 | 89 | 7.0 | 7.8 | 0.00 | 0.00 | 0.00 | 64 | 1013.3 |
| 20260507112828 | 65 | 89 | 6.1 | 7.8 | 0.00 | 0.00 | 0.00 | 64 | 1013.2 |
| 20260507112728 | 66 | 89 | 4.3 | 7.8 | 0.00 | 0.00 | 0.00 | 66 | 1013.4 |
| 20260507112627 | 65 | 91 | 5.2 | 7.8 | 0.00 | 0.00 | 0.00 | 65 | 1013.4 |
| 20260507112527 | 65 | 90 | 4.3 | 7.8 | 0.00 | 0.00 | 0.00 | 65 | 1013.3 |
| 20260507112427 | 66 | 91 | 5.2 | 7.8 | 0.00 | 0.00 | 0.00 | 66 | 1013.3 |
| 20260507112328 | 66 | 94 | 6.1 | 9.6 | 0.00 | 0.00 | 0.00 | 66 | 1013.3 |
| 20260507112227 | 65 | 94 | 3.5 | 9.6 | 0.00 | 0.00 | 0.00 | 65 | 1013.3 |
| 20260507112127 | 65 | 94 | 4.3 | 9.6 | 0.00 | 0.00 | 0.00 | 65 | 1013.3 |
| 20260507112027 | 66 | 94 | 4.3 | 9.6 | 0.00 | 0.00 | 0.00 | 66 | 1013.3 |
| 20260507111927 | 65 | 96 | 5.2 | 9.6 | 0.00 | 0.00 | 0.00 | 65 | 1013.4 |
| 20260507111828 | 65 | 96 | 4.3 | 9.6 | 0.00 | 0.00 | 0.00 | 65 | 1013.2 |
| 20260507111727 | 65 | 97 | 4.3 | 9.6 | 0.00 | 0.00 | 0.00 | 65 | 1013.4 |
| 20260507111627 | 65 | 96 | 3.5 | 9.6 | 0.00 | 0.00 | 0.00 | 65 | 1013.5 |
| 20260507111528 | 65 | 97 | 6.1 | 9.6 | 0.00 | 0.00 | 0.00 | 64 | 1013.4 |
| 20260507111427 | 66 | 98 | 3.5 | 9.6 | 0.00 | 0.00 | 0.00 | 66 | 1013.4 |
| 20260507111328 | 65 | 93 | 7.0 | 9.6 | 0.00 | 0.00 | 0.00 | 65 | 1013.3 |
| 20260507111227 | 66 | 93 | 5.2 | 9.6 | 0.00 | 0.00 | 0.00 | 65 | 1013.4 |
| 20260507111127 | 66 | 93 | 4.3 | 9.6 | 0.00 | 0.00 | 0.00 | 65 | 1013.3 |
| 20260507111027 | 66 | 95 | 4.3 | 9.6 | 0.00 | 0.00 | 0.00 | 65 | 1013.4 |
| 20260507110927 | 66 | 92 | 3.5 | 9.6 | 0.00 | 0.00 | 0.00 | 66 | 1013.4 |
| 20260507110828 | 66 | 91 | 3.5 | 9.6 | 0.00 | 0.00 | 0.00 | 65 | 1013.3 |
| 20260507110727 | 67 | 90 | 2.6 | 9.6 | 0.00 | 0.00 | 0.00 | 66 | 1013.2 |
| 20260507110627 | 66 | 88 | 4.3 | 9.6 | 0.00 | 0.00 | 0.00 | 66 | 1013.4 |
| 20260507110527 | 66 | 85 | 7.0 | 9.6 | 0.00 | 0.00 | 0.00 | 65 | 1013.3 |
| 20260507110427 | 66 | 82 | 7.0 | 9.6 | 0.00 | 0.00 | 0.00 | 65 | 1013.4 |
| 20260507110327 | 66 | 81 | 4.3 | 9.6 | 0.00 | 0.00 | 0.00 | 66 | 1013.4 |
| 20260507110227 | 66 | 78 | 4.3 | 9.6 | 0.00 | 0.00 | 0.00 | 65 | 1013.4 |
| 20260507110127 | 66 | 72 | 4.3 | 9.6 | 0.00 | 0.00 | 0.00 | 66 | 1013.3 |
| 20260507110027 | 66 | 67 | 7.0 | 9.6 | 0.00 | 0.00 | 0.00 | 66 | 1013.5 |
| 20260507105928 | 66 | 65 | 5.2 | 9.6 | 0.00 | 0.00 | 0.00 | 66 | 1013.3 |
| 20260507105827 | 66 | 64 | 3.5 | 9.6 | 0.00 | 0.00 | 0.00 | 66 | 1013.3 |
| 20260507105728 | 65 | 63 | 4.3 | 9.6 | 0.00 | 0.00 | 0.00 | 66 | 1013.3 |
| 20260507105627 | 65 | 63 | 6.1 | 9.6 | 0.00 | 0.00 | 0.00 | 65 | 1013.6 |
| 20260507105527 | 66 | 64 | 7.0 | 9.6 | 0.00 | 0.00 | 0.00 | 66 | 1013.3 |
| 20260507105427 | 66 | 64 | 4.3 | 7.8 | 0.00 | 0.00 | 0.00 | 66 | 1013.5 |
| 20260507105327 | 66 | 66 | 4.3 | 7.0 | 0.00 | 0.00 | 0.00 | 65 | 1013.4 |
| 20260507105227 | 66 | 66 | 4.3 | 7.0 | 0.00 | 0.00 | 0.00 | 66 | 1013.6 |
| 20260507105127 | 66 | 70 | 3.5 | 7.0 | 0.00 | 0.00 | 0.00 | 66 | 1013.5 |
| 20260507105028 | 66 | 77 | 2.6 | 7.0 | 0.00 | 0.00 | 0.00 | 65 | 1013.5 |
| 20260507104927 | 67 | 74 | 3.5 | 7.0 | 0.00 | 0.00 | 0.00 | 66 | 1013.4 |
| 20260507104827 | 66 | 75 | 2.6 | 7.0 | 0.00 | 0.00 | 0.00 | 65 | 1013.4 |
| 20260507104727 | 66 | 76 | 3.5 | 7.0 | 0.00 | 0.00 | 0.00 | 65 | 1013.4 |
| 20260507104628 | 66 | 78 | 3.5 | 7.0 | 0.00 | 0.00 | 0.00 | 65 | 1013.5 |
| 20260507104527 | 66 | 78 | 5.2 | 7.0 | 0.00 | 0.00 | 0.00 | 65 | 1013.4 |
| 20260507104427 | 66 | 79 | 4.3 | 7.0 | 0.00 | 0.00 | 0.00 | 65 | 1013.5 |
| 20260507104327 | 67 | 79 | 3.5 | 7.0 | 0.00 | 0.00 | 0.00 | 66 | 1013.7 |
| 20260507104227 | 66 | 81 | 3.5 | 7.0 | 0.00 | 0.00 | 0.00 | 65 | 1013.6 |
| 20260507104127 | 66 | 83 | 2.6 | 7.0 | 0.00 | 0.00 | 0.00 | 65 | 1013.4 |
| 20260507104028 | 66 | 84 | 3.5 | 7.0 | 0.00 | 0.00 | 0.00 | 65 | 1013.5 |
| 20260507103927 | 66 | 91 | 3.5 | 7.0 | 0.00 | 0.00 | 0.00 | 66 | 1013.5 |
| 20260507103827 | 66 | 95 | 3.5 | 7.0 | 0.00 | 0.00 | 0.00 | 66 | 1013.5 |
| 20260507103728 | 66 | 96 | 3.5 | 7.0 | 0.00 | 0.00 | 0.00 | 66 | 1013.8 |
| 20260507103627 | 66 | 99 | 2.6 | 7.0 | 0.00 | 0.00 | 0.00 | 66 | 1013.6 |
| 20260507103527 | 66 | 103 | 5.2 | 7.0 | 0.00 | 0.00 | 0.00 | 66 | 1013.7 |
| 20260507103427 | 66 | 107 | 3.5 | 6.1 | 0.00 | 0.00 | 0.00 | 67 | 1013.5 |
| 20260507103328 | 65 | 109 | 3.5 | 6.1 | 0.00 | 0.00 | 0.00 | 66 | 1013.7 |
| 20260507103227 | 66 | 114 | 3.5 | 6.1 | 0.00 | 0.00 | 0.00 | 66 | 1013.6 |
| 20260507103127 | 66 | 111 | 3.5 | 5.2 | 0.00 | 0.00 | 0.00 | 65 | 1013.8 |
| 20260507103027 | 66 | 113 | 3.5 | 5.2 | 0.00 | 0.00 | 0.00 | 65 | 1013.8 |
| 20260507102927 | 66 | 104 | 3.5 | 5.2 | 0.00 | 0.00 | 0.00 | 64 | 1013.9 |
| 20260507102827 | 66 | 107 | 1.7 | 3.5 | 0.00 | 0.00 | 0.00 | 64 | 1013.8 |
| 20260507102728 | 66 | 114 | 1.7 | 3.5 | 0.00 | 0.00 | 0.00 | 63 | 1013.7 |
| 20260507102627 | 66 | 118 | 1.7 | 3.5 | 0.00 | 0.00 | 0.00 | 63 | 1013.8 |
| 20260507102527 | 66 | 118 | 0.9 | 3.5 | 0.00 | 0.00 | 0.00 | 64 | 1013.6 |
| 20260507102428 | 66 | 120 | 1.7 | 3.5 | 0.00 | 0.00 | 0.00 | 64 | 1013.6 |
| 20260507102327 | 66 | 122 | 0.9 | 3.5 | 0.00 | 0.00 | 0.00 | 64 | 1013.7 |
| 20260507102227 | 66 | 123 | 1.7 | 3.5 | 0.00 | 0.00 | 0.00 | 63 | 1013.5 |
| 20260507102128 | 66 | 124 | 1.7 | 3.5 | 0.00 | 0.00 | 0.00 | 64 | 1013.8 |
| 20260507102027 | 66 | 127 | 1.7 | 3.5 | 0.00 | 0.00 | 0.00 | 64 | 1013.6 |
| 20260507101927 | 66 | 131 | 1.7 | 5.2 | 0.00 | 0.00 | 0.00 | 64 | 1013.6 |
| 20260507101827 | 65 | 134 | 2.6 | 5.2 | 0.00 | 0.00 | 0.00 | 64 | 1013.6 |
| 20260507101727 | 65 | 132 | 2.6 | 5.2 | 0.00 | 0.00 | 0.00 | 64 | 1013.5 |
| 20260507101627 | 66 | 130 | 1.7 | 5.2 | 0.00 | 0.00 | 0.00 | 64 | 1013.6 |
| 20260507101527 | 66 | 129 | 1.7 | 5.2 | 0.00 | 0.00 | 0.00 | 64 | 1013.3 |
| 20260507101427 | 66 | 127 | 0.9 | 5.2 | 0.00 | 0.00 | 0.00 | 65 | 1013.6 |
| 20260507101327 | 66 | 123 | 1.7 | 5.2 | 0.00 | 0.00 | 0.00 | 65 | 1013.5 |
| 20260507101227 | 65 | 118 | 1.7 | 5.2 | 0.00 | 0.00 | 0.00 | 65 | 1013.3 |
| 20260507101127 | 65 | 112 | 2.6 | 5.2 | 0.00 | 0.00 | 0.00 | 64 | 1013.4 |
| 20260507101027 | 65 | 106 | 3.5 | 5.2 | 0.00 | 0.00 | 0.00 | 64 | 1013.3 |
| 20260507100927 | 66 | 98 | 1.7 | 3.5 | 0.00 | 0.00 | 0.00 | 65 | 1013.5 |
| 20260507100827 | 66 | 92 | 1.7 | 3.5 | 0.00 | 0.00 | 0.00 | 64 | 1013.4 |
| 20260507100727 | 66 | 79 | 1.7 | 3.5 | 0.00 | 0.00 | 0.00 | 65 | 1013.5 |
| 20260507100627 | 66 | 77 | 0.9 | 3.5 | 0.00 | 0.00 | 0.00 | 65 | 1013.3 |
| 20260507100527 | 66 | 75 | 0.9 | 3.5 | 0.00 | 0.00 | 0.00 | 65 | 1013.5 |
| 20260507100427 | 66 | 69 | 1.7 | 3.5 | 0.00 | 0.00 | 0.00 | 65 | 1013.3 |
| 20260507100328 | 66 | 66 | 1.7 | 5.2 | 0.00 | 0.00 | 0.00 | 65 | 1013.3 |
| 20260507100227 | 66 | 63 | 1.7 | 7.0 | 0.00 | 0.00 | 0.00 | 65 | 1013.4 |
| 20260507100127 | 66 | 64 | 1.7 | 9.6 | 0.00 | 0.00 | 0.00 | 65 | 1013.3 |
| 20260507100027 | 66 | 64 | 1.7 | 9.6 | 0.00 | 0.00 | 0.00 | 64 | 1013.4 |
| 20260507095927 | 66 | 63 | 0.9 | 9.6 | 0.00 | 0.00 | 0.00 | 65 | 1013.3 |
| 20260507095827 | 66 | 62 | 1.7 | 9.6 | 0.00 | 0.00 | 0.00 | 64 | 1013.3 |
| 20260507095728 | 66 | 64 | 1.7 | 9.6 | 0.00 | 0.00 | 0.00 | 65 | 1013.4 |
| 20260507095627 | 66 | 65 | 1.7 | 9.6 | 0.00 | 0.00 | 0.00 | 65 | 1013.2 |
| 20260507095527 | 65 | 65 | 1.7 | 9.6 | 0.00 | 0.00 | 0.00 | 65 | 1013.6 |
| 20260507095427 | 65 | 65 | 3.5 | 9.6 | 0.00 | 0.00 | 0.00 | 65 | 1013.3 |
| 20260507095327 | 65 | 67 | 3.5 | 9.6 | 0.00 | 0.00 | 0.00 | 65 | 1013.4 |
| 20260507095227 | 65 | 69 | 5.2 | 9.6 | 0.00 | 0.00 | 0.00 | 65 | 1013.2 |
| 20260507095127 | 65 | 71 | 6.1 | 9.6 | 0.00 | 0.00 | 0.00 | 65 | 1013.3 |
| 20260507095028 | 65 | 76 | 3.5 | 7.0 | 0.00 | 0.00 | 0.00 | 65 | 1013.4 |
| 20260507094927 | 66 | 83 | 4.3 | 7.0 | 0.00 | 0.00 | 0.00 | 66 | 1013.4 |
| 20260507094828 | 66 | 87 | 3.5 | 7.0 | 0.00 | 0.00 | 0.00 | 66 | 1013.3 |
| 20260507094727 | 66 | 90 | 3.5 | 7.0 | 0.00 | 0.00 | 0.00 | 66 | 1013.5 |
| 20260507094627 | 65 | 94 | 2.6 | 7.0 | 0.00 | 0.00 | 0.00 | 65 | 1013.3 |
| 20260507094527 | 65 | 93 | 3.5 | 7.8 | 0.00 | 0.00 | 0.00 | 64 | 1013.4 |
| 20260507094427 | 66 | 93 | 2.6 | 7.8 | 0.00 | 0.00 | 0.00 | 65 | 1013.5 |
| 20260507094327 | 66 | 94 | 1.7 | 9.6 | 0.00 | 0.00 | 0.00 | 65 | 1013.4 |
| 20260507094227 | 66 | 91 | 1.7 | 9.6 | 0.00 | 0.00 | 0.00 | 65 | 1013.5 |
| 20260507094127 | 65 | 87 | 1.7 | 9.6 | 0.00 | 0.00 | 0.00 | 65 | 1013.4 |
| 20260507094028 | 65 | 84 | 4.3 | 9.6 | 0.00 | 0.00 | 0.00 | 64 | 1013.6 |
| 20260507093927 | 66 | 80 | 3.5 | 9.6 | 0.00 | 0.00 | 0.00 | 65 | 1013.4 |
| 20260507093827 | 65 | 77 | 5.2 | 9.6 | 0.00 | 0.00 | 0.00 | 65 | 1013.4 |
| 20260507093727 | 65 | 73 | 5.2 | 9.6 | 0.00 | 0.00 | 0.00 | 66 | 1013.5 |
| 20260507093627 | 65 | 69 | 4.3 | 9.6 | 0.00 | 0.00 | 0.00 | 67 | 1013.6 |
| 20260507093527 | 64 | 68 | 7.0 | 9.6 | 0.00 | 0.00 | 0.00 | 67 | 1013.5 |
| 20260507093427 | 65 | 66 | 7.0 | 9.6 | 0.00 | 0.00 | 0.00 | 68 | 1013.6 |
| 20260507093327 | 65 | 65 | 7.0 | 9.6 | 0.00 | 0.00 | 0.00 | 68 | 1013.4 |
| 20260507093227 | 65 | 65 | 6.1 | 9.6 | 0.00 | 0.00 | 0.00 | 68 | 1013.5 |
| 20260507093127 | 65 | 65 | 6.1 | 9.6 | 0.00 | 0.00 | 0.00 | 68 | 1013.4 |
| 20260507093027 | 65 | 63 | 3.5 | 9.6 | 0.00 | 0.00 | 0.00 | 69 | 1013.4 |
| 20260507092927 | 65 | 62 | 6.1 | 9.6 | 0.00 | 0.00 | 0.00 | 68 | 1013.3 |
| 20260507092827 | 64 | 60 | 7.0 | 9.6 | 0.00 | 0.00 | 0.00 | 67 | 1013.2 |
| 20260507092727 | 65 | 59 | 7.8 | 9.6 | 0.00 | 0.00 | 0.00 | 67 | 1013.4 |
| 20260507092627 | 65 | 53 | 6.1 | 9.6 | 0.00 | 0.00 | 0.00 | 67 | 1013.2 |
| 20260507092527 | 65 | 52 | 7.0 | 9.6 | 0.00 | 0.00 | 0.00 | 66 | 1013.4 |
| 20260507092428 | 65 | 52 | 5.2 | 9.6 | 0.00 | 0.00 | 0.00 | 67 | 1013.3 |
| 20260507092327 | 66 | 53 | 4.3 | 9.6 | 0.00 | 0.00 | 0.00 | 68 | 1013.3 |
| 20260507092227 | 65 | 52 | 5.2 | 9.6 | 0.00 | 0.00 | 0.00 | 68 | 1013.4 |
| 20260507092127 | 65 | 48 | 5.2 | 9.6 | 0.00 | 0.00 | 0.00 | 67 | 1013.3 |
| 20260507092027 | 65 | 43 | 5.2 | 9.6 | 0.00 | 0.00 | 0.00 | 68 | 1013.5 |
| 20260507091927 | 65 | 44 | 6.1 | 9.6 | 0.00 | 0.00 | 0.00 | 68 | 1013.4 |
| 20260507091827 | 65 | 44 | 1.7 | 9.6 | 0.00 | 0.00 | 0.00 | 68 | 1013.5 |
| 20260507091727 | 65 | 44 | 5.2 | 9.6 | 0.00 | 0.00 | 0.00 | 68 | 1013.6 |
| 20260507091627 | 65 | 48 | 5.2 | 9.6 | 0.00 | 0.00 | 0.00 | 69 | 1013.4 |
| 20260507091527 | 64 | 45 | 6.1 | 9.6 | 0.00 | 0.00 | 0.00 | 68 | 1013.4 |
| 20260507091427 | 65 | 38 | 7.0 | 9.6 | 0.00 | 0.00 | 0.00 | 69 | 1013.5 |
| 20260507091327 | 65 | 34 | 7.0 | 9.6 | 0.00 | 0.00 | 0.00 | 68 | 1013.5 |
| 20260507091227 | 65 | 32 | 5.2 | 9.6 | 0.00 | 0.00 | 0.00 | 69 | 1013.4 |
| 20260507091127 | 65 | 31 | 4.3 | 12.2 | 0.00 | 0.00 | 0.00 | 68 | 1013.3 |
| 20260507091027 | 65 | 37 | 7.0 | 12.2 | 0.00 | 0.00 | 0.00 | 68 | 1013.3 |
| 20260507090927 | 65 | 38 | 7.0 | 12.2 | 0.00 | 0.00 | 0.00 | 68 | 1013.1 |
| 20260507090827 | 65 | 41 | 6.1 | 12.2 | 0.00 | 0.00 | 0.00 | 68 | 1013.3 |
| 20260507090727 | 65 | 42 | 5.2 | 12.2 | 0.00 | 0.00 | 0.00 | 69 | 1013.3 |
| 20260507090627 | 65 | 43 | 3.5 | 12.2 | 0.00 | 0.00 | 0.00 | 68 | 1013.5 |
| 20260507090527 | 65 | 48 | 4.3 | 12.2 | 0.00 | 0.00 | 0.00 | 68 | 1013.5 |
| 20260507090427 | 65 | 54 | 7.0 | 12.2 | 0.00 | 0.00 | 0.00 | 68 | 1013.1 |
| 20260507090327 | 65 | 57 | 6.1 | 12.2 | 0.00 | 0.00 | 0.00 | 68 | 1013.2 |
| 20260507090227 | 65 | 59 | 7.0 | 12.2 | 0.00 | 0.00 | 0.00 | 68 | 1013.4 |
| 20260507090127 | 65 | 66 | 7.0 | 9.6 | 0.00 | 0.00 | 0.00 | 68 | 1013.2 |
| 20260507090027 | 65 | 64 | 3.5 | 9.6 | 0.00 | 0.00 | 0.00 | 68 | 1013.1 |
| 20260507085927 | 65 | 66 | 5.2 | 9.6 | 0.00 | 0.00 | 0.00 | 68 | 1013.2 |
| 20260507085827 | 64 | 65 | 6.1 | 9.6 | 0.00 | 0.00 | 0.00 | 68 | 1013.3 |
| 20260507085727 | 65 | 67 | 4.3 | 9.6 | 0.00 | 0.00 | 0.00 | 70 | 1013.3 |
| 20260507085627 | 64 | 66 | 6.1 | 9.6 | 0.00 | 0.00 | 0.00 | 69 | 1013.2 |
| 20260507085527 | 64 | 65 | 7.0 | 9.6 | 0.00 | 0.00 | 0.00 | 69 | 1013.2 |
| 20260507085427 | 64 | 65 | 5.2 | 9.6 | 0.00 | 0.00 | 0.00 | 70 | 1013.3 |
| 20260507085327 | 64 | 63 | 6.1 | 9.6 | 0.00 | 0.00 | 0.00 | 70 | 1013.4 |
| 20260507085227 | 64 | 61 | 7.0 | 9.6 | 0.00 | 0.00 | 0.00 | 69 | 1013.4 |
| 20260507085127 | 64 | 58 | 7.8 | 9.6 | 0.00 | 0.00 | 0.00 | 69 | 1013.3 |
| 20260507085027 | 64 | 59 | 7.0 | 9.6 | 0.00 | 0.00 | 0.00 | 69 | 1013.3 |
| 20260507084927 | 64 | 54 | 3.5 | 7.8 | 0.00 | 0.00 | 0.00 | 70 | 1013.3 |
| 20260507084827 | 64 | 53 | 5.2 | 7.8 | 0.00 | 0.00 | 0.00 | 69 | 1013.1 |
| 20260507084727 | 64 | 49 | 6.1 | 7.8 | 0.00 | 0.00 | 0.00 | 69 | 1013.0 |
| 20260507084627 | 64 | 51 | 4.3 | 7.8 | 0.00 | 0.00 | 0.00 | 69 | 1013.3 |
| 20260507084527 | 64 | 52 | 3.5 | 7.8 | 0.00 | 0.00 | 0.00 | 69 | 1013.4 |
| 20260507084427 | 64 | 51 | 3.5 | 7.8 | 0.00 | 0.00 | 0.00 | 68 | 1013.2 |
| 20260507084327 | 64 | 52 | 4.3 | 7.8 | 0.00 | 0.00 | 0.00 | 68 | 1013.3 |
| 20260507084227 | 64 | 55 | 3.5 | 7.8 | 0.00 | 0.00 | 0.00 | 68 | 1013.2 |
| 20260507084127 | 64 | 58 | 3.5 | 9.6 | 0.00 | 0.00 | 0.00 | 68 | 1013.4 |
| 20260507084027 | 64 | 59 | 3.5 | 9.6 | 0.00 | 0.00 | 0.00 | 68 | 1013.3 |
| 20260507083927 | 64 | 61 | 3.5 | 9.6 | 0.00 | 0.00 | 0.00 | 69 | 1013.5 |
| 20260507083827 | 64 | 62 | 3.5 | 9.6 | 0.00 | 0.00 | 0.00 | 69 | 1013.3 |
| 20260507083727 | 64 | 62 | 3.5 | 9.6 | 0.00 | 0.00 | 0.00 | 68 | 1013.4 |
| 20260507083627 | 64 | 62 | 4.3 | 9.6 | 0.00 | 0.00 | 0.00 | 68 | 1013.3 |
| 20260507083527 | 64 | 62 | 3.5 | 9.6 | 0.00 | 0.00 | 0.00 | 69 | 1013.3 |
| 20260507083427 | 64 | 63 | 4.3 | 9.6 | 0.00 | 0.00 | 0.00 | 68 | 1013.5 |
| 20260507083327 | 64 | 65 | 3.5 | 9.6 | 0.00 | 0.00 | 0.00 | 68 | 1013.4 |
| 20260507083227 | 64 | 65 | 4.3 | 9.6 | 0.00 | 0.00 | 0.00 | 68 | 1013.4 |
| 20260507083127 | 65 | 65 | 4.3 | 7.8 | 0.00 | 0.00 | 0.00 | 67 | 1013.5 |
| 20260507083027 | 65 | 67 | 3.5 | 7.0 | 0.00 | 0.00 | 0.00 | 68 | 1013.4 |
| 20260507082928 | 65 | 68 | 3.5 | 7.0 | 0.00 | 0.00 | 0.00 | 67 | 1013.4 |
| 20260507082827 | 65 | 72 | 3.5 | 7.0 | 0.00 | 0.00 | 0.00 | 66 | 1013.4 |
| 20260507082727 | 65 | 72 | 3.5 | 7.0 | 0.00 | 0.00 | 0.00 | 66 | 1013.6 |
| 20260507082627 | 65 | 71 | 3.5 | 7.0 | 0.00 | 0.00 | 0.00 | 65 | 1013.4 |
| 20260507082527 | 66 | 72 | 2.6 | 7.0 | 0.00 | 0.00 | 0.00 | 66 | 1013.5 |
| 20260507082427 | 66 | 71 | 2.6 | 7.0 | 0.00 | 0.00 | 0.00 | 66 | 1013.4 |
| 20260507082327 | 65 | 57 | 3.5 | 7.0 | 0.00 | 0.00 | 0.00 | 65 | 1013.5 |
| 20260507082227 | 65 | 338 | 3.5 | 7.0 | 0.00 | 0.00 | 0.00 | 64 | 1013.4 |
| 20260507082127 | 65 | 272 | 3.5 | 7.0 | 0.00 | 0.00 | 0.00 | 64 | 1013.5 |
| 20260507082027 | 66 | 267 | 3.5 | 6.1 | 0.00 | 0.00 | 0.00 | 64 | 1013.5 |
| 20260507081927 | 66 | 275 | 1.7 | 3.5 | 0.00 | 0.00 | 0.00 | 63 | 1013.3 |
| 20260507081827 | 66 | 284 | 0.9 | 3.5 | 0.00 | 0.00 | 0.00 | 63 | 1013.6 |
| 20260507081727 | 65 | 282 | 0.9 | 1.7 | 0.00 | 0.00 | 0.00 | 63 | 1013.6 |
| 20260507081627 | 65 | 288 | 0.9 | 1.7 | 0.00 | 0.00 | 0.00 | 63 | 1013.5 |
| 20260507081527 | 65 | 291 | 0.9 | 1.7 | 0.00 | 0.00 | 0.00 | 62 | 1013.5 |
| 20260507081427 | 65 | 290 | 0.9 | 1.7 | 0.00 | 0.00 | 0.00 | 63 | 1013.6 |
| 20260507081327 | 65 | 293 | 1.7 | 1.7 | 0.00 | 0.00 | 0.00 | 63 | 1013.4 |
| 20260507081227 | 65 | 292 | 0.9 | 1.7 | 0.00 | 0.00 | 0.00 | 63 | 1013.5 |
| 20260507081127 | 66 | 292 | 0.9 | 1.7 | 0.00 | 0.00 | 0.00 | 64 | 1013.5 |
| 20260507081027 | 65 | 294 | 1.7 | 1.7 | 0.00 | 0.00 | 0.00 | 64 | 1013.4 |
| 20260507080927 | 65 | 298 | 0.9 | 1.7 | 0.00 | 0.00 | 0.00 | 64 | 1013.5 |
| 20260507080827 | 65 | 302 | 0.0 | 1.7 | 0.00 | 0.00 | 0.00 | 64 | 1013.5 |
| 20260507080727 | 65 | 305 | 0.9 | 1.7 | 0.00 | 0.00 | 0.00 | 64 | 1013.2 |
| 20260507080627 | 65 | 308 | 1.7 | 1.7 | 0.00 | 0.00 | 0.00 | 64 | 1013.2 |
| 20260507080527 | 65 | 309 | 0.9 | 1.7 | 0.00 | 0.00 | 0.00 | 64 | 1013.4 |
| 20260507080427 | 65 | 315 | 0.0 | 3.5 | 0.00 | 0.00 | 0.00 | 64 | 1013.3 |
| 20260507080327 | 65 | 346 | 0.9 | 5.2 | 0.00 | 0.00 | 0.00 | 64 | 1013.3 |
| 20260507080227 | 66 | 27 | 0.9 | 5.2 | 0.00 | 0.00 | 0.00 | 65 | 1012.9 |
| 20260507080127 | 65 | 66 | 1.7 | 5.2 | 0.00 | 0.00 | 0.00 | 64 | 1013.4 |
| 20260507080027 | 65 | 98 | 1.7 | 5.2 | 0.00 | 0.00 | 0.00 | 63 | 1013.2 |
| 20260507075927 | 65 | 119 | 1.7 | 5.2 | 0.00 | 0.00 | 0.00 | 63 | 1013.2 |
| 20260507075827 | 65 | 122 | 1.7 | 5.2 | 0.00 | 0.00 | 0.00 | 63 | 1013.3 |
| 20260507075727 | 66 | 115 | 1.7 | 5.2 | 0.00 | 0.00 | 0.00 | 62 | 1013.4 |
| 20260507075627 | 66 | 112 | 0.9 | 5.2 | 0.00 | 0.00 | 0.00 | 62 | 1013.2 |
| 20260507075527 | 66 | 113 | 1.7 | 5.2 | 0.00 | 0.00 | 0.00 | 62 | 1013.1 |
| 20260507075427 | 66 | 114 | 1.7 | 5.2 | 0.00 | 0.00 | 0.00 | 62 | 1013.1 |
| 20260507075327 | 66 | 111 | 0.9 | 5.2 | 0.00 | 0.00 | 0.00 | 65 | 1013.2 |
| 20260507075227 | 66 | 106 | 0.9 | 5.2 | 0.00 | 0.00 | 0.00 | 65 | 1013.3 |
| 20260507075127 | 65 | 103 | 2.6 | 5.2 | 0.00 | 0.00 | 0.00 | 65 | 1013.3 |
| 20260507075027 | 66 | 98 | 3.5 | 5.2 | 0.00 | 0.00 | 0.00 | 65 | 1013.1 |
| 20260507074927 | 65 | 93 | 1.7 | 5.2 | 0.00 | 0.00 | 0.00 | 64 | 1013.1 |
| 20260507074827 | 65 | 92 | 2.6 | 5.2 | 0.00 | 0.00 | 0.00 | 64 | 1013.0 |
| 20260507074727 | 65 | 94 | 3.5 | 5.2 | 0.00 | 0.00 | 0.00 | 63 | 1013.0 |
| 20260507074627 | 65 | 87 | 1.7 | 3.5 | 0.00 | 0.00 | 0.00 | 64 | 1013.3 |
| 20260507074527 | 65 | 82 | 2.6 | 3.5 | 0.00 | 0.00 | 0.00 | 63 | 1013.2 |
| 20260507074427 | 66 | 76 | 2.6 | 3.5 | 0.00 | 0.00 | 0.00 | 64 | 1013.2 |
| 20260507074327 | 66 | 79 | 2.6 | 3.5 | 0.00 | 0.00 | 0.00 | 64 | 1013.1 |
| 20260507074227 | 66 | 76 | 2.6 | 3.5 | 0.00 | 0.00 | 0.00 | 64 | 1013.0 |
| 20260507074127 | 66 | 73 | 1.7 | 3.5 | 0.00 | 0.00 | 0.00 | 65 | 1013.2 |
| 20260507074027 | 66 | 71 | 1.7 | 3.5 | 0.00 | 0.00 | 0.00 | 65 | 1013.0 |
| 20260507073927 | 66 | 70 | 1.7 | 3.5 | 0.00 | 0.00 | 0.00 | 66 | 1013.4 |
| 20260507073827 | 65 | 71 | 1.7 | 3.5 | 0.00 | 0.00 | 0.00 | 66 | 1013.2 |
| 20260507073727 | 65 | 76 | 1.7 | 3.5 | 0.00 | 0.00 | 0.00 | 66 | 1013.3 |
| 20260507073627 | 65 | 89 | 2.6 | 3.5 | 0.00 | 0.00 | 0.00 | 66 | 1013.3 |
| 20260507073527 | 65 | 98 | 1.7 | 3.5 | 0.00 | 0.00 | 0.00 | 65 | 1013.4 |
| 20260507073427 | 65 | 101 | 1.7 | 3.5 | 0.00 | 0.00 | 0.00 | 65 | 1013.2 |
| 20260507073327 | 65 | 102 | 1.7 | 3.5 | 0.00 | 0.00 | 0.00 | 65 | 1013.2 |
| 20260507073227 | 66 | 123 | 1.7 | 3.5 | 0.00 | 0.00 | 0.00 | 65 | 1013.2 |
| 20260507073127 | 66 | 156 | 1.7 | 3.5 | 0.00 | 0.00 | 0.00 | 64 | 1013.2 |
| 20260507073027 | 66 | 177 | 0.0 | 3.5 | 0.00 | 0.00 | 0.00 | 65 | 1013.4 |
| 20260507072927 | 66 | 207 | 0.0 | 3.5 | 0.00 | 0.00 | 0.00 | 65 | 1013.3 |
| 20260507072827 | 65 | 253 | 0.9 | 3.5 | 0.00 | 0.00 | 0.00 | 65 | 1013.3 |
| 20260507072728 | 65 | 266 | 1.7 | 3.5 | 0.00 | 0.00 | 0.00 | 65 | 1013.2 |
| 20260507072627 | 66 | 273 | 1.7 | 3.5 | 0.00 | 0.00 | 0.00 | 66 | 1013.3 |
| 20260507072527 | 66 | 277 | 0.0 | 3.5 | 0.00 | 0.00 | 0.00 | 67 | 1013.3 |
| 20260507072427 | 65 | 277 | 0.9 | 3.5 | 0.00 | 0.00 | 0.00 | 67 | 1013.3 |
| 20260507072327 | 65 | 278 | 0.9 | 3.5 | 0.00 | 0.00 | 0.00 | 68 | 1013.2 |
| 20260507072227 | 65 | 281 | 1.7 | 3.5 | 0.00 | 0.00 | 0.00 | 68 | 1013.3 |
| 20260507072127 | 64 | 282 | 1.7 | 3.5 | 0.00 | 0.00 | 0.00 | 68 | 1013.3 |
| 20260507072027 | 64 | 280 | 1.7 | 3.5 | 0.00 | 0.00 | 0.00 | 67 | 1013.3 |
| 20260507071927 | 64 | 276 | 2.6 | 3.5 | 0.00 | 0.00 | 0.00 | 67 | 1013.2 |
| 20260507071827 | 64 | 269 | 0.9 | 1.7 | 0.00 | 0.00 | 0.00 | 67 | 1013.2 |
| 20260507071727 | 65 | 263 | 1.7 | 3.5 | 0.00 | 0.00 | 0.00 | 68 | 1013.2 |
| 20260507071627 | 65 | 257 | 0.9 | 3.5 | 0.00 | 0.00 | 0.00 | 68 | 1013.2 |
| 20260507071527 | 65 | 259 | 0.9 | 3.5 | 0.00 | 0.00 | 0.00 | 68 | 1013.3 |
| 20260507071427 | 65 | 262 | 0.9 | 3.5 | 0.00 | 0.00 | 0.00 | 69 | 1013.4 |
| 20260507071327 | 65 | 264 | 1.7 | 3.5 | 0.00 | 0.00 | 0.00 | 69 | 1013.3 |
| 20260507071227 | 64 | 265 | 0.9 | 3.5 | 0.00 | 0.00 | 0.00 | 68 | 1013.4 |
| 20260507071127 | 65 | 261 | 0.9 | 3.5 | 0.00 | 0.00 | 0.00 | 68 | 1013.4 |
| 20260507071027 | 64 | 260 | 0.0 | 3.5 | 0.00 | 0.00 | 0.00 | 67 | 1013.4 |
| 20260507070927 | 65 | 254 | 0.9 | 3.5 | 0.00 | 0.00 | 0.00 | 67 | 1013.3 |
| 20260507070827 | 65 | 256 | 0.9 | 3.5 | 0.00 | 0.00 | 0.00 | 67 | 1013.1 |
| 20260507070727 | 65 | 264 | 1.7 | 3.5 | 0.00 | 0.00 | 0.00 | 67 | 1013.2 |
| 20260507070627 | 65 | 274 | 0.9 | 1.7 | 0.00 | 0.00 | 0.00 | 67 | 1013.5 |
| 20260507070527 | 65 | 272 | 1.7 | 1.7 | 0.00 | 0.00 | 0.00 | 68 | 1013.2 |
| 20260507070427 | 65 | 260 | 0.9 | 3.5 | 0.00 | 0.00 | 0.00 | 68 | 1013.3 |
| 20260507070327 | 65 | 259 | 0.9 | 3.5 | 0.00 | 0.00 | 0.00 | 68 | 1013.3 |
| 20260507070227 | 65 | 264 | 1.7 | 5.2 | 0.00 | 0.00 | 0.00 | 68 | 1013.4 |
| 20260507070127 | 64 | 275 | 0.9 | 5.2 | 0.00 | 0.00 | 0.00 | 69 | 1013.4 |
| 20260507070027 | 64 | 280 | 0.9 | 5.2 | 0.00 | 0.00 | 0.00 | 69 | 1013.1 |
| 20260507065927 | 64 | 285 | 0.9 | 5.2 | 0.00 | 0.00 | 0.00 | 70 | 1013.3 |
| 20260507065827 | 63 | 287 | 0.9 | 5.2 | 0.00 | 0.00 | 0.00 | 70 | 1013.3 |
| 20260507065727 | 63 | 286 | 1.7 | 5.2 | 0.00 | 0.00 | 0.00 | 70 | 1013.3 |
| 20260507065627 | 64 | 288 | 0.9 | 5.2 | 0.00 | 0.00 | 0.00 | 71 | 1013.2 |
| 20260507065527 | 63 | 289 | 1.7 | 5.2 | 0.00 | 0.00 | 0.00 | 71 | 1013.2 |
| 20260507065427 | 62 | 295 | 1.7 | 5.2 | 0.00 | 0.00 | 0.00 | 72 | 1013.5 |
| 20260507065327 | 62 | 296 | 1.7 | 5.2 | 0.00 | 0.00 | 0.00 | 71 | 1013.4 |
| 20260507065227 | 62 | 297 | 3.5 | 5.2 | 0.00 | 0.00 | 0.00 | 71 | 1013.5 |
| 20260507065127 | 62 | 298 | 2.6 | 3.5 | 0.00 | 0.00 | 0.00 | 71 | 1013.4 |
| 20260507065027 | 62 | 300 | 3.5 | 3.5 | 0.00 | 0.00 | 0.00 | 71 | 1013.4 |
| 20260507064927 | 63 | 302 | 1.7 | 3.5 | 0.00 | 0.00 | 0.00 | 72 | 1013.5 |
| 20260507064827 | 62 | 304 | 2.6 | 3.5 | 0.00 | 0.00 | 0.00 | 71 | 1013.4 |
| 20260507064727 | 62 | 305 | 1.7 | 3.5 | 0.00 | 0.00 | 0.00 | 71 | 1013.5 |
| 20260507064627 | 62 | 306 | 1.7 | 1.7 | 0.00 | 0.00 | 0.00 | 71 | 1013.6 |
| 20260507064527 | 62 | 310 | 1.7 | 1.7 | 0.00 | 0.00 | 0.00 | 72 | 1013.7 |
| 20260507064427 | 63 | 314 | 1.7 | 1.7 | 0.00 | 0.00 | 0.00 | 73 | 1013.7 |
| 20260507064327 | 63 | 315 | 0.0 | 1.7 | 0.00 | 0.00 | 0.00 | 73 | 1013.4 |
| 20260507064227 | 62 | 317 | 0.0 | 1.7 | 0.00 | 0.00 | 0.00 | 74 | 1013.6 |
| 20260507064127 | 61 | 319 | 1.7 | 1.7 | 0.00 | 0.00 | 0.00 | 74 | 1013.5 |
| 20260507064027 | 61 | 320 | 0.9 | 3.5 | 0.00 | 0.00 | 0.00 | 74 | 1013.5 |
| 20260507063927 | 61 | 320 | 0.9 | 3.5 | 0.00 | 0.00 | 0.00 | 74 | 1013.6 |
| 20260507063827 | 62 | 323 | 0.0 | 3.5 | 0.00 | 0.00 | 0.00 | 74 | 1013.4 |
| 20260507063727 | 62 | 324 | 0.0 | 3.5 | 0.00 | 0.00 | 0.00 | 74 | 1013.4 |
| 20260507063627 | 61 | 324 | 0.0 | 3.5 | 0.00 | 0.00 | 0.00 | 74 | 1013.6 |
| 20260507063527 | 61 | 322 | 1.7 | 3.5 | 0.00 | 0.00 | 0.00 | 74 | 1013.6 |
| 20260507063427 | 61 | 320 | 0.0 | 3.5 | 0.00 | 0.00 | 0.00 | 74 | 1013.4 |
| 20260507063327 | 61 | 320 | 1.7 | 3.5 | 0.00 | 0.00 | 0.00 | 74 | 1013.5 |
| 20260507063227 | 61 | 320 | 0.9 | 3.5 | 0.00 | 0.00 | 0.00 | 74 | 1013.2 |
| 20260507063127 | 61 | 322 | 1.7 | 3.5 | 0.00 | 0.00 | 0.00 | 74 | 1013.3 |
| 20260507063027 | 61 | 327 | 1.7 | 3.5 | 0.00 | 0.00 | 0.00 | 74 | 1013.5 |
| 20260507062927 | 61 | 332 | 0.9 | 1.7 | 0.00 | 0.00 | 0.00 | 74 | 1013.4 |
| 20260507062827 | 61 | 340 | 0.0 | 1.7 | 0.00 | 0.00 | 0.00 | 75 | 1013.6 |
| 20260507062727 | 61 | 348 | 0.0 | 1.7 | 0.00 | 0.00 | 0.00 | 75 | 1013.4 |
| 20260507062627 | 61 | 346 | 0.0 | 1.7 | 0.00 | 0.00 | 0.00 | 75 | 1013.5 |
| 20260507062527 | 61 | 346 | 0.9 | 1.7 | 0.00 | 0.00 | 0.00 | 74 | 1013.4 |
| 20260507062427 | 61 | 347 | 0.9 | 3.5 | 0.00 | 0.00 | 0.00 | 75 | 1013.4 |
| 20260507062327 | 61 | 351 | 0.9 | 3.5 | 0.00 | 0.00 | 0.00 | 74 | 1013.5 |
| 20260507062227 | 61 | 354 | 0.0 | 3.5 | 0.00 | 0.00 | 0.00 | 75 | 1013.3 |
| 20260507062127 | 61 | 354 | 0.0 | 3.5 | 0.00 | 0.00 | 0.00 | 74 | 1013.5 |
| 20260507062027 | 61 | 353 | 0.9 | 3.5 | 0.00 | 0.00 | 0.00 | 74 | 1013.4 |
| 20260507061927 | 61 | 354 | 0.9 | 3.5 | 0.00 | 0.00 | 0.00 | 74 | 1013.3 |
| 20260507061827 | 60 | 350 | 0.9 | 3.5 | 0.00 | 0.00 | 0.00 | 74 | 1013.5 |
| 20260507061727 | 60 | 341 | 1.7 | 3.5 | 0.00 | 0.00 | 0.00 | 74 | 1013.4 |
| 20260507061627 | 60 | 335 | 1.7 | 3.5 | 0.00 | 0.00 | 0.00 | 75 | 1013.4 |
| 20260507061527 | 60 | 331 | 0.9 | 3.5 | 0.00 | 0.00 | 0.00 | 74 | 1013.3 |
| 20260507061428 | 60 | 327 | 1.7 | 3.5 | 0.00 | 0.00 | 0.00 | 74 | 1013.3 |
| 20260507061327 | 60 | 315 | 1.7 | 3.5 | 0.00 | 0.00 | 0.00 | 74 | 1013.5 |
| 20260507061227 | 60 | 303 | 0.0 | 3.5 | 0.00 | 0.00 | 0.00 | 75 | 1013.4 |
| 20260507061127 | 60 | 311 | 0.0 | 3.5 | 0.00 | 0.00 | 0.00 | 75 | 1013.4 |
| 20260507061027 | 60 | 318 | 0.0 | 3.5 | 0.00 | 0.00 | 0.00 | 75 | 1013.3 |
| 20260507060927 | 60 | 319 | 0.0 | 3.5 | 0.00 | 0.00 | 0.00 | 75 | 1013.4 |
| 20260507060827 | 60 | 319 | 0.9 | 3.5 | 0.00 | 0.00 | 0.00 | 75 | 1013.4 |
| 20260507060727 | 60 | 320 | 0.9 | 3.5 | 0.00 | 0.00 | 0.00 | 75 | 1013.5 |
| 20260507060627 | 60 | 322 | 1.7 | 3.5 | 0.00 | 0.00 | 0.00 | 75 | 1013.3 |
| 20260507060527 | 60 | 324 | 1.7 | 3.5 | 0.00 | 0.00 | 0.00 | 75 | 1013.5 |
| 20260507060427 | 60 | 326 | 1.7 | 3.5 | 0.00 | 0.00 | 0.00 | 75 | 1013.6 |
| 20260507060327 | 60 | 329 | 1.7 | 3.5 | 0.00 | 0.00 | 0.00 | 75 | 1013.7 |
| 20260507060227 | 60 | 337 | 1.7 | 5.2 | 0.00 | 0.00 | 0.00 | 75 | 1013.6 |
| 20260507060127 | 60 | 337 | 2.6 | 5.2 | 0.00 | 0.00 | 0.00 | 74 | 1013.6 |
| 20260507060027 | 61 | 338 | 1.7 | 5.2 | 0.00 | 0.00 | 0.00 | 75 | 1013.5 |
| 20260507055927 | 61 | 339 | 1.7 | 5.2 | 0.00 | 0.00 | 0.00 | 75 | 1013.5 |
| 20260507055827 | 61 | 349 | 1.7 | 5.2 | 0.00 | 0.00 | 0.00 | 74 | 1013.5 |
| 20260507055727 | 61 | 358 | 1.7 | 5.2 | 0.00 | 0.00 | 0.00 | 74 | 1013.3 |
| 20260507055627 | 61 | 3 | 0.9 | 5.2 | 0.00 | 0.00 | 0.00 | 74 | 1013.6 |
| 20260507055527 | 60 | 7 | 0.9 | 5.2 | 0.00 | 0.00 | 0.00 | 74 | 1013.2 |
| 20260507055427 | 60 | 9 | 0.9 | 5.2 | 0.00 | 0.00 | 0.00 | 74 | 1013.1 |
| 20260507055327 | 60 | 9 | 0.9 | 5.2 | 0.00 | 0.00 | 0.00 | 74 | 1013.2 |
| 20260507055227 | 60 | 7 | 2.6 | 5.2 | 0.00 | 0.00 | 0.00 | 74 | 1013.1 |
| 20260507055127 | 60 | 8 | 2.6 | 5.2 | 0.00 | 0.00 | 0.00 | 74 | 1013.2 |
| 20260507055027 | 60 | 10 | 1.7 | 5.2 | 0.00 | 0.00 | 0.00 | 74 | 1013.3 |
| 20260507054927 | 60 | 10 | 1.7 | 5.2 | 0.00 | 0.00 | 0.00 | 74 | 1013.1 |
| 20260507054827 | 60 | 8 | 2.6 | 5.2 | 0.00 | 0.00 | 0.00 | 74 | 1013.3 |
| 20260507054727 | 61 | 6 | 1.7 | 5.2 | 0.00 | 0.00 | 0.00 | 74 | 1013.0 |
| 20260507054627 | 60 | 7 | 3.5 | 5.2 | 0.00 | 0.00 | 0.00 | 74 | 1013.2 |
| 20260507054527 | 60 | 9 | 3.5 | 5.2 | 0.00 | 0.00 | 0.00 | 74 | 1013.1 |
| 20260507054427 | 61 | 15 | 3.5 | 5.2 | 0.00 | 0.00 | 0.00 | 74 | 1013.0 |
| 20260507054327 | 61 | 19 | 1.7 | 5.2 | 0.00 | 0.00 | 0.00 | 74 | 1013.1 |
| 20260507054227 | 60 | 25 | 2.6 | 5.2 | 0.00 | 0.00 | 0.00 | 74 | 1013.2 |
| 20260507054127 | 60 | 28 | 1.7 | 5.2 | 0.00 | 0.00 | 0.00 | 74 | 1013.0 |
| 20260507054027 | 60 | 28 | 2.6 | 5.2 | 0.00 | 0.00 | 0.00 | 74 | 1013.0 |
| 20260507053927 | 60 | 36 | 1.7 | 5.2 | 0.00 | 0.00 | 0.00 | 74 | 1013.1 |
| 20260507053827 | 60 | 38 | 1.7 | 5.2 | 0.00 | 0.00 | 0.00 | 74 | 1013.1 |
| 20260507053727 | 60 | 38 | 1.7 | 5.2 | 0.00 | 0.00 | 0.00 | 73 | 1013.2 |
| 20260507053627 | 60 | 38 | 1.7 | 5.2 | 0.00 | 0.00 | 0.00 | 73 | 1013.1 |
| 20260507053527 | 60 | 39 | 2.6 | 5.2 | 0.00 | 0.00 | 0.00 | 73 | 1013.0 |
| 20260507053427 | 60 | 39 | 1.7 | 5.2 | 0.00 | 0.00 | 0.00 | 73 | 1013.0 |
| 20260507053327 | 60 | 38 | 1.7 | 5.2 | 0.00 | 0.00 | 0.00 | 73 | 1013.1 |
| 20260507053227 | 60 | 40 | 1.7 | 5.2 | 0.00 | 0.00 | 0.00 | 73 | 1013.1 |
| 20260507053127 | 60 | 37 | 3.5 | 5.2 | 0.00 | 0.00 | 0.00 | 73 | 1013.0 |
| 20260507053027 | 60 | 39 | 1.7 | 3.5 | 0.00 | 0.00 | 0.00 | 72 | 1012.9 |
| 20260507052927 | 60 | 29 | 1.7 | 3.5 | 0.00 | 0.00 | 0.00 | 72 | 1012.8 |
| 20260507052827 | 60 | 23 | 1.7 | 3.5 | 0.00 | 0.00 | 0.00 | 72 | 1013.1 |
| 20260507052727 | 60 | 21 | 1.7 | 3.5 | 0.00 | 0.00 | 0.00 | 72 | 1012.9 |
| 20260507052627 | 60 | 17 | 1.7 | 3.5 | 0.00 | 0.00 | 0.00 | 71 | 1013.1 |
| 20260507052527 | 60 | 13 | 1.7 | 3.5 | 0.00 | 0.00 | 0.00 | 71 | 1013.1 |
| 20260507052427 | 60 | 10 | 1.7 | 3.5 | 0.00 | 0.00 | 0.00 | 70 | 1012.9 |
| 20260507052327 | 60 | 7 | 0.9 | 3.5 | 0.00 | 0.00 | 0.00 | 70 | 1013.0 |
| 20260507052227 | 60 | 5 | 1.7 | 3.5 | 0.00 | 0.00 | 0.00 | 70 | 1012.8 |
| 20260507052127 | 60 | 11 | 0.9 | 3.5 | 0.00 | 0.00 | 0.00 | 70 | 1013.0 |
| 20260507052027 | 60 | 14 | 1.7 | 3.5 | 0.00 | 0.00 | 0.00 | 69 | 1012.9 |
| 20260507051927 | 60 | 14 | 1.7 | 3.5 | 0.00 | 0.00 | 0.00 | 69 | 1012.8 |
| 20260507051827 | 60 | 18 | 1.7 | 3.5 | 0.00 | 0.00 | 0.00 | 69 | 1012.8 |
| 20260507051727 | 60 | 24 | 1.7 | 3.5 | 0.00 | 0.00 | 0.00 | 69 | 1012.7 |
| 20260507051627 | 60 | 25 | 1.7 | 3.5 | 0.00 | 0.00 | 0.00 | 69 | 1012.8 |
| 20260507051527 | 60 | 27 | 1.7 | 7.0 | 0.00 | 0.00 | 0.00 | 68 | 1012.7 |
| 20260507051427 | 60 | 29 | 1.7 | 7.0 | 0.00 | 0.00 | 0.00 | 68 | 1012.8 |
| 20260507051327 | 60 | 31 | 1.7 | 7.0 | 0.00 | 0.00 | 0.00 | 68 | 1012.8 |
| 20260507051227 | 60 | 33 | 1.7 | 7.0 | 0.00 | 0.00 | 0.00 | 68 | 1012.7 |
| 20260507051127 | 61 | 29 | 1.7 | 7.0 | 0.00 | 0.00 | 0.00 | 67 | 1012.8 |
| 20260507051027 | 60 | 26 | 0.9 | 7.0 | 0.00 | 0.00 | 0.00 | 66 | 1012.6 |
| 20260507050927 | 60 | 28 | 0.9 | 7.0 | 0.00 | 0.00 | 0.00 | 66 | 1012.7 |
| 20260507050827 | 61 | 23 | 1.7 | 7.0 | 0.00 | 0.00 | 0.00 | 65 | 1012.6 |
| 20260507050727 | 61 | 14 | 1.7 | 7.0 | 0.00 | 0.00 | 0.00 | 65 | 1012.6 |
| 20260507050627 | 61 | 9 | 2.6 | 7.0 | 0.00 | 0.00 | 0.00 | 65 | 1012.9 |
| 20260507050527 | 61 | 353 | 1.7 | 7.0 | 0.00 | 0.00 | 0.00 | 65 | 1012.6 |
| 20260507050427 | 61 | 325 | 0.9 | 1.7 | 0.00 | 0.00 | 0.00 | 64 | 1012.6 |
| 20260507050327 | 61 | 317 | 0.9 | 1.7 | 0.00 | 0.00 | 0.00 | 64 | 1012.7 |
| 20260507050227 | 61 | 317 | 0.0 | 1.7 | 0.00 | 0.00 | 0.00 | 64 | 1012.5 |
| 20260507050127 | 61 | 316 | 0.0 | 1.7 | 0.00 | 0.00 | 0.00 | 64 | 1012.7 |
| 20260507050027 | 61 | 319 | 0.0 | 1.7 | 0.00 | 0.00 | 0.00 | 64 | 1012.6 |
| 20260507045927 | 61 | 323 | 0.0 | 1.7 | 0.00 | 0.00 | 0.00 | 63 | 1012.5 |
| 20260507045827 | 61 | 326 | 0.0 | 1.7 | 0.00 | 0.00 | 0.00 | 63 | 1012.7 |
| 20260507045727 | 61 | 331 | 0.0 | 1.7 | 0.00 | 0.00 | 0.00 | 63 | 1012.5 |
| 20260507045627 | 61 | 340 | 0.9 | 1.7 | 0.00 | 0.00 | 0.00 | 63 | 1012.3 |
| 20260507045527 | 61 | 349 | 1.7 | 3.5 | 0.00 | 0.00 | 0.00 | 63 | 1012.4 |
| 20260507045427 | 61 | 358 | 0.9 | 3.5 | 0.00 | 0.00 | 0.00 | 63 | 1012.4 |
| 20260507045327 | 61 | 5 | 0.9 | 3.5 | 0.00 | 0.00 | 0.00 | 63 | 1012.4 |
| 20260507045227 | 61 | 11 | 0.9 | 3.5 | 0.00 | 0.00 | 0.00 | 63 | 1012.3 |
| 20260507045127 | 61 | 16 | 0.9 | 3.5 | 0.00 | 0.00 | 0.00 | 63 | 1012.3 |
| 20260507045027 | 61 | 12 | 0.9 | 3.5 | 0.00 | 0.00 | 0.00 | 63 | 1012.2 |
| 20260507044927 | 61 | 8 | 0.9 | 3.5 | 0.00 | 0.00 | 0.00 | 62 | 1012.3 |
| 20260507044827 | 61 | 5 | 0.9 | 3.5 | 0.00 | 0.00 | 0.00 | 62 | 1012.3 |
| 20260507044727 | 61 | 1 | 1.7 | 3.5 | 0.00 | 0.00 | 0.00 | 62 | 1012.1 |
| 20260507044627 | 61 | 354 | 1.7 | 6.1 | 0.00 | 0.00 | 0.00 | 61 | 1012.3 |
| 20260507044527 | 61 | 350 | 0.9 | 6.1 | 0.00 | 0.00 | 0.00 | 61 | 1012.1 |
| 20260507044427 | 61 | 345 | 1.7 | 6.1 | 0.00 | 0.00 | 0.00 | 61 | 1012.0 |
| 20260507044326 | 61 | 343 | 1.7 | 6.1 | 0.00 | 0.00 | 0.00 | 61 | 1012.0 |
| 20260507044227 | 62 | 340 | 2.6 | 6.1 | 0.00 | 0.00 | 0.00 | 60 | 1012.2 |
| 20260507044127 | 62 | 338 | 2.6 | 7.0 | 0.00 | 0.00 | 0.00 | 60 | 1012.0 |
| 20260507044027 | 62 | 337 | 2.6 | 7.0 | 0.00 | 0.00 | 0.00 | 60 | 1012.1 |
| 20260507043927 | 62 | 336 | 1.7 | 7.0 | 0.00 | 0.00 | 0.00 | 60 | 1012.1 |
| 20260507043827 | 62 | 336 | 1.7 | 7.0 | 0.00 | 0.00 | 0.00 | 60 | 1012.0 |
| 20260507043727 | 62 | 336 | 3.5 | 7.0 | 0.00 | 0.00 | 0.00 | 60 | 1012.0 |
| 20260507043627 | 62 | 334 | 4.3 | 7.0 | 0.00 | 0.00 | 0.00 | 60 | 1012.0 |
| 20260507043527 | 62 | 333 | 3.5 | 7.0 | 0.00 | 0.00 | 0.00 | 60 | 1011.9 |
| 20260507043427 | 62 | 332 | 3.5 | 7.0 | 0.00 | 0.00 | 0.00 | 60 | 1012.1 |
| 20260507043327 | 62 | 330 | 3.5 | 7.0 | 0.00 | 0.00 | 0.00 | 60 | 1011.9 |
| 20260507043227 | 62 | 328 | 3.5 | 7.0 | 0.00 | 0.00 | 0.00 | 60 | 1012.1 |
| 20260507043127 | 62 | 324 | 3.5 | 6.1 | 0.00 | 0.00 | 0.00 | 61 | 1012.0 |
| 20260507043027 | 61 | 322 | 3.5 | 5.2 | 0.00 | 0.00 | 0.00 | 61 | 1012.0 |
| 20260507042927 | 61 | 319 | 3.5 | 5.2 | 0.00 | 0.00 | 0.00 | 61 | 1012.0 |
| 20260507042827 | 61 | 318 | 2.6 | 5.2 | 0.00 | 0.00 | 0.00 | 61 | 1012.0 |
| 20260507042727 | 61 | 316 | 2.6 | 5.2 | 0.00 | 0.00 | 0.00 | 61 | 1011.7 |
| 20260507042627 | 61 | 318 | 3.5 | 5.2 | 0.00 | 0.00 | 0.00 | 62 | 1012.0 |
| 20260507042527 | 61 | 321 | 3.5 | 5.2 | 0.00 | 0.00 | 0.00 | 62 | 1011.9 |
| 20260507042427 | 61 | 324 | 3.5 | 5.2 | 0.00 | 0.00 | 0.00 | 62 | 1011.9 |
| 20260507042327 | 61 | 329 | 1.7 | 5.2 | 0.00 | 0.00 | 0.00 | 62 | 1012.2 |
| 20260507042227 | 61 | 331 | 3.5 | 5.2 | 0.00 | 0.00 | 0.00 | 61 | 1012.0 |
| 20260507042127 | 61 | 333 | 3.5 | 5.2 | 0.00 | 0.00 | 0.00 | 61 | 1011.9 |
| 20260507042027 | 61 | 336 | 1.7 | 5.2 | 0.00 | 0.00 | 0.00 | 61 | 1012.1 |
| 20260507041927 | 61 | 340 | 1.7 | 5.2 | 0.00 | 0.00 | 0.00 | 61 | 1012.0 |
| 20260507041827 | 61 | 344 | 2.6 | 5.2 | 0.00 | 0.00 | 0.00 | 61 | 1012.0 |
| 20260507041727 | 61 | 346 | 3.5 | 5.2 | 0.00 | 0.00 | 0.00 | 62 | 1012.2 |
| 20260507041626 | 61 | 346 | 2.6 | 5.2 | 0.00 | 0.00 | 0.00 | 62 | 1012.1 |
| 20260507041527 | 61 | 344 | 3.5 | 5.2 | 0.00 | 0.00 | 0.00 | 62 | 1012.0 |
| 20260507041427 | 61 | 344 | 1.7 | 5.2 | 0.00 | 0.00 | 0.00 | 62 | 1012.1 |
| 20260507041326 | 61 | 341 | 1.7 | 5.2 | 0.00 | 0.00 | 0.00 | 62 | 1012.1 |
| 20260507041227 | 61 | 341 | 1.7 | 6.1 | 0.00 | 0.00 | 0.00 | 62 | 1011.9 |
| 20260507041127 | 61 | 340 | 2.6 | 6.1 | 0.00 | 0.00 | 0.00 | 62 | 1012.0 |
| 20260507041027 | 61 | 339 | 1.7 | 6.1 | 0.00 | 0.00 | 0.00 | 62 | 1012.1 |
| 20260507040927 | 61 | 337 | 1.7 | 6.1 | 0.00 | 0.00 | 0.00 | 62 | 1012.1 |
| 20260507040826 | 61 | 334 | 1.7 | 6.1 | 0.00 | 0.00 | 0.00 | 62 | 1012.2 |
| 20260507040727 | 61 | 332 | 1.7 | 6.1 | 0.00 | 0.00 | 0.00 | 61 | 1012.0 |
| 20260507040627 | 61 | 331 | 2.6 | 6.1 | 0.00 | 0.00 | 0.00 | 61 | 1012.1 |
| 20260507040526 | 61 | 331 | 2.6 | 6.1 | 0.00 | 0.00 | 0.00 | 62 | 1012.1 |
| 20260507040427 | 61 | 331 | 3.5 | 6.1 | 0.00 | 0.00 | 0.00 | 61 | 1012.3 |
| 20260507040327 | 61 | 329 | 2.6 | 6.1 | 0.00 | 0.00 | 0.00 | 61 | 1012.1 |
| 20260507040227 | 61 | 327 | 3.5 | 6.1 | 0.00 | 0.00 | 0.00 | 61 | 1012.1 |
| 20260507040127 | 61 | 326 | 3.5 | 6.1 | 0.00 | 0.00 | 0.00 | 61 | 1011.9 |
| 20260507040027 | 61 | 327 | 3.5 | 6.1 | 0.00 | 0.00 | 0.00 | 61 | 1012.0 |
| 20260507035927 | 61 | 326 | 3.5 | 6.1 | 0.00 | 0.00 | 0.00 | 61 | 1011.9 |
| 20260507035827 | 61 | 325 | 4.3 | 6.1 | 0.00 | 0.00 | 0.00 | 61 | 1011.9 |
| 20260507035727 | 61 | 325 | 3.5 | 6.1 | 0.00 | 0.00 | 0.00 | 62 | 1011.9 |
| 20260507035627 | 61 | 324 | 3.5 | 6.1 | 0.00 | 0.00 | 0.00 | 62 | 1011.8 |
| 20260507035527 | 61 | 325 | 3.5 | 6.1 | 0.00 | 0.00 | 0.00 | 62 | 1011.7 |
| 20260507035427 | 61 | 322 | 4.3 | 6.1 | 0.00 | 0.00 | 0.00 | 62 | 1011.9 |
| 20260507035326 | 61 | 321 | 3.5 | 6.1 | 0.00 | 0.00 | 0.00 | 61 | 1011.9 |
| 20260507035227 | 61 | 321 | 3.5 | 6.1 | 0.00 | 0.00 | 0.00 | 61 | 1011.8 |
| 20260507035127 | 61 | 319 | 3.5 | 6.1 | 0.00 | 0.00 | 0.00 | 62 | 1011.8 |
| 20260507035027 | 61 | 315 | 3.5 | 6.1 | 0.00 | 0.00 | 0.00 | 62 | 1011.7 |
| 20260507034926 | 61 | 314 | 4.3 | 6.1 | 0.00 | 0.00 | 0.00 | 62 | 1011.9 |
| 20260507034826 | 61 | 314 | 3.5 | 6.1 | 0.00 | 0.00 | 0.00 | 63 | 1011.8 |
| 20260507034727 | 61 | 313 | 3.5 | 6.1 | 0.00 | 0.00 | 0.00 | 63 | 1011.7 |
| 20260507034627 | 60 | 313 | 3.5 | 6.1 | 0.00 | 0.00 | 0.00 | 63 | 1011.8 |
| 20260507034527 | 60 | 313 | 3.5 | 6.1 | 0.00 | 0.00 | 0.00 | 63 | 1011.8 |
| 20260507034426 | 60 | 314 | 3.5 | 6.1 | 0.00 | 0.00 | 0.00 | 63 | 1011.6 |
| 20260507034327 | 60 | 314 | 3.5 | 6.1 | 0.00 | 0.00 | 0.00 | 64 | 1011.9 |
| 20260507034226 | 60 | 314 | 3.5 | 6.1 | 0.00 | 0.00 | 0.00 | 64 | 1011.6 |
| 20260507034127 | 60 | 316 | 3.5 | 6.1 | 0.00 | 0.00 | 0.00 | 64 | 1011.7 |
| 20260507034027 | 60 | 316 | 3.5 | 6.1 | 0.00 | 0.00 | 0.00 | 64 | 1011.8 |
| 20260507033927 | 60 | 317 | 3.5 | 6.1 | 0.00 | 0.00 | 0.00 | 64 | 1011.7 |
| 20260507033827 | 60 | 317 | 4.3 | 6.1 | 0.00 | 0.00 | 0.00 | 64 | 1011.5 |
| 20260507033727 | 60 | 318 | 3.5 | 6.1 | 0.00 | 0.00 | 0.00 | 64 | 1011.7 |
| 20260507033627 | 60 | 316 | 3.5 | 6.1 | 0.00 | 0.00 | 0.00 | 64 | 1011.7 |
| 20260507033527 | 60 | 315 | 3.5 | 6.1 | 0.00 | 0.00 | 0.00 | 64 | 1011.7 |
| 20260507033427 | 60 | 314 | 3.5 | 6.1 | 0.00 | 0.00 | 0.00 | 64 | 1011.6 |
| 20260507033327 | 60 | 314 | 3.5 | 6.1 | 0.00 | 0.00 | 0.00 | 64 | 1011.7 |
| 20260507033227 | 60 | 311 | 3.5 | 6.1 | 0.00 | 0.00 | 0.00 | 64 | 1011.5 |
| 20260507033127 | 60 | 308 | 3.5 | 6.1 | 0.00 | 0.00 | 0.00 | 64 | 1011.7 |
| 20260507033027 | 60 | 306 | 3.5 | 6.1 | 0.00 | 0.00 | 0.00 | 65 | 1011.5 |
| 20260507032926 | 60 | 307 | 1.7 | 6.1 | 0.00 | 0.00 | 0.00 | 66 | 1011.6 |
| 20260507032826 | 60 | 307 | 2.6 | 7.0 | 0.00 | 0.00 | 0.00 | 66 | 1011.5 |
| 20260507032726 | 59 | 305 | 1.7 | 7.0 | 0.00 | 0.00 | 0.00 | 67 | 1011.4 |
| 20260507032627 | 59 | 305 | 1.7 | 7.0 | 0.00 | 0.00 | 0.00 | 67 | 1011.5 |
| 20260507032526 | 60 | 307 | 1.7 | 7.0 | 0.00 | 0.00 | 0.00 | 66 | 1011.5 |
| 20260507032427 | 60 | 309 | 1.7 | 7.0 | 0.00 | 0.00 | 0.00 | 66 | 1011.5 |
| 20260507032327 | 60 | 310 | 1.7 | 7.0 | 0.00 | 0.00 | 0.00 | 66 | 1011.5 |
| 20260507032227 | 60 | 313 | 3.5 | 7.0 | 0.00 | 0.00 | 0.00 | 66 | 1011.4 |
| 20260507032126 | 60 | 315 | 3.5 | 7.0 | 0.00 | 0.00 | 0.00 | 66 | 1011.4 |
| 20260507032027 | 60 | 316 | 5.2 | 7.0 | 0.00 | 0.00 | 0.00 | 65 | 1011.5 |
| 20260507031927 | 60 | 316 | 4.3 | 7.0 | 0.00 | 0.00 | 0.00 | 65 | 1011.2 |
| 20260507031827 | 60 | 316 | 3.5 | 6.1 | 0.00 | 0.00 | 0.00 | 65 | 1011.4 |
| 20260507031727 | 60 | 316 | 3.5 | 5.2 | 0.00 | 0.00 | 0.00 | 65 | 1011.5 |
| 20260507031627 | 60 | 316 | 2.6 | 5.2 | 0.00 | 0.00 | 0.00 | 65 | 1011.2 |
| 20260507031527 | 60 | 315 | 3.5 | 5.2 | 0.00 | 0.00 | 0.00 | 66 | 1011.5 |
| 20260507031427 | 60 | 313 | 3.5 | 5.2 | 0.00 | 0.00 | 0.00 | 66 | 1011.5 |
| 20260507031327 | 60 | 313 | 3.5 | 5.2 | 0.00 | 0.00 | 0.00 | 66 | 1011.2 |
| 20260507031227 | 60 | 313 | 3.5 | 5.2 | 0.00 | 0.00 | 0.00 | 66 | 1011.4 |
| 20260507031127 | 60 | 313 | 4.3 | 5.2 | 0.00 | 0.00 | 0.00 | 66 | 1011.4 |
| 20260507031027 | 60 | 313 | 4.3 | 5.2 | 0.00 | 0.00 | 0.00 | 66 | 1011.3 |
| 20260507030927 | 60 | 313 | 3.5 | 5.2 | 0.00 | 0.00 | 0.00 | 65 | 1011.3 |
| 20260507030827 | 60 | 313 | 3.5 | 5.2 | 0.00 | 0.00 | 0.00 | 65 | 1011.5 |
| 20260507030726 | 60 | 316 | 3.5 | 5.2 | 0.00 | 0.00 | 0.00 | 65 | 1011.4 |
| 20260507030627 | 60 | 318 | 3.5 | 5.2 | 0.00 | 0.00 | 0.00 | 65 | 1011.5 |
| 20260507030528 | 60 | 319 | 2.6 | 3.5 | 0.00 | 0.00 | 0.00 | 65 | 1011.4 |
| 20260507030426 | 60 | 321 | 3.5 | 3.5 | 0.00 | 0.00 | 0.00 | 64 | 1011.5 |
| 20260507030327 | 60 | 323 | 2.6 | 3.5 | 0.00 | 0.00 | 0.00 | 64 | 1011.2 |
| 20260507030227 | 61 | 326 | 2.6 | 3.5 | 0.00 | 0.00 | 0.00 | 63 | 1011.3 |
| 20260507030126 | 61 | 330 | 2.6 | 3.5 | 0.00 | 0.00 | 0.00 | 63 | 1011.5 |
| 20260507030027 | 61 | 333 | 1.7 | 3.5 | 0.00 | 0.00 | 0.00 | 63 | 1011.3 |
| 20260507025927 | 61 | 337 | 1.7 | 3.5 | 0.00 | 0.00 | 0.00 | 63 | 1011.5 |
| 20260507025826 | 61 | 341 | 1.7 | 1.7 | 0.00 | 0.00 | 0.00 | 63 | 1011.1 |
| 20260507025726 | 61 | 338 | 1.7 | 1.7 | 0.00 | 0.00 | 0.00 | 63 | 1011.3 |
| 20260507025627 | 61 | 333 | 1.7 | 1.7 | 0.00 | 0.00 | 0.00 | 63 | 1011.3 |
| 20260507025527 | 61 | 330 | 0.9 | 1.7 | 0.00 | 0.00 | 0.00 | 63 | 1011.3 |
| 20260507025427 | 61 | 330 | 1.7 | 1.7 | 0.00 | 0.00 | 0.00 | 63 | 1011.2 |
| 20260507025327 | 61 | 329 | 0.9 | 1.7 | 0.00 | 0.00 | 0.00 | 63 | 1011.1 |
| 20260507025227 | 61 | 327 | 1.7 | 1.7 | 0.00 | 0.00 | 0.00 | 63 | 1011.1 |
| 20260507025127 | 61 | 326 | 1.7 | 1.7 | 0.00 | 0.00 | 0.00 | 63 | 1011.2 |
| 20260507025027 | 60 | 328 | 0.9 | 1.7 | 0.00 | 0.00 | 0.00 | 63 | 1011.4 |
| 20260507024927 | 60 | 329 | 1.7 | 1.7 | 0.00 | 0.00 | 0.00 | 64 | 1011.3 |
| 20260507024827 | 60 | 327 | 1.7 | 1.7 | 0.00 | 0.00 | 0.00 | 64 | 1011.4 |
| 20260507024727 | 60 | 322 | 1.7 | 1.7 | 0.00 | 0.00 | 0.00 | 65 | 1011.4 |
| 20260507024627 | 60 | 325 | 0.9 | 1.7 | 0.00 | 0.00 | 0.00 | 65 | 1011.4 |
| 20260507024527 | 60 | 324 | 0.0 | 1.7 | 0.00 | 0.00 | 0.00 | 66 | 1011.4 |
| 20260507024426 | 60 | 318 | 0.0 | 1.7 | 0.00 | 0.00 | 0.00 | 66 | 1011.3 |
| 20260507024326 | 60 | 315 | 0.0 | 1.7 | 0.00 | 0.00 | 0.00 | 67 | 1011.4 |
| 20260507024227 | 60 | 312 | 0.0 | 1.7 | 0.00 | 0.00 | 0.00 | 67 | 1011.4 |
| 20260507024127 | 60 | 306 | 0.0 | 1.7 | 0.00 | 0.00 | 0.00 | 67 | 1011.2 |
| 20260507024027 | 60 | 300 | 0.0 | 3.5 | 0.00 | 0.00 | 0.00 | 67 | 1011.3 |
| 20260507023926 | 59 | 297 | 0.9 | 3.5 | 0.00 | 0.00 | 0.00 | 67 | 1011.5 |
| 20260507023827 | 59 | 285 | 0.9 | 3.5 | 0.00 | 0.00 | 0.00 | 68 | 1011.4 |
| 20260507023727 | 59 | 279 | 0.9 | 3.5 | 0.00 | 0.00 | 0.00 | 68 | 1011.2 |
| 20260507023627 | 59 | 273 | 0.0 | 3.5 | 0.00 | 0.00 | 0.00 | 68 | 1011.3 |
| 20260507023526 | 59 | 270 | 0.0 | 3.5 | 0.00 | 0.00 | 0.00 | 69 | 1011.5 |
| 20260507023427 | 59 | 267 | 0.9 | 3.5 | 0.00 | 0.00 | 0.00 | 69 | 1011.3 |
| 20260507023326 | 59 | 263 | 1.7 | 3.5 | 0.00 | 0.00 | 0.00 | 69 | 1011.5 |
| 20260507023227 | 58 | 259 | 1.7 | 3.5 | 0.00 | 0.00 | 0.00 | 69 | 1011.3 |
| 20260507023127 | 58 | 258 | 1.7 | 3.5 | 0.00 | 0.00 | 0.00 | 69 | 1011.3 |
| 20260507023027 | 59 | 253 | 1.7 | 3.5 | 0.00 | 0.00 | 0.00 | 68 | 1011.2 |
| 20260507022926 | 58 | 248 | 1.7 | 3.5 | 0.00 | 0.00 | 0.00 | 68 | 1011.3 |
| 20260507022826 | 59 | 250 | 2.6 | 3.5 | 0.00 | 0.00 | 0.00 | 68 | 1011.2 |
| 20260507022726 | 59 | 251 | 2.6 | 3.5 | 0.00 | 0.00 | 0.00 | 68 | 1011.3 |
| 20260507022626 | 59 | 255 | 1.7 | 3.5 | 0.00 | 0.00 | 0.00 | 68 | 1011.2 |
| 20260507022526 | 59 | 304 | 0.9 | 1.7 | 0.00 | 0.00 | 0.00 | 68 | 1011.2 |
| 20260507022427 | 59 | 55 | 0.9 | 1.7 | 0.00 | 0.00 | 0.00 | 68 | 1011.3 |
| 20260507022327 | 59 | 55 | 0.9 | 3.5 | 0.00 | 0.00 | 0.00 | 68 | 1010.9 |
| 20260507022228 | 59 | 55 | 0.0 | 3.5 | 0.00 | 0.00 | 0.00 | 68 | 1011.0 |
| 20260507022127 | 59 | 54 | 0.0 | 3.5 | 0.00 | 0.00 | 0.00 | 68 | 1011.1 |
| 20260507022027 | 59 | 55 | 0.0 | 3.5 | 0.00 | 0.00 | 0.00 | 68 | 1010.9 |
| 20260507021926 | 59 | 54 | 0.0 | 3.5 | 0.00 | 0.00 | 0.00 | 67 | 1010.8 |
| 20260507021826 | 59 | 52 | 0.0 | 3.5 | 0.00 | 0.00 | 0.00 | 67 | 1011.0 |
| 20260507021727 | 59 | 51 | 0.0 | 3.5 | 0.00 | 0.00 | 0.00 | 67 | 1010.8 |
| 20260507021627 | 59 | 50 | 0.0 | 3.5 | 0.00 | 0.00 | 0.00 | 67 | 1010.7 |
| 20260507021527 | 59 | 47 | 1.7 | 3.5 | 0.00 | 0.00 | 0.00 | 67 | 1010.8 |
| 20260507021427 | 59 | 47 | 1.7 | 3.5 | 0.00 | 0.00 | 0.00 | 67 | 1010.7 |
| 20260507021328 | 59 | 47 | 1.7 | 5.2 | 0.00 | 0.00 | 0.00 | 67 | 1010.8 |
| 20260507021227 | 59 | 40 | 2.6 | 5.2 | 0.00 | 0.00 | 0.00 | 66 | 1010.7 |
| 20260507021127 | 59 | 39 | 2.6 | 5.2 | 0.00 | 0.00 | 0.00 | 66 | 1011.0 |
| 20260507021026 | 59 | 36 | 3.5 | 5.2 | 0.00 | 0.00 | 0.00 | 66 | 1010.7 |
| 20260507020926 | 60 | 33 | 3.5 | 5.2 | 0.00 | 0.00 | 0.00 | 65 | 1010.8 |
| 20260507020827 | 60 | 29 | 3.5 | 5.2 | 0.00 | 0.00 | 0.00 | 65 | 1010.8 |
| 20260507020726 | 60 | 19 | 1.7 | 5.2 | 0.00 | 0.00 | 0.00 | 65 | 1010.9 |
| 20260507020626 | 61 | 1 | 1.7 | 5.2 | 0.00 | 0.00 | 0.00 | 64 | 1010.8 |
| 20260507020527 | 61 | 339 | 1.7 | 5.2 | 0.00 | 0.00 | 0.00 | 63 | 1010.8 |
| 20260507020427 | 61 | 290 | 1.7 | 5.2 | 0.00 | 0.00 | 0.00 | 63 | 1010.8 |
| 20260507020327 | 61 | 263 | 2.6 | 5.2 | 0.00 | 0.00 | 0.00 | 63 | 1010.9 |
| 20260507020226 | 61 | 243 | 0.0 | 1.7 | 0.00 | 0.00 | 0.00 | 63 | 1010.9 |
| 20260507020127 | 61 | 242 | 0.0 | 3.5 | 0.00 | 0.00 | 0.00 | 63 | 1011.0 |
| 20260507020026 | 61 | 242 | 0.0 | 3.5 | 0.00 | 0.00 | 0.00 | 63 | 1011.0 |
| 20260507015927 | 60 | 242 | 0.0 | 3.5 | 0.00 | 0.00 | 0.00 | 62 | 1010.8 |
| 20260507015826 | 60 | 242 | 0.9 | 3.5 | 0.00 | 0.00 | 0.00 | 62 | 1010.9 |
| 20260507015726 | 60 | 243 | 1.7 | 3.5 | 0.00 | 0.00 | 0.00 | 62 | 1010.9 |
| 20260507015627 | 60 | 245 | 1.7 | 3.5 | 0.00 | 0.00 | 0.00 | 63 | 1011.0 |
| 20260507015527 | 60 | 247 | 1.7 | 3.5 | 0.00 | 0.00 | 0.00 | 63 | 1011.0 |
| 20260507015426 | 60 | 248 | 1.7 | 3.5 | 0.00 | 0.00 | 0.00 | 63 | 1011.1 |
| 20260507015326 | 60 | 250 | 0.9 | 3.5 | 0.00 | 0.00 | 0.00 | 63 | 1010.9 |
| 20260507015226 | 60 | 251 | 0.9 | 3.5 | 0.00 | 0.00 | 0.00 | 63 | 1010.9 |
| 20260507015127 | 60 | 252 | 1.7 | 3.5 | 0.00 | 0.00 | 0.00 | 63 | 1010.9 |
| 20260507015027 | 60 | 257 | 1.7 | 3.5 | 0.00 | 0.00 | 0.00 | 62 | 1010.8 |
| 20260507014926 | 60 | 268 | 1.7 | 3.5 | 0.00 | 0.00 | 0.00 | 63 | 1010.9 |
| 20260507014827 | 60 | 280 | 1.7 | 1.7 | 0.00 | 0.00 | 0.00 | 62 | 1010.9 |
| 20260507014727 | 61 | 292 | 0.9 | 1.7 | 0.00 | 0.00 | 0.00 | 63 | 1010.9 |
| 20260507014626 | 61 | 306 | 0.0 | 1.7 | 0.00 | 0.00 | 0.00 | 62 | 1010.7 |
| 20260507014527 | 61 | 332 | 0.9 | 1.7 | 0.00 | 0.00 | 0.00 | 61 | 1011.1 |
| 20260507014426 | 61 | 359 | 0.9 | 1.7 | 0.00 | 0.00 | 0.00 | 61 | 1010.6 |
| 20260507014326 | 61 | 21 | 0.0 | 1.7 | 0.00 | 0.00 | 0.00 | 61 | 1010.8 |
| 20260507014227 | 61 | 35 | 0.0 | 1.7 | 0.00 | 0.00 | 0.00 | 61 | 1010.7 |
| 20260507014126 | 61 | 42 | 0.0 | 1.7 | 0.00 | 0.00 | 0.00 | 61 | 1010.8 |
| 20260507014026 | 61 | 49 | 0.0 | 1.7 | 0.00 | 0.00 | 0.00 | 61 | 1010.6 |
| 20260507013926 | 61 | 54 | 0.0 | 1.7 | 0.00 | 0.00 | 0.00 | 61 | 1010.8 |
| 20260507013826 | 61 | 55 | 0.0 | 1.7 | 0.00 | 0.00 | 0.00 | 61 | 1010.5 |
| 20260507013726 | 61 | 55 | 0.0 | 1.7 | 0.00 | 0.00 | 0.00 | 61 | 1010.6 |
| 20260507013626 | 61 | 60 | 0.9 | 1.7 | 0.00 | 0.00 | 0.00 | 61 | 1010.5 |
| 20260507013526 | 61 | 65 | 0.9 | 1.7 | 0.00 | 0.00 | 0.00 | 61 | 1010.4 |
| 20260507013426 | 61 | 69 | 0.9 | 1.7 | 0.00 | 0.00 | 0.00 | 61 | 1010.4 |
| 20260507013326 | 61 | 71 | 1.7 | 1.7 | 0.00 | 0.00 | 0.00 | 60 | 1010.5 |
| 20260507013226 | 61 | 62 | 1.7 | 1.7 | 0.00 | 0.00 | 0.00 | 60 | 1010.4 |
| 20260507013127 | 61 | 49 | 0.9 | 1.7 | 0.00 | 0.00 | 0.00 | 60 | 1010.3 |
| 20260507013027 | 61 | 41 | 0.0 | 1.7 | 0.00 | 0.00 | 0.00 | 60 | 1010.4 |
| 20260507012926 | 61 | 22 | 0.0 | 1.7 | 0.00 | 0.00 | 0.00 | 61 | 1010.4 |
| 20260507012826 | 61 | 22 | 0.0 | 1.7 | 0.00 | 0.00 | 0.00 | 61 | 1010.6 |
| 20260507012727 | 61 | 13 | 0.0 | 1.7 | 0.00 | 0.00 | 0.00 | 61 | 1010.5 |
| 20260507012626 | 61 | 5 | 0.0 | 1.7 | 0.00 | 0.00 | 0.00 | 61 | 1010.5 |
| 20260507012527 | 61 | 358 | 0.0 | 1.7 | 0.00 | 0.00 | 0.00 | 61 | 1010.4 |
| 20260507012427 | 61 | 354 | 0.0 | 1.7 | 0.00 | 0.00 | 0.00 | 61 | 1010.5 |
| 20260507012326 | 61 | 353 | 0.0 | 1.7 | 0.00 | 0.00 | 0.00 | 61 | 1010.5 |
| 20260507012226 | 60 | 349 | 0.0 | 1.7 | 0.00 | 0.00 | 0.00 | 61 | 1010.5 |
| 20260507012127 | 61 | 347 | 0.0 | 1.7 | 0.00 | 0.00 | 0.00 | 61 | 1010.6 |
| 20260507012026 | 60 | 345 | 0.9 | 1.7 | 0.00 | 0.00 | 0.00 | 62 | 1010.5 |
| 20260507011926 | 60 | 343 | 0.0 | 1.7 | 0.00 | 0.00 | 0.00 | 62 | 1010.6 |
| 20260507011826 | 60 | 343 | 0.0 | 1.7 | 0.00 | 0.00 | 0.00 | 62 | 1010.4 |
| 20260507011727 | 60 | 347 | 0.0 | 1.7 | 0.00 | 0.00 | 0.00 | 62 | 1010.4 |
| 20260507011627 | 60 | 351 | 0.9 | 1.7 | 0.00 | 0.00 | 0.00 | 62 | 1010.3 |
| 20260507011527 | 60 | 354 | 0.9 | 1.7 | 0.00 | 0.00 | 0.00 | 62 | 1010.6 |
| 20260507011426 | 60 | 358 | 1.7 | 1.7 | 0.00 | 0.00 | 0.00 | 62 | 1010.3 |
| 20260507011326 | 60 | 1 | 1.7 | 1.7 | 0.00 | 0.00 | 0.00 | 62 | 1010.3 |
| 20260507011226 | 60 | 7 | 1.7 | 3.5 | 0.00 | 0.00 | 0.00 | 62 | 1010.2 |
| 20260507011126 | 60 | 12 | 1.7 | 3.5 | 0.00 | 0.00 | 0.00 | 62 | 1010.2 |
| 20260507011026 | 60 | 20 | 1.7 | 3.5 | 0.00 | 0.00 | 0.00 | 62 | 1010.4 |
| 20260507010926 | 60 | 25 | 1.7 | 3.5 | 0.00 | 0.00 | 0.00 | 62 | 1010.2 |
| 20260507010827 | 60 | 29 | 0.9 | 3.5 | 0.00 | 0.00 | 0.00 | 62 | 1010.3 |
| 20260507010727 | 60 | 26 | 0.9 | 3.5 | 0.00 | 0.00 | 0.00 | 62 | 1010.4 |
| 20260507010626 | 60 | 25 | 1.7 | 3.5 | 0.00 | 0.00 | 0.00 | 62 | 1010.3 |
| 20260507010526 | 60 | 27 | 1.7 | 3.5 | 0.00 | 0.00 | 0.00 | 62 | 1010.2 |
| 20260507010426 | 60 | 28 | 1.7 | 3.5 | 0.00 | 0.00 | 0.00 | 63 | 1010.4 |
| 20260507010326 | 60 | 29 | 1.7 | 3.5 | 0.00 | 0.00 | 0.00 | 63 | 1010.0 |
| 20260507010226 | 60 | 35 | 1.7 | 3.5 | 0.00 | 0.00 | 0.00 | 63 | 1010.4 |
| 20260507010127 | 60 | 39 | 1.7 | 3.5 | 0.00 | 0.00 | 0.00 | 63 | 1010.2 |
| 20260507010027 | 60 | 41 | 1.7 | 3.5 | 0.00 | 0.00 | 0.00 | 63 | 1010.5 |
| 20260507005926 | 60 | 44 | 1.7 | 3.5 | 0.00 | 0.00 | 0.00 | 63 | 1010.4 |
| 20260507005827 | 60 | 50 | 1.7 | 3.5 | 0.00 | 0.00 | 0.00 | 63 | 1010.4 |
| 20260507005727 | 60 | 54 | 0.9 | 3.5 | 0.00 | 0.00 | 0.00 | 63 | 1010.4 |
| 20260507005626 | 60 | 53 | 1.7 | 3.5 | 0.00 | 0.00 | 0.00 | 63 | 1010.5 |
| 20260507005526 | 60 | 53 | 0.9 | 3.5 | 0.00 | 0.00 | 0.00 | 63 | 1010.5 |
| 20260507005426 | 60 | 54 | 1.7 | 5.2 | 0.00 | 0.00 | 0.00 | 62 | 1010.3 |
| 20260507005326 | 61 | 54 | 1.7 | 5.2 | 0.00 | 0.00 | 0.00 | 62 | 1010.1 |
| 20260507005227 | 61 | 53 | 1.7 | 5.2 | 0.00 | 0.00 | 0.00 | 61 | 1010.4 |
| 20260507005126 | 61 | 48 | 2.6 | 5.2 | 0.00 | 0.00 | 0.00 | 61 | 1010.3 |
| 20260507005026 | 61 | 47 | 2.6 | 5.2 | 0.00 | 0.00 | 0.00 | 62 | 1010.4 |
| 20260507004927 | 61 | 44 | 1.7 | 5.2 | 0.00 | 0.00 | 0.00 | 62 | 1010.3 |
| 20260507004826 | 60 | 40 | 2.6 | 5.2 | 0.00 | 0.00 | 0.00 | 62 | 1010.2 |
| 20260507004727 | 60 | 38 | 3.5 | 5.2 | 0.00 | 0.00 | 0.00 | 63 | 1010.4 |
| 20260507004626 | 60 | 42 | 1.7 | 5.2 | 0.00 | 0.00 | 0.00 | 63 | 1010.3 |
| 20260507004526 | 60 | 44 | 2.6 | 5.2 | 0.00 | 0.00 | 0.00 | 63 | 1010.6 |
| 20260507004427 | 60 | 44 | 2.6 | 5.2 | 0.00 | 0.00 | 0.00 | 63 | 1010.5 |
| 20260507004326 | 60 | 49 | 1.7 | 3.5 | 0.00 | 0.00 | 0.00 | 64 | 1010.5 |
| 20260507004227 | 60 | 51 | 1.7 | 3.5 | 0.00 | 0.00 | 0.00 | 63 | 1010.5 |
| 20260507004127 | 60 | 56 | 1.7 | 3.5 | 0.00 | 0.00 | 0.00 | 63 | 1010.4 |
| 20260507004027 | 60 | 58 | 1.7 | 3.5 | 0.00 | 0.00 | 0.00 | 63 | 1010.4 |
| 20260507003927 | 60 | 60 | 2.6 | 3.5 | 0.00 | 0.00 | 0.00 | 63 | 1010.2 |
| 20260507003826 | 60 | 63 | 2.6 | 3.5 | 0.00 | 0.00 | 0.00 | 63 | 1010.5 |
| 20260507003727 | 60 | 65 | 3.5 | 3.5 | 0.00 | 0.00 | 0.00 | 64 | 1010.5 |
| 20260507003626 | 60 | 65 | 2.6 | 5.2 | 0.00 | 0.00 | 0.00 | 64 | 1010.5 |
| 20260507003528 | 60 | 67 | 1.7 | 5.2 | 0.00 | 0.00 | 0.00 | 65 | 1010.3 |
| 20260507003426 | 59 | 67 | 1.7 | 6.1 | 0.00 | 0.00 | 0.00 | 66 | 1010.5 |
| 20260507003326 | 59 | 63 | 1.7 | 6.1 | 0.00 | 0.00 | 0.00 | 66 | 1010.4 |
| 20260507003226 | 60 | 61 | 1.7 | 6.1 | 0.00 | 0.00 | 0.00 | 66 | 1010.5 |
| 20260507003127 | 60 | 60 | 1.7 | 6.1 | 0.00 | 0.00 | 0.00 | 65 | 1010.5 |
| 20260507003027 | 60 | 58 | 1.7 | 6.1 | 0.00 | 0.00 | 0.00 | 65 | 1010.6 |
| 20260507002926 | 60 | 54 | 1.7 | 6.1 | 0.00 | 0.00 | 0.00 | 65 | 1010.7 |
| 20260507002826 | 60 | 48 | 1.7 | 6.1 | 0.00 | 0.00 | 0.00 | 64 | 1010.4 |
| 20260507002727 | 60 | 45 | 3.5 | 6.1 | 0.00 | 0.00 | 0.00 | 64 | 1010.5 |
| 20260507002626 | 60 | 42 | 3.5 | 6.1 | 0.00 | 0.00 | 0.00 | 64 | 1010.5 |
| 20260507002526 | 60 | 39 | 4.3 | 6.1 | 0.00 | 0.00 | 0.00 | 64 | 1010.5 |
| 20260507002427 | 60 | 38 | 4.3 | 6.1 | 0.00 | 0.00 | 0.00 | 64 | 1010.5 |
| 20260507002326 | 60 | 36 | 3.5 | 5.2 | 0.00 | 0.00 | 0.00 | 64 | 1010.5 |
| 20260507002227 | 60 | 35 | 3.5 | 5.2 | 0.00 | 0.00 | 0.00 | 64 | 1010.3 |
| 20260507002126 | 60 | 33 | 2.6 | 5.2 | 0.00 | 0.00 | 0.00 | 64 | 1010.4 |
| 20260507002026 | 61 | 36 | 2.6 | 5.2 | 0.00 | 0.00 | 0.00 | 64 | 1010.4 |
| 20260507001926 | 61 | 41 | 2.6 | 5.2 | 0.00 | 0.00 | 0.00 | 63 | 1010.5 |
| 20260507001826 | 61 | 48 | 1.7 | 5.2 | 0.00 | 0.00 | 0.00 | 63 | 1010.6 |
| 20260507001726 | 60 | 51 | 3.5 | 5.2 | 0.00 | 0.00 | 0.00 | 63 | 1010.3 |
| 20260507001626 | 60 | 53 | 3.5 | 3.5 | 0.00 | 0.00 | 0.00 | 64 | 1010.6 |
| 20260507001526 | 61 | 55 | 1.7 | 3.5 | 0.00 | 0.00 | 0.00 | 63 | 1010.7 |
| 20260507001426 | 61 | 57 | 2.6 | 3.5 | 0.00 | 0.00 | 0.00 | 63 | 1010.5 |
| 20260507001326 | 61 | 59 | 2.6 | 3.5 | 0.00 | 0.00 | 0.00 | 63 | 1010.5 |
| 20260507001226 | 61 | 63 | 2.6 | 3.5 | 0.00 | 0.00 | 0.00 | 63 | 1010.4 |
| 20260507001126 | 61 | 66 | 1.7 | 3.5 | 0.00 | 0.00 | 0.00 | 63 | 1010.6 |
| 20260507001026 | 61 | 67 | 2.6 | 3.5 | 0.00 | 0.00 | 0.00 | 62 | 1010.4 |
| 20260507000926 | 61 | 67 | 1.7 | 3.5 | 0.00 | 0.00 | 0.00 | 63 | 1010.5 |
| 20260507000826 | 60 | 67 | 1.7 | 5.2 | 0.00 | 0.00 | 0.00 | 66 | 1010.6 |
| 20260507000726 | 60 | 72 | 1.7 | 5.2 | 0.00 | 0.00 | 0.00 | 66 | 1010.5 |
| 20260507000626 | 60 | 73 | 1.7 | 5.2 | 0.00 | 0.00 | 0.00 | 66 | 1010.5 |
| 20260507000526 | 60 | 73 | 1.7 | 6.1 | 0.00 | 0.00 | 0.00 | 66 | 1010.4 |
| 20260507000427 | 60 | 70 | 1.7 | 6.1 | 0.00 | 0.00 | 0.00 | 66 | 1010.6 |
| 20260507000328 | 60 | 70 | 1.7 | 6.1 | 0.00 | 0.00 | 0.00 | 66 | 1010.5 |
| 20260507000227 | 60 | 66 | 1.7 | 6.1 | 0.00 | 0.00 | 0.00 | 66 | 1010.6 |
| 20260507000126 | 60 | 64 | 1.7 | 6.1 | 0.00 | 0.00 | 0.00 | 66 | 1010.6 |
| 20260507000027 | 60 | 60 | 1.7 | 6.1 | 0.00 | 0.00 | 0.00 | 66 | 1010.6 |
| 20260506235926 | 60 | 57 | 1.7 | 6.1 | 0.00 | 0.00 | 0.00 | 66 | 1010.5 |
| 20260506235826 | 61 | 52 | 2.6 | 6.1 | 0.00 | 0.00 | 0.00 | 65 | 1010.5 |
| 20260506235726 | 61 | 49 | 2.6 | 6.1 | 0.00 | 0.00 | 0.00 | 65 | 1010.6 |
| 20260506235626 | 61 | 45 | 3.5 | 6.1 | 0.00 | 0.00 | 0.00 | 65 | 1010.3 |
| 20260506235526 | 61 | 42 | 3.5 | 6.1 | 0.00 | 0.00 | 0.00 | 65 | 1010.6 |
| 20260506235426 | 61 | 41 | 3.5 | 5.2 | 0.00 | 0.00 | 0.00 | 64 | 1010.4 |
| 20260506235326 | 61 | 38 | 3.5 | 5.2 | 0.00 | 0.00 | 0.00 | 64 | 1010.5 |
| 20260506235226 | 61 | 38 | 3.5 | 3.5 | 0.00 | 0.00 | 0.00 | 64 | 1010.4 |